     2              OBSERVATION DATA    GPS                 RINEX VERSION / TYPE
teqc 2000Feb29 Duncan Agnew 20030513 23:34:11UTC            PGM / RUN BY / DATE
                                                            COMMENT
L2: 1 -> 1; 150 -> 5; 250 -> 9                              COMMENT
L2: 1 -> 1; 150 -> 5; 250 -> 9                              COMMENT
L2: 1 -> 1; 150 -> 5; 250 -> 9                              COMMENT
L2: 1 -> 1; 150 -> 5; 250 -> 9                              COMMENT
L2: 1 -> 1; 150 -> 5; 250 -> 9                              COMMENT
Original Marker Name: CJGG                                  COMMENT
Campaign Name: Baja 2002-3                                  COMMENT
4-Character Station Name: CJGG                              COMMENT
6-Character Antenna Code: DMRCHT                            COMMENT
Vertical Measurement Point: BCR                             COMMENT
Vertical Offset to Rinex Ref. Point: 0.0348                 COMMENT
Radial Measurement Point: ECF                               COMMENT
Radial Offset to Rinex Ref. Point: 0.1897                   COMMENT
Antenna Height from Field Measurement: 1.3959 m             COMMENT
Additional Antenna Identification Info.:                    COMMENT
Turborogue and Ashtech Choke Ring                           COMMENT
Original XYZ: -2431161.9201 -4846209.4999 3348030.8003      COMMENT
New XYZ position is based on association with SCEC monument COMMENT
E1C2W4P7+0011. Position of that monument is believed to be  COMMENT
valid to within 1 m horizontally; vertical accuracy         COMMENT
should be no worse than 3-times this value.                 COMMENT
                                                            COMMENT
Revised Rinex header created by UCSD GPS archive for        COMMENT
GSAC on 11-Jul-2003 (2003:192) 15:54:17 GMT                 COMMENT
For assistance contact dagnew@ucsd.edu                      COMMENT
or anderson@python.ucsd.edu                                 COMMENT
                                                            COMMENT
CASA DE ARMIDA ORTEGA                                       MARKER NAME
JGG CICESE (ENSENADA)                                       OBSERVER / AGENCY
386 ASHTECH Z-XII3 CC00                                     REC # / TYPE / VERS
003 DORNE-MARGOL. TYPE T                                    ANT # / TYPE
 -2431153.7404 -4846192.5940  3348020.9193                  APPROX POSITION XYZ
        1.3482        0.0000        0.0000                  ANTENNA: DELTA H/E/N
     1     1     0                                          WAVELENGTH FACT L1/2
     7    C1    L1    L2    P1    P2    S1    S2            # / TYPES OF OBSERV
     0                                                      INTERVAL
  2003     3    25     0     0   30.000000                  TIME OF FIRST OBS
  2003     3    25    15    25   30.000000                  TIME OF LAST OBS
                                                            END OF HEADER
 03  3 25  0  0 30.0000000  0  9G14G 3G 6G26G17G16G23G15G18
  23507126.959    -3907661.04249  -3022876.07945  23507126.555    23507133.605
       213.000         152.000
  23359131.243    -8100862.02549  -6297048.26346  23359130.830    23359138.469
       221.000         167.000
  23075314.930   -16711626.50449 -12728406.78846  23075315.272    23075322.808
       219.000         164.000
  23176167.813     -761139.05549   -564257.37445  23176168.722    23176173.959
       216.000         160.000
  20933723.358   -21273535.07149 -16555403.74247  20933722.935    20933729.096
       242.000         206.000
  24231113.558    -5971510.91649  -4634856.73345  24231113.199    24231121.756
       207.000         142.000
  21042520.458   -15568667.87849 -12111151.40447  21042520.196    21042526.095
       240.000         208.000
  20717489.680   -26598080.08549 -20702650.03147  20717489.141    20717495.853
       244.000         208.000
  20528806.693   -18289614.14749 -13849437.15448  20528806.513    20528811.593
       241.000         213.000
 03  3 25  0  1  0.0000000  0  9G14G 3G 6G26G17G16G23G15G18
  23486289.362    -4017163.10749  -3108202.16645  23486288.491    23486296.855
       212.000         153.000
  23343654.118    -8182194.65749  -6360424.29546  23343653.505    23343661.282
       223.000         165.000
  23095069.521   -16607815.75749 -12647515.40546  23095069.586    23095077.614
       219.000         163.000
  23193879.184     -668065.51949   -491732.57645  23193879.531    23193886.022
       219.000         160.000
  20936057.511   -21261268.66049 -16545845.50747  20936056.999    20936063.333
       241.000         205.000
  24240785.474    -5920684.04049  -4595251.46645  24240783.845    24240795.548
       201.000         140.000
  21048802.954   -15535653.29549 -12085425.75747  21048802.797    21048808.907
       241.000         208.000
  20710836.264   -26633044.07249 -20729894.68947  20710835.787    20710842.219
       244.000         209.000
  20530132.581   -18282646.89149 -13844008.11648  20530132.435    20530137.183
       242.000         214.000
 03  3 25  0  1 30.0000000  0  9G14G 3G 6G26G17G16G23G15G18
  23465477.386    -4126530.67649  -3193423.43245  23465477.138    23465485.012
       208.000         154.000
  23328240.614    -8263193.33249  -6423540.07545  23328240.215    23328246.334
       221.000         162.000
  23114861.055   -16503811.06349 -12566472.88446  23114861.404    23114869.591
       220.000         164.000
  23211660.945     -574621.28749   -418918.93245  23211661.841    23211668.300
       215.000         159.000
  20938439.228   -21248752.61549 -16536092.73747  20938438.581    20938445.282
       242.000         205.000
  24250508.508    -5869589.28149  -4555437.44645  24250508.992    24250518.814
       204.000         140.000
  21055124.660   -15502432.68849 -12059539.57247  21055124.071    21055130.431
       241.000         208.000
  20704221.850   -26667803.01449 -20756979.56747  20704221.226    20704227.854
       244.000         209.000
  20531517.289   -18275370.23749 -13838337.98648  20531516.997    20531522.150
       241.000         214.000
 03  3 25  0  2  0.0000000  0  9G14G 3G 6G26G17G16G23G15G18
  23444691.154    -4235762.07149  -3278538.61145  23444690.279    23444698.396
       215.000         156.000
  23312890.938    -8343856.32649  -6486394.31245  23312890.602    23312897.495
       219.000         159.000
  23134689.007   -16399615.71049 -12485281.80746  23134689.738    23134697.847
       221.000         164.000
  23229512.556     -480810.14849   -345819.38345  23229512.473    23229519.183
       216.000         158.000
  20940868.571   -21235986.59449 -16526145.19047  20940868.428    20940874.561
       242.000         205.000
  24260281.841    -5818230.14949  -4515417.43845  24260281.716    24260290.624
       205.000         142.000
  21061485.020   -15469008.56549 -12033494.79747  21061484.738    21061491.042
       241.000         208.000
  20697646.564   -26702356.32949 -20783904.21547  20697646.028    20697652.475
       244.000         208.000
  20532960.466   -18267786.10049 -13832428.26248  20532960.137    20532965.149
       241.000         213.000
 03  3 25  0  2 30.0000000  0  9G14G 3G 6G26G17G16G23G15G18
  23423931.486    -4344853.59549  -3363544.79745  23423930.730    23423938.343
       217.000         157.000
  23297605.746    -8424180.51449  -6548984.52145  23297604.904    23297613.392
       217.000         158.000
  23154552.910   -16295231.57849 -12403943.61346  23154552.967    23154561.382
       221.000         164.000
  23247433.649     -386634.29549   -272435.63745  23247434.306    23247441.749
       215.000         159.000
  20943345.742   -21222969.22849 -16516001.79247  20943345.104    20943351.640
       242.000         205.000
  24270105.094    -5766608.65149  -4475192.96345  24270104.866    24270115.181
       206.000         141.000
  21067884.062   -15435381.76549 -12007292.09647  21067883.987    21067889.896
       241.000         208.000
  20691110.779   -26736701.85349 -20810666.94447  20691110.133    20691116.874
       243.000         208.000
  20534461.971   -18259895.26749 -13826279.55548  20534461.648    20534466.470
       241.000         213.000
 03  3 25  0  3  0.0000000  0  9G14G 3G 6G26G17G16G23G15G18
  23403199.098    -4453802.24749  -3448439.66045  23403197.983    23403206.287
       214.000         157.000
  23282385.463    -8504163.04749  -6611308.52345  23282384.021    23282390.875
       213.000         156.000
  23174452.274   -16190660.68649 -12322459.90546  23174452.440    23174460.690
       220.000         164.000
  23265423.642     -292096.35149   -198769.75545  23265423.622    23265431.159
       213.000         159.000
  20945870.928   -21209698.93549 -16505661.31747  20945870.196    20945876.914
       241.000         205.000
  24279977.759    -5714727.23449  -4434765.97945  24279977.691    24279987.116
       209.000         144.000
  21074321.347   -15401553.59649 -11980932.48747  21074320.891    21074327.065
       241.000         208.000
  20684614.836   -26770837.82249 -20837266.38547  20684613.660    20684620.779
       241.000         208.000
  20536021.742   -18251698.62149 -13819892.55548  20536021.618    20536026.315
       242.000         213.000
 03  3 25  0  3 30.0000000  0  9G14G 3G 6G26G17G16G23G15G18
  23382494.138    -4562606.58649  -3533222.08345  23382493.507    23382501.770
       215.000         158.000
  23267230.317    -8583802.90149  -6673365.49345  23267228.883    23267237.227
       215.000         155.000
  23194386.340   -16085906.83049 -12240833.61446  23194386.810    23194395.078
       220.000         163.000
  23283481.556     -197200.91149   -124825.29945  23283482.431    23283489.742
       216.000         157.000
  20948444.240   -21196175.88249 -16495123.88647  20948443.944    20948450.490
       241.000         205.000
  24289899.106    -5662590.08849  -4394139.72145  24289899.892    24289907.669
       210.000         145.000
  21080796.391   -15367526.98449 -11954418.24347  21080796.109    21080802.194
       241.000         208.000
  20678158.712   -26804764.48449 -20863702.73947  20678158.319    20678164.816
       243.000         208.000
  20537639.298   -18243198.60049 -13813269.14848  20537638.848    20537644.014
       241.000         213.000
 03  3 25  0  4  0.0000000  0  9G14G 3G 6G26G17G16G23G15G18
  23361817.327    -4671262.82949  -3617889.12745  23361816.881    23361824.170
       213.000         158.000
  23252141.014    -8663096.34749  -6735152.53345  23252140.118    23252147.454
       214.000         156.000
  23214354.871   -15980971.52449 -12159065.93045  23214354.307    23214363.805
       219.000         162.000
  23301607.336     -101949.70049    -50603.60345  23301608.452    23301616.183
       217.000         157.000
  20951066.207   -21182397.70449 -16484387.65247  20951065.899    20951072.385
       242.000         206.000
  24299869.251    -5610198.66149  -4353315.31745  24299870.480    24299877.712
       212.000         146.000
  21087309.116   -15333302.42249 -11927749.75647  21087308.530    21087314.958
       241.000         208.000
  20671743.022   -26838479.50949 -20889974.17047  20671742.700    20671748.608
       243.000         208.000
  20539314.452   -18234395.33649 -13806409.45048  20539314.209    20539319.071
       242.000         213.000
 03  3 25  0  4 30.0000000  0  9G14G 3G 6G26G17G16G23G15G18
  23341169.203    -4779768.65149  -3702438.94145  23341167.656    23341176.395
       212.000         158.000
  23237117.993    -8742041.45849  -6796668.14845  23237117.398    23237125.141
       217.000         158.000
  23234357.283   -15875857.70749 -12077159.14945  23234357.269    23234365.557
       218.000         161.000
  23319800.261       -6346.21049     23892.58345  23319799.918    23319808.097
       215.000         159.000
  20953736.749   -21168363.83249 -16473452.16647  20953736.030    20953742.506
       240.000         205.000
  24309887.046    -5557556.24049  -4312295.31245  24309887.055    24309895.278
       209.000         145.000
  21093859.076   -15298882.02349 -11900928.66747  21093858.905    21093864.805
       241.000         208.000
  20665367.854   -26871981.84749 -20916079.87147  20665367.374    20665373.401
       243.000         208.000
  20541047.104   -18225290.59349 -13799314.83248  20541046.859    20541051.755
       242.000         213.000
 03  3 25  0  5  0.0000000  0  9G14G 3G 6G26G17G16G23G15G18
  23320550.275    -4888120.91049  -3786869.13745  23320550.149    23320557.186
       216.000         159.000
  23222162.007    -8820635.42049  -6857910.15145  23222161.922    23222169.810
       219.000         162.000
  23254393.267   -15770567.43949 -11995114.88145  23254393.538    23254402.266
       217.000         160.000
  23338059.516       89606.94349     98661.22245  23338059.108    23338067.238
       215.000         159.000
  20956456.156   -21154072.92949 -16462316.40447  20956455.688    20956462.009
       240.000         205.000
  24319952.098    -5504665.25749  -4271081.64945  24319952.227    24319960.731
       209.000         145.000
  21100446.074   -15264267.00149 -11873955.92547  21100445.436    21100451.714
       240.000         207.000
  20659033.332   -26905270.10149 -20942018.75847  20659032.849    20659038.618
       243.000         208.000
  20542836.917   -18215885.23149 -13791985.96648  20542836.440    20542841.280
       242.000         213.000
 03  3 25  0  5 30.0000000  0  9G14G 3G 6G26G17G16G23G15G18
  23299961.052    -4996317.26649  -3871177.82545  23299960.313    23299968.115
       217.000         159.000
  23207273.264    -8898876.30549  -6918877.01046  23207272.789    23207280.385
       222.000         166.000
  23274462.263   -15665103.76849 -11912935.49645  23274462.335    23274471.205
       217.000         159.000
  23356384.645      185906.43349    173699.72745  23356384.432    23356392.635
       214.000         157.000
  20959224.673   -21139524.35549 -16450979.85847  20959224.181    20959230.952
       241.000         205.000
  24330063.529    -5451528.93949  -4229676.81545  24330062.848    24330071.863
       209.000         145.000
  21107069.741   -15229459.18549 -11846832.95347  21107069.260    21107075.323
       240.000         207.000
  20652739.752   -26938342.93749 -20967789.79047  20652739.096    20652745.268
       243.000         208.000
  20544683.516   -18206180.93749 -13784424.16748  20544683.162    20544688.027
       241.000         213.000
 03  3 25  0  6  0.0000000  0  9G14G 3G 6G26G17G16G23G15G18
  23279402.106    -5104354.64949  -3955362.65945  23279401.236    23279409.527
       217.000         161.000
  23192452.210    -8976761.69549  -6979566.88346  23192452.279    23192459.419
       221.000         168.000
  23294563.992   -15559468.79749 -11830622.63545  23294564.049    23294573.470
       214.000         159.000
  23374775.187      282549.53249    249005.99945  23374775.889    23374782.651
       215.000         156.000
  20962042.450   -21124716.62149 -16439441.38247  20962041.930    20962048.724
       240.000         205.000
  24340221.267    -5398149.65549  -4188082.65045  24340221.046    24340230.644
       210.000         145.000
  21113729.853   -15194460.01449 -11819560.87747  21113729.689    21113735.752
       240.000         207.000
  20646487.457   -26971198.75449 -20993391.70947  20646486.535    20646493.151
       242.000         208.000
  20546586.850   -18196178.76249 -13776630.25148  20546586.484    20546591.432
       241.000         213.000
 03  3 25  0  6 30.0000000  0  9G14G 3G 6G26G17G16G23G15G18
  23258873.854    -5212230.78749  -4039421.82845  23258873.037    23258881.392
       213.000         161.000
  23177699.200    -9054289.35149  -7039978.00546  23177699.193    23177706.457
       222.000         169.000
  23314697.846   -15453665.30349 -11748178.48045  23314698.590    23314706.603
       215.000         159.000
  23393230.646      379532.72949    324577.28445  23393230.813    23393237.983
       214.000         155.000
  20964909.746   -21109648.94049 -16427700.34047  20964909.295    20964915.688
       240.000         204.000
  24350424.419    -5344530.75849  -4146301.78945  24350423.672    24350433.690
       206.000         145.000
  21120426.029   -15159271.52949 -11792141.28447  21120425.734    21120431.348
       241.000         207.000
  20640276.574   -27003836.88449 -21018824.00447  20640275.854    20640282.521
       242.000         208.000
  20548546.553   -18185880.29049 -13768605.45948  20548545.988    20548551.361
       241.000         213.000
 03  3 25  0  7  0.0000000  0  9G14G 3G 6G26G17G16G23G15G18
  23238376.533    -5319943.94449  -4123354.03145  23238376.527    23238384.182
       215.000         160.000
  23163014.560    -9131457.90949  -7100109.30746  23163013.919    23163021.895
       221.000         170.000
  23334863.144   -15347696.75749 -11665605.69245  23334863.440    23334871.690
       216.000         158.000
  23411749.934      476852.06249    400410.48045  23411750.193    23411757.886
       212.000         153.000
  20967826.501   -21094321.29949 -16415756.72647  20967826.246    20967832.422
       240.000         204.000
  24360672.487    -5290675.93549  -4104337.07045  24360672.677    24360682.147
       211.000         147.000
  21127157.740   -15123896.38749 -11764576.23747  21127157.363    21127163.217
       240.000         207.000
  20634107.166   -27036257.12649 -21044086.51547  20634106.485    20634113.216
       243.000         209.000
  20550562.103   -18175287.81149 -13760351.57547  20550561.552    20550566.659
       241.000         212.000
 03  3 25  0  7 30.0000000  0  9G14G 3G 6G26G17G16G23G15G18
  23217911.163    -5427489.60749  -4207155.69245  23217910.955    23217918.345
       216.000         158.000
  23148398.954    -9208263.34649  -7159957.63946  23148398.018    23148405.466
       220.000         170.000
  23355059.687   -15241563.89249 -11582904.86245  23355060.578    23355068.202
       217.000         159.000
  23430332.869      574506.10649    476504.50545  23430332.438    23430341.294
       210.000         154.000
  20970793.215   -21078731.28249 -16403608.66147  20970792.662    20970799.732
       239.000         204.000
  24370965.592    -5236586.33749  -4062189.43845  24370966.111    24370974.528
       208.000         147.000
  21133924.911   -15088334.45249 -11736865.63547  21133924.279    21133930.637
       240.000         206.000
  20627979.834   -27068456.41049 -21069176.84947  20627979.477    20627985.310
       244.000         209.000
  20552633.794   -18164400.70449 -13751868.10848  20552633.598    20552638.531
       242.000         213.000
 03  3 25  0  8  0.0000000  0  9G14G 3G 6G26G17G16G23G15G18
  23197478.183    -5534865.28449  -4290824.91445  23197478.270    23197485.247
       216.000         157.000
  23133852.723    -9284703.44749  -7219521.31846  23133853.167    23133860.168
       221.000         170.000
  23375286.993   -15135269.46749 -11500078.13545  23375287.545    23375296.200
       216.000         158.000
  23448978.828      672491.79849    552856.94745  23448978.150    23448987.473
       214.000         155.000
  20973809.986   -21062877.89449 -16391255.38147  20973809.444    20973816.291
       241.000         205.000
  24381302.778    -5182264.88749  -4019861.13945  24381302.775    24381312.439
       209.000         147.000
  21140727.241   -15052587.44249 -11709010.82647  21140727.019    21140733.376
       241.000         207.000
  20621894.892   -27100433.30249 -21094093.88847  20621894.260    20621900.767
       243.000         209.000
  20554761.338   -18153220.85749 -13743156.53848  20554761.375    20554766.167
       241.000         213.000
 03  3 25  0  8 30.0000000  0  9G14G 3G 6G26G17G16G23G15G18
  23177078.047    -5642068.78349  -4374359.96545  23177077.423    23177085.402
       214.000         159.000
  23119376.459    -9360776.45149  -7278798.93446  23119376.609    23119384.238
       222.000         170.000
  23395544.364   -15028816.56149 -11417127.92145  23395544.671    23395553.755
       215.000         157.000
  23467687.202      770805.40249    629464.92945  23467687.538    23467695.832
       213.000         155.000
  20976877.034   -21046760.60649 -16378696.46847  20976876.650    20976883.494
       240.000         205.000
  24391683.575    -5127715.03949  -3977354.87245  24391683.299    24391692.356
       209.000         146.000
  21147564.530   -15016657.45549 -11681013.43447  21147564.416    21147570.425
       241.000         207.000
  20615852.345   -27132186.87049 -21118836.91347  20615851.763    20615858.083
       243.000         209.000
  20556944.260   -18141749.66649 -13734217.94248  20556943.864    20556948.995
       241.000         213.000
 03  3 25  0  9  0.0000000  0  9G14G 3G 6G26G17G16G23G15G18
  23156711.293    -5749096.97149  -4457758.39945  23156709.703    23156717.620
       216.000         157.000
  23104970.889    -9436479.34049  -7337788.16246  23104971.071    23104978.718
       222.000         171.000
  23415831.533   -14922207.26149 -11334055.85545  23415831.537    23415840.506
       214.000         157.000
  23486457.532      869444.52849    706326.54845  23486458.023    23486465.119
       213.000         154.000
  20979994.668   -21030377.26849 -16365930.24447  20979994.162    20980001.235
       239.000         205.000
  24402107.105    -5072939.25849  -3934672.53245  24402107.383    24402115.970
       212.000         145.000
  21154436.427   -14980545.65049 -11652874.36247  21154436.378    21154442.235
       241.000         207.000
  20609852.633   -27163715.46249 -21143404.62947  20609851.986    20609858.387
       243.000         209.000
  20559182.459   -18129988.09749 -13725053.07848  20559182.204    20559187.246
       242.000         213.000
 03  3 25  0  9 30.0000000  0  9G14G 3G 6G26G17G16G23G15G18
  23136377.807    -5855949.15449  -4541019.69745  23136377.149    23136384.620
       214.000         156.000
  23090635.568    -9511812.00949  -7396488.88946  23090635.686    23090642.569
       220.000         169.000
  23436147.504   -14815446.18049 -11250865.50245  23436147.243    23436157.373
       215.000         157.000
  23505289.116      968403.83249    783437.64845  23505290.536    23505297.032
       217.000         154.000
  20983162.548   -21013729.66349 -16352958.08847  20983162.249    20983169.065
       240.000         205.000
  24412572.940    -5017942.53049  -3891818.02545  24412572.718    24412581.838
       212.000         144.000
  21161342.220   -14944255.85649 -11624596.60447  21161342.098    21161347.963
       241.000         207.000
  20603895.580   -27195019.89749 -21167797.67747  20603894.840    20603901.430
       243.000         209.000
  20561475.180   -18117939.55649 -13715664.60348  20561474.687    20561479.929
       241.000         213.000
 03  3 25  0 10  0.0000000  0  9G14G 3G 6G26G17G16G23G15G18
  23116078.621    -5962621.25249  -4624140.65245  23116077.722    23116084.839
       214.000         157.000
  23076371.261    -9586770.45749  -7454898.02646  23076370.361    23076379.168
       220.000         168.000
  23456492.110   -14708534.38449 -11167557.72745  23456491.969    23456500.994
       215.000         157.000
  23524181.276     1067681.79649    860797.06345  23524182.527    23524188.316
       214.000         154.000
  20986381.300   -20996815.26749 -16339778.04247  20986381.061    20986387.787
       240.000         205.000
  24423080.422    -4962726.02049  -3848792.22845  24423080.623    24423089.654
       214.000         144.000
  21168281.870   -14907787.92149 -11596180.02947  21168281.634    21168287.710
       241.000         207.000
  20597981.709   -27226097.21449 -21192013.75347  20597980.984    20597987.535
       243.000         209.000
  20563822.519   -18105603.98049 -13706052.46448  20563822.272    20563827.415
       242.000         213.000
 03  3 25  0 10 30.0000000  0  9G14G 3G 6G26G17G16G23G15G18
  23095814.499    -6069109.52749  -4707118.40145  23095813.431    23095821.258
       217.000         158.000
  23062178.790    -9661351.72049  -7513013.26746  23062177.647    23062186.461
       218.000         168.000
  23476865.170   -14601473.32949 -11084133.65145  23476865.144    23476874.355
       218.000         157.000
  23543133.507     1167276.43349    938403.22545  23543133.818    23543140.898
       212.000         151.000
  20989651.258   -20979631.91049 -16326388.42147  20989651.017    20989657.491
       240.000         204.000
  24433629.393    -4907291.61749  -3805596.68245  24433629.031    24433638.535
       211.000         143.000
  21175255.280   -14871142.60749 -11567625.23947  21175254.686    21175260.967
       241.000         207.000
  20592111.498   -27256945.30849 -21216051.21447  20592110.928    20592117.427
       243.000         210.000
  20566224.500   -18092981.65949 -13696216.88548  20566224.389    20566229.083
       242.000         213.000
 03  3 25  0 11  0.0000000  0  9G14G 3G 6G26G17G16G23G15G18
  23075585.730    -6175411.79449  -4789951.18545  23075585.115    23075591.784
       217.000         161.000
  23048058.224    -9735554.21149  -7570833.34446  23048058.051    23048065.471
       216.000         167.000
  23497266.111   -14494266.05949 -11000595.62045  23497266.291    23497274.476
       217.000         157.000
  23562145.182     1267183.92849   1016253.20645  23562145.126    23562152.746
       211.000         150.000
  20992972.424   -20962179.11649 -16312788.84347  20992971.878    20992978.505
       240.000         204.000
  24444219.087    -4851642.76149  -3762234.02345  24444219.289    24444228.845
       209.000         143.000
  21182261.961   -14834322.00549 -11538933.86147  21182261.346    21182267.786
       240.000         207.000
  20586285.135   -27287563.18149 -21239909.28547  20586284.672    20586290.968
       243.000         210.000
  20568680.705   -18080074.53649 -13686159.38148  20568680.619    20568685.308
       242.000         214.000
 03  3 25  0 11 30.0000000  0  9G14G 3G 6G26G17G16G23G15G18
  23055392.942    -6281525.53449  -4872637.08445  23055391.994    23055399.187
       223.000         160.000
  23034010.436    -9809375.36049  -7628356.26146  23034010.766    23034017.963
       219.000         165.000
  23517694.391   -14386915.32249 -10916945.79945  23517694.779    23517703.261
       214.000         156.000
  23581215.849     1367401.34449   1094344.66445  23581216.154    23581223.668
       210.000         150.000
  20996345.059   -20944455.63449 -16298978.34947  20996344.393    20996351.416
       240.000         204.000
  24454848.920    -4795782.62649  -3718706.73845  24454847.471    24454857.897
       204.000         141.000
  21189301.615   -14797327.80249 -11510107.21847  21189301.312    21189307.433
       240.000         206.000
  20580502.735   -27317949.81649 -21263587.17047  20580502.005    20580508.842
       243.000         210.000
  20571190.842   -18066883.69149 -13675880.79848  20571190.571    20571195.599
       242.000         214.000
 03  3 25  0 12  0.0000000  0  9G14G 3G 6G26G17G16G23G15G18
  23035236.481    -6387448.33549  -4955174.17345  23035236.078    23035243.427
       222.000         162.000
  23020035.743    -9882813.51049  -7685580.72946  23020035.641    23020043.645
       220.000         165.000
  23538149.412   -14279423.97549 -10833186.41945  23538149.978    23538158.188
       214.000         155.000
  23600344.878     1467925.14349   1172674.84645  23600345.281    23600353.638
       212.000         151.000
  20999769.278   -20926461.29249 -16284956.79247  20999768.922    20999775.158
       241.000         203.000
  24465518.464    -4739714.12049  -3675017.09445  24465519.154    24465527.858
       210.000         140.000
  21196374.063   -14760162.01249 -11481146.86147  21196373.716    21196379.935
       241.000         206.000
  20574764.505   -27348104.17549 -21287084.05547  20574763.857    20574770.216
       243.000         210.000
  20573754.599   -18053410.95449 -13665382.55848  20573754.396    20573759.332
       242.000         214.000
 03  3 25  0 12 30.0000000  0  9G14G 3G 6G26G17G16G23G15G18
  23015116.742    -6493177.88949  -5037560.69845  23015116.436    23015122.541
       222.000         162.000
  23006134.199    -9955866.67749  -7742505.24246  23006134.265    23006142.042
       219.000         166.000
  23558630.569   -14171794.88749 -10749319.69745  23558630.869    23558639.421
       213.000         154.000
  23619531.701     1568751.90549   1251241.10545  23619532.118    23619540.205
       213.000         153.000
  21003245.293   -20908195.26449 -16270723.51747  21003244.986    21003251.464
       241.000         203.000
  24476227.123    -4683440.58449  -3631167.67145  24476227.410    24476236.519
       209.000         141.000
  21203478.779   -14722826.52649 -11452054.27747  21203478.257    21203484.717
       240.000         206.000
  20569070.677   -27378025.16649 -21310399.10047  20569069.929    20569076.248
       242.000         210.000
  20576371.731   -18039658.08349 -13654666.03048  20576371.345    20576376.382
       242.000         214.000
 03  3 25  0 13  0.0000000  0  9G14G 3G 6G26G17G16G23G15G18
  22995034.399    -6598710.41849  -5119793.71445  22995034.449    22995039.899
       220.000         161.000
  22992306.575   -10028531.57449  -7799127.20946  22992306.727    22992313.561
       224.000         168.000
  23579137.655   -14064029.62949 -10665346.88345  23579138.682    23579148.040
       213.000         153.000
  23638775.836     1669879.66349   1330041.92545  23638776.276    23638784.057
       212.000         152.000
  21006773.340   -20889655.50849 -16256276.96547  21006772.794    21006779.524
       240.000         204.000
  24486974.332    -4626963.80949  -3587159.90245  24486975.090    24486983.850
       212.000         142.000
  21210615.656   -14685321.96949 -11422829.95447  21210615.207    21210621.455
       240.000         206.000
  20563421.710   -27407710.58649 -21333530.58347  20563421.270    20563427.636
       244.000         210.000
  20579042.048   -18025625.30249 -13643731.39648  20579041.596    20579046.812
       242.000         213.000
 03  3 25  0 13 30.0000000  0  9G14G 3G 6G26G17G16G23G15G18
  22974989.595    -6704045.16749  -5201872.60645  22974989.036    22974995.912
       219.000         159.000
  22978553.109   -10100807.58749  -7855446.15446  22978552.639    22978559.320
       225.000         170.000
  23599669.770   -13956132.42549 -10581271.25845  23599670.238    23599678.663
       211.000         151.000
  23658076.225     1771303.48549   1409073.44945  23658076.614    23658084.908
       211.000         152.000
  21010353.409   -20870842.33049 -16241617.35247  21010353.035    21010359.319
       240.000         204.000
  24497759.521    -4570288.64449  -3542997.51545  24497760.004    24497768.680
       209.000         142.000
  21217784.122   -14647651.48049 -11393476.32747  21217783.754    21217789.909
       241.000         206.000
  20557817.594   -27437160.76849 -21356478.76547  20557816.949    20557823.393
       244.000         210.000
  20581765.154   -18011315.66349 -13632581.02548  20581764.911    20581769.716
       242.000         213.000
 03  3 25  0 14  0.0000000  0  9G14G 3G 6G26G17G16G23G15G18
  22954983.271    -6809177.93349  -5283794.11045  22954983.136    22954989.570
       219.000         160.000
  22964874.106   -10172691.18449  -7911459.31646  22964874.668    22964881.176
       225.000         171.000
  23620226.902   -13848104.29749 -10497093.61445  23620228.206    23620236.635
       210.000         150.000
  23677432.379     1873021.87449   1488334.50145  23677432.475    23677441.552
       210.000         151.000
  21013985.824   -20851753.68849 -16226743.09547  21013985.171    21013991.818
       239.000         204.000
  24508582.100    -4513416.38749  -3498681.55345  24508581.792    24508591.777
       206.000         140.000
  21224984.134   -14609815.32849 -11363993.61447  21224983.899    21224989.609
       241.000         206.000
  20552258.681   -27466372.73749 -21379241.33147  20552258.048    20552264.322
       244.000         210.000
  20584540.911   -17996728.93349 -13621214.73248  20584540.389    20584545.612
       241.000         213.000
 03  3 25  0 14 30.0000000  0  9G14G 3G 6G26G17G16G23G15G18
  22935016.090    -6914105.31149  -5365555.56245  22935014.710    22935022.057
       220.000         161.000
  22951270.391   -10244179.18449  -7967164.21146  22951269.667    22951277.149
       226.000         173.000
  23640808.488   -13739947.18949 -10412815.47145  23640807.160    23640817.969
       211.000         148.000
  23696844.259     1975032.30249   1567823.10845  23696844.636    23696853.003
       214.000         151.000
  21017670.871   -20832388.19949 -16211653.11047  21017670.699    21017676.807
       240.000         203.000
  24519441.522    -4456349.18849  -3454213.70645  24519439.225    24519449.282
       206.000         136.000
  21232215.473   -14571814.39449 -11334382.49647  21232214.834    21232221.126
       240.000         206.000
  20546745.562   -27495344.57849 -21401816.78147  20546745.044    20546751.112
       243.000         210.000
  20587369.204   -17981865.88149 -13609633.12748  20587368.961    20587373.759
       242.000         213.000
 03  3 25  0 15  0.0000000  0  9G14G 3G 6G26G17G16G23G15G18
  22915088.394    -7018825.77249  -5447155.77146  22915087.745    22915095.262
       222.000         163.000
  22937742.149   -10315270.75149  -8022560.20346  22937742.311    22937748.789
       225.000         174.000
  23661413.953   -13631664.72149 -10328439.62645  23661413.994    23661424.767
       209.000         146.000
  23716311.220     2077330.74849   1647536.14045  23716311.989    23716319.072
       213.000         152.000
  21021408.758   -20812745.60149 -16196347.20047  21021408.242    21021415.224
       240.000         203.000
  24530337.197    -4399091.16449  -3409597.16245  24530337.761    24530345.451
       206.000         132.000
  21239477.645   -14533651.22349 -11304644.96147  21239477.276    21239483.555
       240.000         205.000
  20541278.079   -27524076.04949 -21424204.92747  20541277.460    20541283.560
       244.000         210.000
  20590249.711   -17966728.97649 -13597838.13748  20590249.427    20590254.248
       242.000         213.000
 03  3 25  0 15 30.0000000  0  9G14G 3G 6G26G17G16G23G15G18
  22895200.458    -7123336.85949  -5528592.84946  22895199.363    22895207.560
       224.000         164.000
  22924289.684   -10385963.73449  -8077645.59246  22924289.005    22924296.350
       224.000         174.000
  23682042.906   -13523259.55249 -10243968.19645  23682044.062    23682053.459
       209.000         145.000
  23735832.327     2179913.86649   1727470.97545  23735832.435    23735840.986
       212.000         151.000
  21025199.439   -20792825.41049 -16180824.97847  21025198.878    21025205.702
       240.000         203.000
  24541268.781    -4341645.51849  -3364834.40245  24541269.932    24541278.822
       208.000         134.000
  21246770.406   -14495327.48849 -11274782.31347  21246769.877    21246776.214
       240.000         205.000
  20535856.658   -27552565.98049 -21446404.85647  20535855.893    20535862.415
       244.000         211.000
  20593181.993   -17951319.56049 -13585830.79348  20593181.487    20593186.564
       241.000         213.000
 03  3 25  0 16  0.0000000  0  9G14G 3G 6G26G17G16G23G15G18
  22875352.882    -7227635.75549  -5609864.57546  22875352.293    22875358.019
       222.000         164.000
  22910913.440   -10456255.75749  -8132418.56046  22910913.255    22910920.017
       222.000         174.000
  23702694.647   -13414734.20449 -10159403.10245  23702695.176    23702704.417
       207.000         144.000
  23755406.987     2282778.60049   1807625.25845  23755407.594    23755415.375
       211.000         151.000
  21029043.205   -20772626.33349 -16165085.44947  21029042.787    21029049.238
       240.000         203.000
  24552235.891    -4284014.96049  -3319927.55245  24552236.520    24552245.930
       208.000         134.000
  21254093.380   -14456844.80149 -11244795.81247  21254092.998    21254099.229
       241.000         206.000
  20530481.351   -27580812.91549 -21468415.44747  20530480.584    20530487.742
       243.000         211.000
  20596165.834   -17935639.07649 -13573612.22848  20596165.471    20596170.145
       242.000         213.000
 03  3 25  0 16 30.0000000  0  9G14G 3G 6G26G17G16G23G15G18
  22855546.254    -7331719.31649  -5690968.50246  22855545.845    22855552.496
       223.000         166.000
  22897613.913   -10526144.07449  -8186876.95146  22897614.252    22897620.682
       223.000         174.000
  23723368.914   -13306090.72249 -10074745.95945  23723368.744    23723379.194
       205.000         143.000
  23775034.719     2385922.53749   1887997.13245  23775034.736    23775042.993
       212.000         152.000
  21032940.376   -20752146.65949 -16149127.27347  21032939.909    21032946.665
       240.000         203.000
  24563237.561    -4226201.91449  -3274878.50445  24563237.644    24563245.961
       208.000         134.000
  21261446.526   -14418204.09749 -11214686.17747  21261446.127    21261452.377
       241.000         206.000
  20525152.735   -27608814.78049 -21490235.07247  20525152.463    20525158.667
       244.000         211.000
  20599201.205   -17919688.32349 -13561183.06448  20599201.020    20599205.627
       242.000         213.000
 03  3 25  0 17  0.0000000  0  9G14G 3G 6G26G17G16G23G15G18
  22835780.982    -7435585.19549  -5771902.81646  22835779.988    22835787.541
       221.000         164.000
  22884391.743   -10595626.93849  -8241019.39546  22884391.875    22884398.388
       222.000         173.000
  23744065.160   -13197331.76049  -9989998.83545  23744065.126    23744074.814
       205.000         141.000
  23794714.926     2489342.32749   1968583.93745  23794715.601    23794723.279
       212.000         153.000
  21036891.022   -20731385.95149 -16132950.10647  21036890.334    21036897.343
       240.000         204.000
  24574273.239    -4168209.60549  -3229689.79545  24574271.986    24574282.577
       204.000         137.000
  21268829.380   -14379407.01649 -11184454.68847  21268829.026    21268835.138
       240.000         206.000
  20519871.102   -27636570.46149 -21511862.86247  20519870.509    20519877.156
       244.000         212.000
  20602287.743   -17903468.82049 -13548544.48948  20602287.203    20602292.039
       242.000         213.000
 03  3 25  0 17 30.0000000  0  9G14G 3G 6G26G17G16G23G15G18
  22816057.679    -7539230.58049  -5852665.33346  22816056.882    22816063.875
       219.000         164.000
  22871247.106   -10664702.37549  -8294844.35946  22871246.575    22871253.905
       222.000         173.000
  23764782.947   -13088460.08349  -9905163.86745  23764781.144    23764792.852
       206.000         139.000
  23814446.927     2593034.77049   2049383.19645  23814447.041    23814455.012
       211.000         152.000
  21040895.305   -20710343.25149 -16116553.20847  21040894.812    21040901.369
       240.000         203.000
  24585342.374    -4110040.82949  -3184363.60945  24585343.621    24585352.693
       212.000         141.000
  21276241.570   -14340455.27449 -11154102.68247  21276241.095    21276247.684
       240.000         205.000
  20514636.475   -27664078.68149 -21533297.82947  20514636.133    20514642.175
       244.000         211.000
  20605425.013   -17886981.82949 -13535697.47848  20605424.591    20605429.080
       241.000         213.000
 03  3 25  0 18  0.0000000  0  9G14G 3G 6G26G17G16G23G15G18
  22796377.024    -7642652.55149  -5933253.75646  22796376.497    22796382.759
       221.000         165.000
  22858180.504   -10733367.80049  -8348349.83946  22858179.761    22858186.908
       223.000         171.000
  23785521.557   -12979477.98249  -9820242.87045  23785521.566    23785532.680
       206.000         137.000
  23834230.175     2696997.17349   2130392.80445  23834230.076    23834237.770
       209.000         149.000
  21044953.550   -20689017.15749 -16099935.47947  21044953.132    21044959.736
       240.000         203.000
  24596444.840    -4051698.13649  -3138901.88545  24596444.756    24596454.724
       210.000         144.000
  21283683.006   -14301350.11149 -11123631.13747  21283682.573    21283688.943
       240.000         205.000
  20509449.268   -27691338.00649 -21554538.84947  20509448.674    20509454.802
       244.000         211.000
  20608613.052   -17870228.48949 -13522642.92848  20608612.734    20608617.349
       242.000         213.000
 03  3 25  0 18 30.0000000  0  9G14G 3G 6G26G17G16G23G15G18
  22776739.234    -7745848.93349  -6013666.40946  22776738.982    22776746.399
       223.000         166.000
  22845192.186   -10801621.07949  -8401534.17146  22845191.433    22845198.642
       221.000         170.000
  23806280.912   -12870388.09049  -9735237.86345  23806281.384    23806290.489
       202.000         134.000
  23854064.390     2801226.25649   2211610.23145  23854065.424    23854071.917
       209.000         148.000
  21049065.933   -20667406.52949 -16083096.04447  21049065.565    21049072.194
       239.000         203.000
  24607579.829    -3993184.79349  -3093307.19045  24607579.647    24607588.998
       211.000         146.000
  21291153.366   -14262093.24549 -11093041.37747  21291153.131    21291159.187
       240.000         205.000
  20504309.538   -27718347.23849 -21575584.99147  20504308.672    20504314.980
       244.000         211.000
  20611851.521   -17853210.29249 -13509381.99047  20611850.943    20611856.029
       242.000         212.000
 03  3 25  0 19  0.0000000  0  9G14G 3G 6G26G17G16G23G15G18
  22757144.992    -7848817.39949  -6093901.46646  22757144.607    22757151.271
       225.000         167.000
  22832282.683   -10869460.58749  -8454396.10046  22832282.250    22832289.385
       221.000         170.000
  23827060.187   -12761193.34849  -9650151.17945  23827062.188    23827067.445
       202.000         132.000
  23873948.847     2905718.33049   2293032.60145  23873949.459    23873957.213
       212.000         149.000
  21053232.476   -20645511.22049 -16066034.77447  21053231.931    21053238.703
       239.000         203.000
  24618746.395    -3934504.10649  -3047582.10545  24618745.657    24618756.230
       210.000         146.000
  21298652.239   -14222686.51049 -11062334.83747  21298651.870    21298658.018
       240.000         205.000
  20499217.632   -27745105.12249 -21596435.28347  20499216.967    20499223.239
       243.000         211.000
  20615139.963   -17835928.99649 -13495916.04347  20615139.366    20615144.667
       241.000         212.000
 03  3 25  0 19 30.0000000  0  9G14G 3G 6G26G17G16G23G15G18
  22737594.587    -7951555.86849  -6173957.29946  22737594.091    22737600.884
       227.000         170.000
  22819452.165   -10936884.76949  -8506934.39246  22819451.762    22819459.909
       223.000         171.000
  23847858.831   -12651896.94249  -9564985.26745  23847859.151    23847868.143
       197.000         132.000
  23893882.626     3010470.14549   2374657.34545  23893882.689    23893890.889
       211.000         149.000
  21057453.229   -20623330.91249 -16048751.43547  21057453.039    21057459.888
       240.000         203.000
  24629944.278    -3875659.54549  -3001729.31245  24629944.164    24629953.214
       210.000         146.000
  21306179.201   -14183132.04849 -11031513.18047  21306178.909    21306184.978
       240.000         205.000
  20494173.764   -27771610.75649 -21617089.01647  20494173.229    20494179.690
       244.000         211.000
  20618478.108   -17818386.63349 -13482246.67347  20618477.825    20618482.818
       242.000         212.000
 03  3 25  0 20  0.0000000  0  9G14G 3G 6G26G17G16G23G15G18
  22718088.693    -8054060.22249  -6253830.71246  22718088.664    22718094.534
       225.000         170.000
  22806701.512   -11003889.96849  -8559146.21646  22806701.739    22806708.324
       224.000         171.000
  23868676.524   -12542499.92849  -9479740.95244  23868677.758    23868686.735
       200.000         128.000
  23913865.206     3115479.96949   2456483.13045  23913864.966    23913873.395
       210.000         148.000
  21061728.740   -20600863.06549 -16031244.03647  21061728.349    21061734.810
       240.000         203.000
  24641173.058    -3816652.56049  -2955749.90145  24641172.861    24641182.339
       210.000         144.000
  21313734.308   -14143429.86549 -11000576.41547  21313733.859    21313739.926
       240.000         205.000
  20489178.405   -27797861.47449 -21637544.11147  20489178.057    20489184.094
       244.000         212.000
  20621866.079   -17800582.80749 -13468373.56047  20621865.929    20621870.686
       242.000         212.000
 03  3 25  0 20 30.0000000  0  9G14G 3G 6G26G17G16G23G15G18
  22698627.758    -8156328.02749  -6333519.80146  22698626.858    22698633.225
       226.000         171.000
  22794030.918   -11070474.48949  -8611030.21746  22794030.741    22794037.253
       226.000         172.000
  23889512.902   -12433005.04849  -9394420.37744  23889513.634    23889521.926
       198.000         126.000
  23933896.263     3220744.48449   2538507.40045  23933896.498    23933904.555
       209.000         146.000
  21066059.094   -20578107.05349 -16013512.07747  21066058.761    21066065.094
       240.000         202.000
  24652432.168    -3757486.37449  -2909646.50245  24652432.286    24652441.069
       206.000         143.000
  21321317.180   -14103581.76549 -10969525.94847  21321316.959    21321322.909
       241.000         205.000
  20484231.752   -27823856.24349 -21657799.75847  20484230.912    20484237.525
       243.000         211.000
  20625303.459   -17782519.19549 -13454298.01048  20625303.140    20625308.171
       242.000         213.000
 03  3 25  0 21  0.0000000  0  9G14G 3G 6G26G17G16G23G15G18
  22679212.223    -8258356.71249  -6413022.55946  22679212.118    22679218.759
       224.000         172.000
  22781440.724   -11136636.11949  -8662584.71446  22781440.987    22781448.041
       225.000         173.000
  23910367.435   -12323415.06549  -9309025.71644  23910368.846    23910374.965
       201.000         125.000
  23953975.247     3326260.50749   2620727.63145  23953975.218    23953983.150
       208.000         145.000
  21070444.457   -20555061.88149 -15995554.81047  21070444.065    21070450.500
       239.000         202.000
  24663720.655    -3698164.07449  -2863421.44145  24663719.892    24663730.065
       207.000         141.000
  21328927.478   -14063589.16849 -10938362.89447  21328927.161    21328933.382
       241.000         205.000
  20479334.057   -27849593.55749 -21677854.80047  20479333.383    20479339.698
       243.000         211.000
  20628790.028   -17764197.16349 -13440021.10048  20628789.516    20628794.994
       241.000         213.000
 03  3 25  0 21 30.0000000  0  9G14G 3G 6G26G17G16G23G15G18
  22659842.660    -8360143.79549  -6492337.05246  22659842.138    22659849.109
       224.000         172.000
  22768931.456   -11202372.87249  -8713808.13846  22768932.626    22768938.021
       226.000         174.000
  23931239.666   -12213732.46949  -9223558.87444  23931239.648    23931248.791
       196.000         123.000
  23974101.674     3432025.03949   2703141.50945  23974102.654    23974109.174
       209.000         145.000
  21074885.012   -20531726.38749 -15977371.30947  21074884.321    21074891.284
       239.000         201.000
  24675038.375    -3638688.32249  -2817076.84045  24675038.197    24675047.301
       200.000         138.000
  21336565.053   -14023453.52549 -10907088.36147  21336564.614    21336570.876
       241.000         205.000
  20474485.653   -27875072.07849 -21697708.18147  20474485.079    20474491.426
       243.000         211.000
  20632325.439   -17745618.06449 -13425543.87247  20632325.059    20632330.333
       242.000         212.000
 03  3 25  0 22  0.0000000  0  9G14G 3G 6G26G17G16G23G15G18
  22640519.590    -8461686.78649  -6571461.35146  22640519.554    22640525.114
       224.000         173.000
  22756503.540   -11267683.04749  -8764699.15546  22756503.890    22756510.094
       228.000         175.000
  23952128.847   -12103960.13249  -9138022.10544  23952129.156    23952138.390
       196.000         120.000
  23994274.772     3538034.62449   2785746.33745  23994275.539    23994283.168
       211.000         146.000
  21079380.865   -20508100.30049 -15958961.37847  21079380.369    21079387.238
       239.000         201.000
  24686384.412    -3579062.57149  -2770615.37745  24686383.992    24686394.294
       199.000         134.000
  21344229.517   -13983176.58449 -10875703.74647  21344229.168    21344235.375
       241.000         205.000
  20469686.648   -27900290.83149 -21717359.14947  20469686.241    20469692.408
       244.000         211.000
  20635909.523   -17726783.61749 -13410867.67447  20635909.437    20635914.232
       242.000         212.000
 03  3 25  0 22 30.0000000  0  8G14G 3G 6G26G17G23G15G18
  22621244.409    -8562978.71049  -6650390.02546  22621244.189    22621250.288
       223.000         173.000
  22744157.876   -11332560.26949  -8815252.81946  22744156.878    22744165.130
       224.000         176.000
  23973035.343   -11994096.17849  -9052413.96244  23973035.003    23973040.203
       195.000         119.000
  24014494.743     3644290.68249   2868543.21845  24014494.921    24014501.745
       206.000         145.000
  21083933.009   -20484178.53749 -15940321.06147  21083932.507    21083940.007
       239.000         202.000
  21351921.331   -13942755.80949 -10844207.04147  21351920.913    21351927.220
       241.000         205.000
  20464938.273   -27925244.00349 -21736803.16247  20464937.529    20464944.204
       243.000         212.000
  20639542.769   -17707690.90349 -13395990.22347  20639542.502    20639547.350
       241.000         212.000
 03  3 25  0 23  0.0000000  0  8G14G 3G 6G26G17G23G15G18
  22602016.713    -8664020.47749  -6729123.77246  22602015.650    22602023.230
       225.000         173.000
  22731894.127   -11397005.89649  -8865470.14246  22731893.897    22731901.015
       226.000         175.000
  23993957.985   -11884146.61849  -8966739.09844  23993954.491    23993969.075
       197.000         115.000
  24034760.092     3750786.62049   2951527.02245  24034759.752    24034767.671
       204.000         143.000
  21088541.087   -20459963.07049 -15921451.87947  21088540.797    21088547.576
       239.000         201.000
  21359639.624   -13902195.83749 -10812601.87147  21359639.249    21359645.440
       241.000         205.000
  20460239.919   -27949933.52549 -21756041.74147  20460239.331    20460245.558
       243.000         211.000
  20643224.318   -17688344.29849 -13380914.94147  20643224.163    20643228.989
       242.000         212.000
 03  3 25  0 23 30.0000000  0  8G14G 3G 6G26G17G23G15G18
  22582836.577    -8764811.96549  -6807662.50546  22582836.158    22582843.011
       223.000         173.000
  22719712.742   -11461020.24949  -8915351.43646  22719712.460    22719718.925
       227.000         175.000
  24014895.984   -11774116.56248  -8881001.50844  24014898.352    24014904.168
       189.000         114.000
  24055070.035     3857516.94249   3034693.47345  24055070.181    24055077.862
       208.000         142.000
  21093204.748   -20435455.56349 -15902355.12447  21093204.638    21093210.803
       239.000         201.000
  21367383.650   -13861500.62049 -10780891.31747  21367383.039    21367389.625
       241.000         205.000
  20455591.598   -27974360.33649 -21775075.60247  20455590.719    20455597.173
       242.000         211.000
  20646953.450   -17668747.71149 -13365644.86347  20646952.952    20646957.853
       242.000         212.000
 03  3 25  0 24  0.0000000  0  8G14G 3G 6G26G17G23G15G18
  22563704.709    -8865350.12949  -6886003.82046  22563704.153    22563711.146
       222.000         173.000
  22707613.703   -11524600.94549  -8964894.80146  22707613.107    22707620.594
       227.000         176.000
  24035849.008   -11664008.16549  -8795202.89944  24035847.819    24035855.541
       199.000         110.000
  24075424.307     3964478.88749   3118040.42245  24075424.231    24075431.652
       210.000         142.000
  21097924.144   -20410654.92849 -15883029.96447  21097923.342    21097930.485
       239.000         201.000
  21375153.180   -13820671.35749 -10749076.31147  21375152.700    21375159.270
       240.000         204.000
  20450993.525   -27998522.71149 -21793903.41047  20450993.102    20450999.697
       243.000         211.000
  20650729.907   -17648902.12949 -13350180.76447  20650729.557    20650734.544
       242.000         212.000
 03  3 25  0 24 30.0000000  0  8G14G 3G 6G26G17G23G15G18
  22544621.593    -8965632.10249  -6964145.51846  22544620.894    22544627.972
       222.000         173.000
  22695597.580   -11587745.55849  -9014098.37046  22695597.035    22695604.651
       226.000         176.000
  24056816.977   -11553823.50548  -8709344.85744                  24056815.423
       191.000         108.000
  24095822.188     4071670.10749   3201566.03845  24095821.870    24095829.169
       209.000         140.000
  21102699.589   -20385559.72349 -15863475.27547  21102699.155    21102705.541
       239.000         202.000
  21382948.084   -13779708.88249 -10717157.50947  21382948.053    21382954.184
       241.000         204.000
  20446446.252   -28022418.94749 -21812523.83947  20446446.000    20446452.163
       243.000         212.000
  20654553.566   -17628808.62449 -13334523.48048  20654553.350    20654558.325
       242.000         213.000
 03  3 25  0 25  0.0000000  0  8G14G 3G 6G26G17G23G15G18
  22525587.855    -9065654.88449  -7042085.23446  22525587.250    22525594.880
       222.000         174.000
  22683664.974   -11650451.56349  -9062960.14846  22683664.876    22683672.028
       226.000         177.000
  24077798.802   -11443564.31148  -8623428.74244                  24077803.174
       189.000         103.000
  24116263.324     4179087.94949   3285268.22845  24116264.507    24116270.606
       210.000         141.000
  21107531.371   -20360168.50749 -15843689.93147  21107530.940    21107537.732
       238.000         200.000
  21390768.161   -13738614.28149 -10685135.74747  21390767.720    21390774.104
       240.000         204.000
  20441950.067   -28046047.04249 -21830935.32947  20441949.473    20441956.026
       242.000         211.000
  20658424.327   -17608467.77849 -13318673.46247  20658424.031    20658429.061
       241.000         212.000
 03  3 25  0 25 30.0000000  0  8G14G 3G 6G26G17G23G15G18
  22506604.052    -9165415.07549  -7119820.36846  22506603.163    22506610.293
       225.000         176.000
  22671816.121   -11712716.62249  -9111478.35546  22671815.549    22671823.826
       225.000         177.000
                 -11333232.75948  -8537456.26244
       190.000         100.000
  24136747.205     4286729.90349   3369145.02445  24136748.007    24136754.127
       211.000         142.000
  21112419.617   -20334480.25349 -15823673.10847  21112419.116    21112426.016
       238.000         200.000
  21398613.161   -13697388.22449 -10653011.55047  21398612.899    21398619.056
       240.000         204.000
  20437505.102   -28069404.96449 -21849136.29647  20437504.390    20437511.006
       243.000         211.000
  20662341.964   -17587880.29649 -13302631.25747  20662341.539    20662346.607
       242.000         212.000
 03  3 25  0 26  0.0000000  0  8G14G 3G 6G26G17G23G15G18
  22487670.424    -9264911.51749  -7197349.97446  22487670.610    22487676.560
       226.000         176.000
  22660051.492   -11774539.84349  -9159652.25546  22660051.213    22660058.768
       227.000         178.000
                 -11222832.90448  -8451430.49544
       187.000         100.000
  24157272.657     4394591.73849   3453193.16145  24157272.218    24157279.091
       213.000         143.000
  21117364.531   -20308494.68049 -15803424.61547  21117364.253    21117371.297
       238.000         201.000
  21406482.757   -13656033.54449 -10620787.12747  21406482.600    21406488.661
       241.000         204.000
  20433111.588   -28092492.79549 -21867126.79847  20433111.142    20433117.333
       243.000         211.000
  20666305.969   -17567049.00149 -13286399.06947  20666305.514    20666310.423
       242.000         212.000
 03  3 25  0 26 30.0000000  0  8G14G 3G 6G26G17G23G15G18
  22468787.834    -9364139.70349  -7274670.56546  22468786.893    22468793.418
       227.000         176.000
  22648371.635   -11835917.63249  -9207479.06446  22648371.778    22648379.030
       228.000         179.000
                 -11112365.24148  28852190.27643
       181.000          74.000
  24177839.787     4502672.08149   3537411.57045  24177838.820    24177846.363
       211.000         143.000
  21122366.527   -20282209.29549 -15782942.51147  21122366.020    21122373.137
       237.000         201.000
  21414376.885   -13614549.87249 -10588462.19947  21414376.646    21414382.720
       241.000         203.000
  20428770.147   -28115307.16249 -21884904.22047  20428769.787    20428776.039
       243.000         211.000
  20670316.546   -17545973.40849 -13269976.52147  20670316.378    20670321.147
       243.000         212.000
 03  3 25  0 27  0.0000000  0  8G14G 3G 6G26G17G23G15G18
  22449956.680    -9463097.70849  -7351780.62946  22449956.119    22449962.955
       227.000         176.000
  22636776.951   -11896848.21649  -9254957.40346  22636777.005    22636783.703
       227.000         179.000
                 -11001832.80658  28938262.39543
       184.000          74.000
  24198447.796     4610967.58249   3621797.63745  24198448.233    24198454.150
       213.000         144.000
  21127425.567   -20255623.61749 -15762226.41747  21127425.018    21127432.063
       237.000         201.000
  21422295.162   -13572939.04249 -10556038.18247  21422294.764    21422300.886
       240.000         203.000
  20424480.981   -28137847.10349 -21902467.79847  20424480.566    20424486.998
       244.000         212.000
  20674373.324   -17524655.37549 -13253365.06148  20674373.199    20674377.875
       243.000         213.000
 03  3 25  0 27 30.0000000  0  8G14G 3G 6G26G17G23G15G18
  22431177.298    -9561783.26949  -7428678.37346  22431176.490    22431184.310
       225.000         176.000
  22625267.684   -11957330.39949  -9302086.34146  22625267.583    22625274.466
       228.000         179.000
                 -10891238.63248  29024332.62243
       183.000          74.000
  24219095.897     4719474.75049   3706348.67145  24219095.569    24219102.640
       212.000         143.000
  21132541.949   -20228737.35049 -15741276.08447  21132541.606    21132548.211
       238.000         201.000
  21430237.304   -13531202.71949 -10523516.38347  21430236.746    21430243.045
       240.000         203.000
  20420244.196   -28160111.83549 -21919816.92947  20420243.689    20420250.104
       244.000         212.000
  20678475.900   -17503096.46049 -13236565.90348  20678475.709    20678480.344
       243.000         213.000
 03  3 25  0 28  0.0000000  0  8G14G 3G 6G26G17G23G15G18
  22412450.425    -9660192.91249  -7505361.12546  22412450.044    22412456.271
       226.000         177.000
  22613844.188   -12017360.85149  -9348863.29346  22613843.932    22613851.315
       226.000         178.000
                 -10780584.12848  28962688.01543
       186.000          74.000
  24239783.782     4828191.58449   3791063.07045  24239784.396    24239790.958
       210.000         143.000
  21137715.978   -20201548.06349 -15720089.63347  21137715.544    21137722.063
       238.000         201.000
  21438203.277   -13489341.33049 -10490897.12547  21438202.861    21438209.192
       240.000         203.000
  20416060.253   -28182098.68249 -21936949.52747  20416059.576    20416066.261
       243.000         212.000
  20682624.217   -17481296.74149 -13219579.10648  20682623.907    20682628.895
       242.000         213.000
 03  3 25  0 28 30.0000000  0  8G14G 3G 6G26G17G23G15G18
  22393776.431    -9758325.05549  -7581827.64746  22393776.091    22393783.152
       226.000         178.000
  22602506.854   -12076939.29749  -9395288.02046  22602507.280    22602513.755
       228.000         180.000
                 -10669873.09448  29048916.13643
       179.000          74.000
  24260510.966     4937113.98049   3875937.64145  24260511.357    24260518.556
       211.000         143.000
  21142947.546   -20174056.47349 -15698667.62147  21142946.892    21142953.720
       238.000         201.000
  21446192.503   -13447357.52249 -10458182.47947  21446192.150    21446198.580
       240.000         203.000
  20411929.256   -28203807.39349 -21953865.39547  20411928.946    20411935.220
       244.000         212.000
  20686817.847   -17459258.98449 -13202406.82548  20686817.554    20686822.497
       242.000         213.000
 03  3 25  0 29  0.0000000  0  8G14G 3G 6G26G17G23G15G18
  22375155.749    -9856176.89349  -7658075.73946  22375155.622    22375162.024
       227.000         179.000
  22591255.990   -12136063.11249  -9441358.48146  22591255.529    22591262.831
       228.000         180.000
                 -10559107.40948  29135137.60043
       184.000          74.000
  24281276.797     5046239.29049   3960970.34245  24281277.082    24281284.875
       211.000         143.000
  21148236.769   -20146261.36949 -15677009.10147  21148236.041    21148242.984
       237.000         200.000
  21454204.866   -13405252.33549 -10425373.24647  21454204.823    21454210.798
       240.000         203.000
  20407851.510   -28225236.30349 -21970563.23647  20407850.929    20407857.357
       243.000         212.000
  20691056.669   -17436983.95349 -13185049.65348  20691056.410    20691061.107
       243.000         213.000
 03  3 25  0 29 30.0000000  0  8G14G 3G 6G26G17G23G15G18
  22356589.015    -9953746.10149  -7734103.60446  22356588.336    22356594.797
       228.000         179.000
  22580091.977   -12194730.35949  -9487073.19546  22580091.858    22580098.673
       228.000         180.000
                 -10448289.87748  29073260.08143
       171.000          74.000
  24302080.704     5155564.54549   4046158.82545  24302081.179    24302088.873
       212.000         143.000
  21153583.830   -20118162.03749 -15655113.52247  21153583.139    21153589.832
       237.000         200.000
  21462240.115   -13363026.98249 -10392470.38647  21462239.831    21462245.709
       240.000         203.000
  20403827.237   -28246383.89949 -21987041.87947  20403826.785    20403832.908
       244.000         212.000
  20695340.343   -17414473.10449 -13167508.72948  20695339.874    20695344.834
       242.000         213.000
 03  3 25  0 30  0.0000000  0  8G14G 3G 6G26G17G23G15G18
  22338076.483   -10051030.01349  -7809909.15246  22338076.272    22338082.461
       227.000         178.000
  22569015.109   -12252939.33849  -9532430.80046  22569014.556    22569022.306
       227.000         180.000
                 -10337422.96148  29159626.47843
       182.000          74.000
  24322922.142     5265086.41649   4131500.51545  24322922.451    24322930.578
       212.000         144.000
  21158988.893   -20089757.71649 -15632980.29947  21158988.157    21158995.379
       236.000         199.000
  21470297.963   -13320683.07049 -10359475.13847  21470297.802    21470303.749
       240.000         203.000
  20399856.779   -28267248.95649 -22003300.35147  20399856.093    20399862.658
       244.000         212.000
  20699668.535   -17391727.97649 -13149785.25448  20699668.038    20699673.466
       242.000         213.000
 03  3 25  0 30 30.0000000  0  8G14G 3G 6G26G17G23G15G18
  22319618.553   -10148026.54749  -7885490.77246  22319618.020    22319625.109
       228.000         178.000
  22558025.647   -12310688.76049  -9577430.33146  22558025.934    22558032.316
       227.000         180.000
                 -10226509.58757  29245988.81743
       161.000          74.000
  24343800.402     5374801.88149   4216993.03745  24343800.628    24343807.520
       210.000         143.000
  21164452.165   -20061047.62149 -15610608.81447  21164451.785    21164458.506
       237.000         199.000
  21478377.942   -13278222.25149 -10326388.79147  21478377.539    21478383.471
       240.000         203.000
  20395940.328   -28287830.07949 -22019337.58647  20395939.725    20395945.929
       244.000         212.000
  20704041.036   -17368749.80049 -13131880.18648  20704040.811    20704045.966
       242.000         213.000
 03  3 25  0 31  0.0000000  0  8G14G 3G 6G26G17G23G15G18
  22301216.087   -10244731.88249  -7960845.49246  22301215.710    22301222.087
       228.000         179.000
  22547124.395   -12367975.58849  -9622069.38146  22547124.221    22547131.402
       228.000         180.000
                 -10115550.64458  29184593.41143
       169.000          74.000
  24364714.992     5484709.16049   4302635.04145  24364715.169    24364722.854
       208.000         141.000
  21169974.175   -20032029.65649 -15587997.41447  21169973.572    21169980.087
       237.000         199.000
  21486480.184   -13235644.59249 -10293211.39747  21486479.730    21486485.898
       240.000         202.000
  20392078.393   -28308124.59449 -22035151.48447  20392077.948    20392084.042
       244.000         212.000
  20708457.971   -17345538.72449 -13113793.63748  20708457.803    20708462.345
       242.000         213.000
 03  3 25  0 31 30.0000000  0  7G14G 3G26G17G23G15G18
  22282869.741   -10341142.46549  -8035970.53246  22282869.131    22282874.802
       230.000         180.000
  22536311.609   -12424796.93249  -9666345.71446  22536311.096    22536317.896
       226.000         180.000
  24385665.719     5594806.02349   4388424.79745  24385665.685    24385672.016
       207.000         138.000
  21175555.063   -20002702.03149 -15565144.72747  21175554.778    21175561.451
       238.000         200.000
  21494604.595   -13192950.47949 -10259943.26547  21494604.255    21494610.193
       239.000         202.000
  20388271.448   -28328130.35249 -22050740.37847  20388270.674    20388276.989
       243.000         212.000
  20712919.179   -17322095.15349 -13095525.91747  20712918.955    20712923.644
       243.000         212.000
 03  3 25  0 32  0.0000000  0  7G14G 3G26G17G23G15G18
  22264580.551   -10437252.95749  -8110861.74346  22264580.172    22264586.304
       230.000         181.000
  22525588.195   -12481147.91649  -9710255.52846  22525587.940    22525595.432
       227.000         180.000
  24406652.635     5705092.71249   4474362.44845  24406653.825    24406659.822
       204.000         134.000
  21181195.694   -19973060.88549 -15542047.74447  21181195.314    21181202.287
       238.000         201.000
  21502751.442   -13150138.24849 -10226583.09447  21502750.965    21502757.594
       239.000         202.000
  20384520.159   -28347843.00849 -22066100.88747  20384519.521    20384526.113
       244.000         212.000
  20717424.858   -17298417.53949 -13077075.83247  20717424.296    20717429.338
       241.000         212.000
 03  3 25  0 32 30.0000000  0  6G14G 3G17G23G15G18
  22246347.650   -10533067.02049  -8185521.96346  22246347.424    22246353.139
       231.000         181.000
  22514953.702   -12537033.11449  -9753802.39146  22514953.882    22514960.236
       228.000         181.000
  21186894.858   -19943111.80949 -15518710.82047  21186894.608    21186901.067
       238.000         202.000
  21510919.369   -13107215.54349 -10193136.83047  21510919.410    21510925.197
       240.000         202.000
  20380823.848   -28367267.23349 -22081236.63847  20380823.200    20380829.603
       244.000         212.000
  20721973.688   -17274513.07349 -13058448.97447  20721973.616    20721978.406
       243.000         212.000
 03  3 25  0 33  0.0000000  0  6G14G 3G17G23G15G18
  22228171.728   -10628581.52849  -8259948.77046  22228170.558    22228177.867
       229.000         180.000
  22504408.284   -12592449.97849  -9796984.32146  22504407.783    22504415.177
       228.000         181.000
  21192652.766   -19912853.79649 -15495133.15947  21192652.272    21192659.620
       237.000         201.000
  21519108.187   -13064183.11149 -10159605.06147  21519107.762    21519114.065
       239.000         202.000
  20377182.787   -28386401.21649 -22096146.22947  20377182.460    20377188.259
       244.000         212.000
  20726565.571   -17250382.81849 -13039646.18047  20726565.387    20726570.460
       242.000         212.000
 03  3 25  0 33 30.0000000  0  6G14G 3G17G23G15G18
  22210053.429   -10723793.45249  -8334139.79546  22210052.660    22210058.914
       229.000         179.000
  22493952.232   -12647396.04449  -9839799.39946  22493951.172    22493959.189
       227.000         181.000
  21198469.804   -19882284.87949 -15471313.24047  21198468.995    21198476.482
       236.000         200.000
  21527317.797   -13021041.43049 -10125988.16747  21527317.428    21527323.985
       239.000         201.000
  20373597.381   -28405242.75049 -22110827.93547  20373596.762    20373603.006
       244.000         212.000
  20731200.347   -17226027.23749 -13020667.80747  20731200.059    20731205.071
       242.000         212.000
 03  3 25  0 34  0.0000000  0  6G14G 3G17G23G15G18
  22191993.128   -10818700.70949  -8408093.43046  22191993.013    22191998.682
       230.000         179.000
  22483586.106   -12701870.02849  -9882246.62646  22483586.027    22483592.728
       228.000         181.000
  21204346.059   -19851404.52949 -15447250.64047  21204345.497    21204352.805
       236.000         200.000
  21535547.864   -12977792.11649 -10092287.40547  21535547.361    21535553.825
       238.000         201.000
  20370067.740   -28423790.83249 -22125280.97647  20370067.156    20370073.628
       243.000         212.000
  20735877.579   -17201447.95449 -13001515.12147  20735877.061    20735882.138
       242.000         212.000
 03  3 25  0 34 30.0000000  0  6G14G 3G17G23G15G18
  22173991.285   -10913300.77049  -8481807.68746  22173990.506    22173996.233
       230.000         179.000
  22473310.251   -12755870.08149  -9924324.54746  22473310.551    22473316.619
       229.000         181.000
  21210281.788   -19820212.02849 -15422944.80647  21210281.628    21210288.361
       237.000         199.000
  21543798.089   -12934436.38449 -10058503.72047  21543797.439    21543803.689
       239.000         200.000
  20366594.291   -28442043.77749 -22139504.03447  20366593.641    20366599.952
       244.000         212.000
  20740597.101   -17176646.26449 -12982189.12847  20740596.904    20740601.829
       242.000         212.000
 03  3 25  0 35  0.0000000  0  6G14G 3G17G23G15G18
  22156048.229   -11007591.76249  -8555281.11746  22156048.047    22156053.085
       231.000         180.000
  22463124.879   -12809395.23049  -9966032.42046  22463124.802    22463131.160
       227.000         181.000
  21216277.006   -19788707.12749 -15398395.54247  21216276.667    21216282.957
       236.000         199.000
  21552068.288   -12890976.27149 -10024638.69147  21552068.144    21552074.351
       240.000         201.000
  20363177.177   -28460000.94949 -22153496.62847  20363176.636    20363183.132
       244.000         212.000
  20745358.704   -17151623.97549 -12962691.24047  20745358.537    20745363.215
       242.000         212.000
 03  3 25  0 35 30.0000000  0  6G14G 3G17G23G15G18
  22138164.731   -11101570.24749  -8628511.03146  22138164.498    22138169.839
       229.000         180.000
  22453030.039   -12862442.74649 -10007368.11746  22453028.961    22453036.680
       226.000         180.000
  21222331.912   -19756888.39749 -15373601.73547  21222331.785    21222338.116
       236.000         198.000
  21560358.313   -12847412.18649  -9990692.65847  21560358.035    21560364.513
       239.000         201.000
  20359816.686   -28477660.15849 -22167257.05248  20359816.262    20359822.856
       244.000         213.000
  20750162.241   -17126381.50949 -12943021.78647  20750161.992    20750166.842
       242.000         212.000
 03  3 25  0 36  0.0000000  0  6G14G 3G17G23G15G18
  22120341.434   -11195232.10049  -8701494.21346  22120340.277    22120347.231
       229.000         180.000
  22443026.737   -12915009.15149 -10048328.92046  22443027.166    22443033.413
       228.000         180.000
  21228447.183   -19724752.59649 -15348560.85847  21228446.592    21228453.452
       236.000         198.000
  21568668.225   -12803743.46049  -9956665.07647  21568668.072    21568674.186
       239.000         201.000
  20356513.723   -28495017.74749 -22180782.43148  20356513.119    20356519.449
       244.000         213.000
  20755007.786   -17100918.10449 -12923180.16947  20755007.657    20755012.329
       242.000         212.000
 03  3 25  0 36 30.0000000  0  6G14G 3G17G23G15G18
  22102578.520   -11288576.28949  -8774229.87146  22102577.844    22102584.353
       230.000         181.000
  22433115.299   -12967094.49849 -10088914.86346  22433115.457    22433122.146
       228.000         181.000
  21234622.397   -19692301.23449 -15323274.09947  21234621.987    21234628.604
       236.000         198.000
  21576997.520   -12759973.13049  -9922558.32947  21576997.116    21577003.544
       239.000         201.000
  20353267.983   -28512074.18049 -22194073.14948  20353267.476    20353273.700
       244.000         213.000
  20759894.770   -17075236.76649 -12903168.73047  20759894.244    20759899.559
       242.000         212.000
 03  3 25  0 37  0.0000000  0  7G14G 3G17G31G23G15G18
  22084875.425   -11381606.41649  -8846720.80946  22084875.129    22084881.124
       230.000         182.000
  22423294.542   -13018702.96749 -10129129.22246  22423293.957    22423301.100
       227.000         181.000
  21240856.847   -19659539.16249 -15297745.22647  21240856.741    21240863.195
       237.000         198.000
  24433114.518    -3156268.51549  -2087897.50345  24433114.317    24433122.833
       211.000         144.000
  21585344.620   -12716108.44249  -9888378.05647  21585344.117    21585350.551
       238.000         201.000
  20350078.781   -28528833.76849 -22207132.55248  20350078.314    20350084.358
       244.000         213.000
  20764821.820   -17049344.74449 -12882993.12147  20764821.633    20764826.605
       242.000         212.000
 03  3 25  0 37 30.0000000  0  7G14G 3G17G31G23G15G18
  22067232.665   -11474318.84449  -8918964.18746  22067231.863    22067238.244
       229.000         182.000
  22413565.026   -13069831.74049 -10168969.78946  22413565.152    22413572.230
       228.000         181.000
  21247150.765   -19626464.33849 -15271972.65247  21247150.104    21247157.244
       235.000         198.000
  24416418.737    -3244005.26049  -2156263.73145  24416417.736    24416427.087
       210.000         145.000
  21593709.748   -12672149.22949  -9854124.13547  21593709.256    21593715.882
       239.000         201.000
  20346946.505   -28545293.96449 -22219958.66748  20346946.112    20346952.242
       244.000         213.000
  20769789.066   -17023241.86849 -12862653.21347  20769788.984    20769793.797
       242.000         212.000
 03  3 25  0 38  0.0000000  0  7G14G 3G17G31G23G15G18
  22049652.861   -11566700.69949  -8990949.98046  22049652.423    22049658.341
       230.000         183.000
  22403929.151   -13120468.60249 -10208427.05846  22403928.203    22403936.553
       228.000         181.000
  21253506.230   -19593065.83149 -15245947.86447  21253505.944    21253513.180
       235.000         198.000
  24399783.685    -3331422.14749  -2224380.72245  24399783.571    24399791.243
       213.000         146.000
  21602094.652   -12628086.22149  -9819789.33047  21602094.241    21602100.591
       239.000         201.000
  20343873.430   -28561442.90749 -22232542.24648  20343872.670    20343879.137
       244.000         213.000
  20774798.141   -16996918.99449 -12842141.87747  20774797.887    20774802.935
       242.000         212.000
 03  3 25  0 38 30.0000000  0  7G14G 3G17G31G23G15G18
  22032135.905   -11658752.71849  -9062678.75446  22032136.180    22032141.801
       232.000         184.000
  22394386.578   -13170615.00249 -10247502.15346  22394386.679    22394394.359
       230.000         183.000
  21259922.945   -19559345.57149 -15219672.35647  21259922.672    21259929.894
       235.000         198.000
  24383209.561    -3418519.91349  -2292249.02145  24383208.946    24383216.753
       214.000         146.000
  21610498.561   -12583923.74149  -9785377.01247  21610498.173    21610504.532
       239.000         201.000
  20340859.260   -28577282.32649 -22244884.63747  20340858.467    20340864.960
       244.000         212.000
  20779848.243   -16970380.54049 -12821462.55247  20779847.891    20779852.880
       242.000         211.000
 03  3 25  0 39  0.0000000  0  7G14G 3G17G31G23G15G18
  22014681.876   -11750473.85149  -9134149.71046  22014681.213    22014687.538
       232.000         185.000
  22384937.400   -13220271.05549 -10286195.15646  22384937.101    22384944.732
       229.000         183.000
  21266400.784   -19525304.39149 -15193146.77447  21266400.617    21266407.354
       235.000         197.000
  24366696.321    -3505297.45249  -2359867.80545  24366695.448    24366703.477
       212.000         147.000
  21618920.905   -12539664.52949  -9750889.31647  21618920.663    21618926.558
       239.000         201.000
  20337904.003   -28592812.13349 -22256985.77448  20337903.442    20337909.595
       244.000         213.000
  20784938.817   -16943629.13949 -12800617.29247  20784938.247    20784943.584
       242.000         211.000
 03  3 25  0 39 30.0000000  0  7G14G 3G17G31G23G15G18
  21997291.120   -11841862.59649  -9205361.67646  21997290.553    21997296.919
       232.000         186.000
  22375581.528   -13269435.70049 -10324505.24246  22375580.428    22375588.269
       228.000         183.000
  21272939.784   -19490942.24749 -15166371.08847  21272939.331    21272946.032
       235.000         195.000
  24350244.344    -3591753.08149  -2427235.74545  24350244.427    24350251.518
       211.000         148.000
  21627361.174   -12495310.53249  -9716327.76147  21627360.330    21627367.095
       239.000         200.000
  20335007.785   -28608031.84849 -22268845.28048  20335007.267    20335013.534
       244.000         213.000
  20790069.505   -16916666.90449 -12779607.75247  20790069.344    20790073.899
       242.000         211.000
 03  3 25  0 40  0.0000000  0  7G14G 3G17G31G23G15G18
  21979964.243   -11932915.85249  -9276312.20646  21979963.868    21979969.931
       231.000         186.000
  22366319.601   -13318106.81249 -10362430.75946  22366318.730    22366326.973
       228.000         183.000
  21279539.828   -19456258.72949 -15139344.97447  21279539.082    21279545.767
       235.000         195.000
  24333854.160    -3677883.56649  -2494350.32045  24333854.053    24333861.829
       212.000         150.000
  21635819.373   -12450862.20449  -9681692.70747  21635819.154    21635825.235
       239.000         200.000
  20332170.976   -28622939.27749 -22280461.45048  20332170.451    20332176.468
       244.000         213.000
  20795240.356   -16889494.31749 -12758434.30247  20795240.225    20795244.850
       243.000         211.000
 03  3 25  0 40 30.0000000  0  7G14G 3G17G31G23G15G18
  21962701.451   -12023631.57749  -9346999.72946  21962701.038    21962707.898
       230.000         186.000
  22357151.959   -13366283.12149 -10399970.71846  22357151.766    22357159.861
       228.000         184.000
  21286201.364   -19421252.13449 -15112067.12147  21286201.190    21286207.677
       235.000         195.000
  24317526.509    -3763686.49749  -2561209.65345  24317526.127    24317534.063
       213.000         151.000
  21644295.250   -12406321.06249  -9646985.32247  21644294.557    21644300.992
       239.000         199.000
  20329393.852   -28637533.10449 -22291833.25648  20329393.024    20329399.654
       243.000         213.000
  20800450.900   -16862112.90049 -12737098.12747  20800450.768    20800455.473
       243.000         212.000
 03  3 25  0 41  0.0000000  0  7G14G 3G17G31G23G15G18
  21945503.078   -12114008.91949  -9417423.59046  21945502.874    21945509.203
       231.000         186.000
  22348078.532   -13413964.75849 -10437125.21446  22348078.038    22348085.915
       230.000         184.000
  21292924.219   -19385923.51349 -15084538.33247  21292924.005    21292930.556
       235.000         196.000
  24301261.370    -3849161.20949  -2627813.21345  24301260.617    24301268.438
       213.000         151.000
  21652788.255   -12361690.00849  -9612207.88447  21652787.677    21652794.243
       239.000         199.000
  20326676.223   -28651813.80849 -22302961.06248  20326675.465    20326682.076
       244.000         213.000
  20805700.603   -16834525.58049 -12715601.50347  20805700.253    20805705.209
       242.000         212.000
 03  3 25  0 41 30.0000000  0  7G14G 3G17G31G23G15G18
  21928369.861   -12204044.43149  -9487581.09446  21928368.956    21928375.810
       231.000         186.000
  22339099.742   -13461149.18849 -10473892.28146  22339099.463    22339106.262
       230.000         185.000
  21299708.599   -19350271.47349 -15056757.53247  21299708.039    21299714.924
       235.000         196.000
  24285058.967    -3934304.16149  -2694158.27445  24285057.974    24285065.326
       212.000         149.000
  21661298.375   -12316969.01349  -9577360.36347  21661298.065    21661304.036
       239.000         199.000
  20324018.832   -28665778.65249 -22313842.74848  20324018.405    20324024.762
       244.000         213.000
  20810989.432   -16806732.26349 -12693944.36847  20810988.832    20810993.847
       242.000         211.000
 03  3 25  0 42  0.0000000  0  7G14G 3G17G31G23G15G18
  21911302.233   -12293735.21749  -9557469.97746  21911302.161    21911308.441
       232.000         187.000
  22330215.905   -13507833.97449 -10510270.01046  22330215.563    22330221.970
       230.000         184.000
  21306554.786   -19314294.54149 -15028723.55847  21306554.159    21306561.259
       235.000         195.000
  24268920.294    -4019111.88949  -2760242.12745  24268919.367    24268926.649
       207.000         147.000
  21669825.593   -12272158.48549  -9542443.07247  21669825.542    21669831.464
       239.000         200.000
  20321421.902   -28679425.69649 -22324476.79948  20321421.333    20321427.555
       244.000         213.000
  20816317.359   -16778733.59749 -12672127.21747  20816317.253    20816321.975
       243.000         211.000
 03  3 25  0 42 30.0000000  0  7G14G 3G17G31G23G15G18
  21894300.535   -12383079.70049  -9627089.01247  21894300.391    21894306.454
       233.000         188.000
  22321427.311   -13554018.57449 -10546257.98946  22321427.417    22321434.474
       231.000         184.000
  21313462.769   -19277992.97149 -15000436.63147  21313462.187    21313468.932
       234.000         195.000
  24252846.095    -4103582.99249  -2826063.68645  24252845.754    24252852.683
       212.000         147.000
  21678369.444   -12227260.49949  -9507457.63147  21678368.907    21678375.279
       239.000         200.000
  20318885.582   -28692754.29349 -22334862.71448  20318885.149    20318891.087
       244.000         213.000
  20821684.096   -16750531.50949 -12650151.56047  20821683.778    20821688.472
       242.000         211.000
 03  3 25  0 43  0.0000000  0  7G14G 3G17G31G23G15G18
  21877365.107   -12472075.97349  -9696436.69947  21877364.815    21877370.461
       233.000         189.000
  22312734.092   -13599702.07749 -10581855.50646  22312733.826    22312740.171
       230.000         185.000
  21320432.574   -19241366.49049 -14971896.51447  21320432.122    21320439.171
       234.000         194.000
  24236836.552    -4187715.32449  -2891621.24245  24236837.137    24236843.356
       210.000         147.000
  21686929.559   -12182276.66249  -9472405.29047  21686928.882    21686935.266
       238.000         199.000
  20316410.046   -28705763.48149 -22344999.73348  20316409.552    20316415.418
       244.000         213.000
  20827089.124   -16722127.79149 -12628018.79047  20827088.946    20827093.407
       243.000         210.000
 03  3 25  0 43 30.0000000  0  7G14G 3G17G31G23G15G18
  21860496.402   -12560721.90149  -9765511.40547  21860496.243    21860501.714
       234.000         189.000
  22304136.343   -13644883.01549 -10617061.41646  22304135.928    22304143.455
       231.000         185.000
  21327464.431   -19204414.07849 -14943102.43447  21327464.264    21327470.841
       235.000         195.000
  24220891.731    -4271506.54949  -2956913.02345  24220890.786    24220897.240
       211.000         147.000
  21695505.730   -12137208.30149  -9437287.08847  21695505.134    21695511.636
       239.000         199.000
  20313995.473   -28718452.17949 -22354887.02048  20313994.784    20314001.000
       244.000         213.000
  20832532.300   -16693523.76449 -12605729.93347  20832531.978    20832536.375
       243.000         210.000
 03  3 25  0 44  0.0000000  0  7G14G 3G17G31G23G15G18
  21843694.931   -12649014.35349  -9834310.66247  21843695.005    21843700.240
       233.000         189.000
  22295634.612   -13689559.47749 -10651874.21946  22295634.713    22295641.743
       230.000         185.000
  21334558.504   -19167134.73749 -14914053.59947  21334558.313    21334564.812
       236.000         196.000
  24205012.097    -4354953.37949  -3021936.44445  24205011.259    24205018.886
       209.000         147.000
  21704097.904   -12092055.60049  -9402103.16147  21704097.486    21704103.566
       237.000         198.000
  20311642.313   -28730818.04149 -22364522.74448  20311641.593    20311647.798
       243.000         213.000
  20838013.529   -16664719.68349 -12583285.18747  20838013.144    20838017.764
       242.000         210.000
 03  3 25  0 44 30.0000000  0  7G14G 3G17G31G23G15G18
  21826961.128   -12736950.91549  -9902832.59947  21826960.799    21826966.421
       234.000         189.000
  22287229.285   -13733729.92649 -10686292.73046  22287228.743    22287236.114
       229.000         184.000
  21341715.005   -19129527.43949 -14884749.21947  21341714.389    21341721.346
       234.000         195.000
  24189198.378    -4438053.32849  -3086689.58145  24189197.117    24189205.880
       209.000         146.000
  21712705.914   -12046819.87849  -9366854.55647  21712705.547    21712711.887
       238.000         198.000
  20309350.825   -28742859.57449 -22373905.74048  20309350.219    20309356.666
       243.000         213.000
  20843532.571   -16635716.77449 -12560685.51647  20843532.083    20843537.000
       243.000         210.000
 03  3 25  0 45  0.0000000  0  7G14G 3G17G31G23G15G18
  21810295.430   -12824529.61349  -9971075.68347  21810295.247    21810301.186
       234.000         190.000
  22278920.477   -13777392.83949 -10720315.75446  22278920.564    22278926.926
       231.000         184.000
  21348933.784   -19091592.05749 -14855189.19247  21348933.121    21348940.063
       234.000         195.000
  24173451.274    -4520803.98149  -3151170.55645  24173452.167    24173458.721
       209.000         144.000
  21721329.700   -12001501.98549  -9331541.93047  21721329.437    21721335.833
       237.000         198.000
  20307121.341   -28754575.26049 -22383034.83848  20307120.873    20307127.202
       244.000         213.000
  20849089.219   -16606516.24749 -12537931.86047  20849089.126    20849093.907
       242.000         210.000
 03  3 25  0 45 30.0000000  0  7G14G 3G17G31G23G15G18
  21793698.333   -12911747.91349 -10039037.95247  21793698.167    21793703.693
       235.000         190.000
  22270708.497   -13820547.04049 -10753942.37746  22270708.409    22270715.094
       230.000         185.000
  21356215.194   -19053327.83249 -14825372.90647  21356214.900    21356221.850
       234.000         196.000
  24157771.186    -4603203.00449  -3215377.50445  24157769.784    24157777.431
       205.000         141.000
  21729968.880   -11956103.21949  -9296166.26547  21729968.676    21729974.930
       236.000         197.000
  20304954.170   -28765963.97249 -22391909.14847  20304953.613    20304959.927
       243.000         212.000
  20854683.267   -16577119.55749 -12515025.34547  20854682.893    20854688.067
       242.000         210.000
 03  3 25  0 46  0.0000000  0  7G14G 3G17G31G23G15G18
  21777170.173   -12998603.94449 -10106717.89847  21777169.919    21777175.655
       238.000         191.000
  22262593.579   -13863191.45549 -10787171.78646  22262593.567    22262600.092
       230.000         186.000
  21363559.367   -19014734.26349 -14795300.01147  21363559.216    21363565.874
       234.000         196.000
  24142158.460    -4685248.13149  -3279308.74645  24142158.332    24142164.784
       205.000         140.000
  21738623.136   -11910624.92949  -9260728.64647  21738622.545    21738629.197
       237.000         196.000
  20302849.409   -28777024.41849 -22400527.66647  20302848.830    20302854.960
       243.000         211.000
  20860314.368   -16547528.06849 -12491967.05547  20860314.195    20860318.791
       243.000         210.000
 03  3 25  0 46 30.0000000  0  7G14G 3G17G31G23G15G18
  21760711.355   -13085095.63949 -10174113.96147  21760711.103    21760716.946
       236.000         191.000
  22254575.838   -13905324.94649 -10820003.06446  22254575.828    22254582.215
       231.000         186.000
  21370966.238   -18975811.12449 -14764970.31547  21370965.708    21370972.873
       235.000         197.000
  24126613.363    -4766937.20649  -3342962.51245  24126612.534    24126620.512
       205.000         138.000
  21747292.153   -11865068.34549  -9225230.01747  21747291.463    21747298.207
       237.000         197.000
  20300807.296   -28787755.42049 -22408889.47947  20300806.914    20300813.138
       245.000         212.000
  20865982.248   -16517743.03649 -12468757.94147  20865981.951    20865986.680
       243.000         210.000
 03  3 25  0 47  0.0000000  0  7G14G 3G17G31G23G15G18
  21744322.266   -13171220.30149 -10241224.02247  21744321.929    21744327.331
       235.000         191.000
  22246655.736   -13946945.75149 -10852434.83646  22246655.671    22246662.356
       231.000         186.000
  21378436.045   -18936557.30049 -14734382.93747  21378435.577    21378442.664
       235.000         197.000
  24111136.706    -4848267.16749  -3406336.46045  24111136.977    24111142.719
       207.000         139.000
  21755976.014   -11819434.02249  -9189670.80547  21755975.701    21755982.162
       237.000         197.000
  20298828.333   -28798155.11549 -22416993.12948  20298827.834    20298833.957
       245.000         213.000
  20871686.877   -16487765.06749 -12445398.48547  20871686.762    20871691.289
       243.000         210.000
 03  3 25  0 47 30.0000000  0  7G14G 3G17G31G23G15G18
  21728003.474   -13256975.91049 -10308046.50847  21728003.086    21728008.615
       235.000         190.000
  22238833.253   -13988052.69149 -10884466.19746  22238833.336    22238839.632
       232.000         187.000
  21385968.820   -18896972.09149 -14703537.33547  21385968.492    21385975.220
       234.000         196.000
  24095728.990    -4929235.82649  -3469428.86045  24095729.264    24095735.119
       205.000         140.000
  21764674.522   -11773723.30049  -9154052.05947  21764674.389    21764680.783
       238.000         197.000
  20296912.609   -28808222.29849 -22424837.67348  20296912.010    20296918.291
       245.000         213.000
  20877428.017   -16457595.50149 -12421889.73247  20877427.668    20877432.430
       243.000         210.000
 03  3 25  0 48  0.0000000  0  7G14G 3G17G31G23G15G18
  21711755.541   -13342359.36949 -10374578.99847  21711755.115    21711760.900
       234.000         190.000
  22231109.018   -14028643.78049 -10916095.61046  22231108.584    22231114.956
       231.000         187.000
  21393564.921   -18857054.29149 -14672432.56847  21393564.723    21393571.335
       235.000         195.000
  24080390.616    -5009839.97049  -3532237.21345  24080390.563    24080397.283
       206.000         139.000
  21773387.610   -11727936.38449  -9118373.94547  21773387.707    21773393.688
       239.000         198.000
  20295060.581   -28817954.84049 -22432421.46348  20295060.192    20295066.319
       246.000         213.000
  20883205.488   -16427234.74849 -12398232.00847  20883205.178    20883210.090
       242.000         210.000
 03  3 25  0 48 30.0000000  0  7G14G 3G17G31G23G15G18
  21695578.510   -13427369.90849 -10440820.91147  21695578.284    21695583.201
       235.000         190.000
  22223482.868   -14068718.75449 -10947322.83446  22223482.673    22223489.320
       232.000         187.000
  21401224.232   -18816804.42449 -14641069.04847  21401223.641    21401230.411
       234.000         194.000
  24065121.623    -5090078.40049  -3594760.59545  24065120.364    24065128.566
       202.000         138.000
  21782114.692   -11682075.49949  -9082638.19447  21782114.036    21782120.522
       237.000         197.000
  20293272.287   -28827352.48849 -22439744.29548  20293271.600    20293277.840
       246.000         213.000
  20889018.817   -16396685.21349 -12374427.17447  20889018.393    20889023.547
       242.000         210.000
 03  3 25  0 49  0.0000000  0  7G14G 3G17G31G23G15G18
  21679473.004   -13512004.52549 -10506769.89947  21679472.593    21679478.002
       235.000         190.000
  22215955.348   -14108275.83649 -10978146.52846  22215956.114    22215961.754
       232.000         187.000
  21408946.826   -18776221.54649 -14609446.04647  21408946.115    21408953.365
       235.000         194.000
  24049922.733    -5169948.18949  -3656996.71845  24049922.895    24049930.811
       207.000         138.000
  21790855.673   -11636141.25949  -9046845.28647  21790855.445    21790861.355
       238.000         197.000
  20291548.011   -28836413.43949 -22446804.76948  20291547.314    20291553.740
       246.000         213.000
  20894867.980   -16365947.60249 -12350475.79147  20894867.734    20894872.511
       242.000         210.000
 03  3 25  0 49 30.0000000  0  7G14G 3G17G31G23G15G18
  21663439.290   -13596261.65949 -10572424.73947  21663438.554    21663444.599
       236.000         191.000
  22208526.645   -14147314.53949 -11008566.27447  22208527.047    22208532.661
       234.000         188.000
  21416732.840   -18735305.64749 -14577563.54047  21416731.875    21416739.272
       233.000         194.000
  24034794.704    -5249447.55649  -3718944.23445  24034795.247    24034801.210
       208.000         139.000
  21799610.380   -11590135.29849  -9010996.48347  21799609.954    21799616.333
       238.000         197.000
  20289887.978   -28845137.09349 -22453602.41648  20289887.363    20289893.894
       246.000         214.000
  20900752.645   -16335023.44949 -12326379.05047  20900752.480    20900757.132
       243.000         210.000
 03  3 25  0 50  0.0000000  0  8G14G 3G17G 9G31G23G15G18
  21647477.968   -13680138.99649 -10637783.64247  21647477.423    21647483.039
       236.000         192.000
  22201196.846   -14185833.55849 -11038581.08347  22201196.551    22201203.341
       233.000         188.000
  21424582.307   -18694056.06649 -14545421.04647  21424582.240    21424589.026
       234.000         195.000
                    -92231.32219   1682423.866 1
       206.000
  24019737.503    -5328573.98649  -3780601.14445  24019736.732    24019744.674
       210.000         139.000
  21808378.427   -11544058.39249  -8975092.40047  21808377.804    21808384.082
       237.000         196.000
  20288292.382   -28853521.85749 -22460135.99748  20288291.988    20288298.246
       246.000         214.000
  20906672.620   -16303913.85249 -12302137.80447  20906672.422    20906676.966
       242.000         210.000
 03  3 25  0 50 30.0000000  0  8G14G 3G17G 9G31G23G15G18
  21631589.265   -13763634.45349 -10702844.97147  21631588.663    21631594.705
       236.000         192.000
  22193966.037   -14223831.65649 -11068189.98647  22193965.737    22193972.260
       231.000         188.000
  21432495.567   -18652472.01649 -14513017.91347  21432495.532    21432502.208
       234.000         195.000
                   -127880.34649    -69320.61543
       207.000          74.000
  24004751.695    -5407324.89449  -3841965.44945  24004749.837    24004757.913
       208.000         140.000
  21817159.818   -11497911.66749  -8939133.91747  21817159.655    21817165.594
       237.000         196.000
  20286761.606   -28861566.16849 -22466404.29148  20286761.277    20286767.423
       246.000         214.000
  20912627.667   -16272619.92249 -12277752.92147  20912627.379    20912632.197
       243.000         210.000
 03  3 25  0 51  0.0000000  0  8G14G 3G17G 9G31G23G15G18
  21615773.626   -13846745.69949 -10767606.91347  21615773.082    21615778.831
       235.000         192.000
  22186834.492   -14261307.71449 -11097392.09247  22186834.424    22186840.686
       233.000         189.000
  21440472.594   -18610553.23549 -14480353.94647  21440472.380    21440478.854
       234.000         194.000
                   -163078.30749    -96747.17643
       208.000          74.000
  23989837.658    -5485698.01149  -3903035.36645  23989837.171    23989844.093
       208.000         141.000
  21825954.399   -11451695.98349  -8903121.69347  21825954.366    21825960.383
       237.000         196.000
  20285295.946   -28869268.51449 -22472406.11448  20285295.412    20285301.516
       246.000         214.000
  20918617.541   -16241142.77049 -12253225.25947  20918617.143    20918621.858
       242.000         210.000
 03  3 25  0 51 30.0000000  0  8G14G 3G17G 9G31G23G15G18
  21600031.424   -13929470.83749 -10832068.00447  21600030.830    21600036.559
       236.000         192.000
  22179802.619   -14298260.80349 -11126186.69147  22179802.972    22179809.176
       233.000         189.000
  21448513.305   -18568298.92749 -14447428.52347  21448513.113    21448519.858
       233.000         193.000
                   -197822.41649   -123820.54744                  23513696.283
       210.000         111.000
  23974995.815    -5563691.03149  -3963809.09745  23974995.226    23975003.547
       207.000         142.000
  21834761.985   -11405412.41149  -8867056.57547  21834761.909    21834767.806
       238.000         197.000
  20283895.494   -28876627.81149 -22478140.62448  20283894.992    20283901.238
       246.000         213.000
  20924642.130   -16209483.34249 -12228555.57247  20924641.682    20924646.933
       242.000         210.000
 03  3 25  0 52  0.0000000  0  8G14G 3G17G 9G31G23G15G18
  21584363.380   -14011806.61649 -10896225.69547  21584363.046    21584368.557
       235.000         192.000
  22172870.686   -14334688.41949 -11154571.82947  22172870.511    22172877.172
       232.000         189.000
  21456618.133   -18525707.77549 -14414240.63647  21456617.763    21456624.530
       232.000         192.000
  23507163.958     -232109.26249   -150537.50945  23507163.220    23507171.579
       210.000         140.000
  23960227.048    -5641300.54149  -4024283.94645  23960227.120    23960235.118
       210.000         144.000
  21843582.446   -11359060.81149  -8830938.44647  21843582.103    21843588.527
       237.000         197.000
  20282560.809   -28883641.56649 -22483605.88948  20282560.226    20282566.785
       245.000         213.000
  20930701.325   -16177641.93449 -12203744.07947  20930701.057    20930705.829
       242.000         210.000
 03  3 25  0 52 30.0000000  0  8G14G 3G17G 9G31G23G15G18
  21568770.158   -14093749.55349 -10960077.27447  21568769.402    21568775.203
       235.000         192.000
  22166039.152   -14370588.51749 -11182545.92347  22166039.470    22166045.870
       234.000         188.000
  21464787.451   -18482777.46949 -14380788.48347  21464786.927    21464793.776
       232.000         193.000
  23500726.919     -265935.02149   -176895.17145  23500726.616    23500734.272
       210.000         144.000
  23945532.283    -5718522.90649  -4084457.16745  23945532.343    23945539.281
       213.000         146.000
  21852415.764   -11312641.04149  -8794767.20147  21852415.068    21852422.173
       237.000         197.000
  20281292.362   -28890307.29849 -22488799.96648  20281292.014    20281298.193
       246.000         214.000
  20936795.218   -16145618.30349 -12178790.59547  20936794.908    20936799.917
       243.000         210.000
 03  3 25  0 53  0.0000000  0  8G14G 3G17G 9G31G23G15G18
  21553251.626   -14175299.70649 -11023622.77547  21553251.005    21553257.029
       235.000         193.000
  22159307.882   -14405961.74749 -11210109.46247  22159307.241    22159314.889
       232.000         188.000
  21473020.874   -18439510.04349 -14347073.61647  21473020.517    21473028.029
       234.000         193.000
  23494377.845     -299299.70549   -202893.55045  23494377.521    23494385.663
       212.000         147.000
  23930911.143    -5795357.88549  -4144328.51845  23930911.105    23930918.413
       215.000         148.000
  21861261.492   -11266156.08649  -8758545.16247  21861261.044    21861267.381
       237.000         197.000
  20280090.106   -28896625.63749 -22493723.33848  20280089.456    20280095.741
       246.000         214.000
  20942923.175   -16113415.54049 -12153697.52547  20942922.786    20942927.665
       242.000         209.000
 03  3 25  0 53 30.0000000  0  8G14G 3G17G 9G31G23G15G18
  21537808.216   -14256454.97349 -11086860.59047  21537807.886    21537813.538
       236.000         194.000
  22152676.939   -14440807.30349 -11237261.83147  22152676.611    22152683.125
       232.000         188.000
  21481318.611   -18395905.17149 -14313095.80547  21481318.233    21481325.483
       232.000         193.000
  23488116.905     -332200.69349   -228530.61745  23488116.865    23488123.707
       214.000         149.000
  23916364.128    -5871803.15349  -4203896.19745  23916362.747    23916370.188
       215.000         148.000
  21870119.489   -11219606.92549  -8722273.10347  21870119.341    21870125.391
       237.000         197.000
  20278954.089   -28902595.13949 -22498374.89348  20278953.603    20278959.719
       245.000         213.000
  20949085.005   -16081034.68349 -12128465.68547  20949084.810    20949089.645
       242.000         209.000
 03  3 25  0 54  0.0000000  0  8G14G 3G17G 9G31G23G15G18
  21522440.114   -14337214.72649 -11149790.22947  21522440.165    21522445.399
       237.000         195.000
  22146146.415   -14475125.45349 -11264003.23247  22146146.292    22146152.531
       232.000         188.000
  21489680.474   -18351963.23149 -14278855.35247  21489680.014    21489687.339
       233.000         192.000
  23481944.351     -364637.25349   -253805.78945  23481943.689    23481951.341
       215.000         150.000
  23901891.244    -5947857.85849  -4263159.54845  23901890.116    23901897.018
       216.000         147.000
  21878989.376   -11172995.97849  -8685952.88847  21878988.971    21878995.585
       237.000         197.000
  20277884.448   -28908215.95449 -22502754.73848  20277883.943    20277890.202
       245.000         213.000
  20955280.291   -16048478.46849 -12103097.20047  20955280.111    20955284.836
       243.000         209.000
 03  3 25  0 54 30.0000000  0  8G14G 3G17G 9G31G23G15G18
  21507148.007   -14417576.06949 -11212409.41047  21507147.811    21507153.046
       238.000         196.000
  22139716.523   -14508914.39849 -11290332.26847  22139716.103    22139722.461
       232.000         188.000
  21498106.782   -18307683.32949 -14244351.54347  21498106.940    21498113.318
       234.000         191.000
  23475860.934     -396606.20049   -278716.59345  23475860.960    23475867.644
       215.000         151.000
  23887493.226    -6023518.76049  -4322116.03945  23887492.583    23887499.940
       214.000         148.000
  21887870.964   -11126323.15149  -8649584.45747  21887870.712    21887876.868
       237.000         197.000
  20276881.556   -28913485.88449 -22506861.17048  20276880.957    20276887.297
       245.000         213.000
  20961508.949   -16015746.99749 -12077592.15047  20961508.570    20961513.241
       243.000         209.000
 03  3 25  0 55  0.0000000  0  8G14G 3G17G 9G31G23G15G18
  21491932.058   -14497536.77249 -11274716.39847  21491931.695    21491937.212
       237.000         197.000
  22133387.636   -14542173.14549 -11316248.16747  22133387.485    22133393.427
       234.000         189.000
  21506597.537   -18263064.74449 -14209583.81647  21506597.153    21506603.801
       233.000         192.000
  23469866.790     -428105.23149   -303261.22145  23469866.010    23469874.472
       214.000         153.000
  23873170.637    -6098783.50249  -4380763.82245  23873169.279    23873177.725
       213.000         148.000
  21896764.170   -11079589.30649  -8613168.47447  21896763.546    21896770.104
       237.000         196.000
  20275945.742   -28918403.63749 -22510693.17948  20275945.035    20275951.525
       245.000         213.000
  20967770.646   -15982841.30049 -12051951.34447  20967770.155    20967775.075
       242.000         209.000
 03  3 25  0 55 30.0000000  0  8G14G 3G17G 9G31G23G15G18
  21476792.574   -14577094.66449 -11336709.50647  21476791.876    21476797.433
       237.000         197.000
  22127159.768   -14574900.48249 -11341749.97747  22127159.596    22127165.782
       232.000         188.000
  21515152.668   -18218106.98449 -14174551.80247  21515152.390    21515159.109
       233.000         192.000
  23463962.238     -459131.90249   -327437.78845  23463961.507    23463969.314
       216.000         154.000
  23858923.882    -6173649.57249  -4439100.97545  23858922.242    23858931.038
       210.000         149.000
  21905668.663   -11032795.29349  -8576705.61347  21905668.012    21905674.535
       236.000         196.000
  20275077.131   -28922967.69949 -22514249.59048  20275076.567    20275082.971
       245.000         213.000
  20974065.323   -15949762.40349 -12026175.57247  20974064.867    20974069.776
       242.000         208.000
 03  3 25  0 56  0.0000000  0  8G14G 3G17G 9G31G23G15G18
  21461730.250   -14656247.05949 -11398386.65247  21461729.614    21461735.706
       236.000         197.000
  22121033.425   -14607094.73549 -11366836.39047  22121032.948    22121039.566
       233.000         188.000
  21523772.607   -18172808.88549 -14139254.59747  21523772.622    21523779.041
       233.000         191.000
  23458148.398     -489683.23349   -351243.96345  23458148.831    23458155.070
       218.000         156.000
  23844753.627    -6248114.20749  -4497125.30645  23844753.031    23844760.301
       213.000         151.000
  21914584.568   -10985941.48049  -8540196.15747  21914584.169    21914590.684
       236.000         195.000
  20274276.376   -28927176.02249 -22517528.79248  20274275.761    20274282.201
       245.000         213.000
  20980392.920   -15916510.64849 -12000265.11247  20980392.946    20980397.369
       242.000         208.000
 03  3 25  0 56 30.0000000  0  8G14G 3G17G 9G31G23G15G18
  21446745.317   -14734992.87149 -11459746.98247  21446745.147    21446750.791
       238.000         198.000
  22115008.504   -14638755.90849 -11391507.41947  22115008.198    22115014.859
       232.000         188.000
  21532457.360   -18127170.56749 -14103692.28747  21532457.100    21532464.019
       232.000         191.000
  23452425.438     -519757.66149   -374678.50945  23452425.314    23452432.187
       218.000         157.000
  23830660.154    -6322175.81449  -4554835.57645  23830659.788    23830666.692
       215.000         152.000
  21923511.671   -10939029.39849  -8503641.29847  21923511.509    21923517.772
       236.000         195.000
  20273543.370   -28931028.16249 -22520530.45448  20273542.738    20273549.333
       245.000         213.000
  20986753.127   -15883087.79249 -11974221.32247  20986752.504    20986757.501
       241.000         208.000
 03  3 25  0 57  0.0000000  0  8G14G 3G17G 9G31G23G15G18
  21431838.292   -14813330.19149 -11520789.00847  21431838.087    21431843.448
       239.000         199.000
  22109085.086   -14669883.18649 -11415762.42447  22109084.809    22109091.318
       233.000         188.000
  21541206.824   -18081191.97949 -14067864.82847  21541206.003    21541213.431
       232.000         191.000
  23446793.590     -549353.52849   -397740.15545  23446793.443    23446801.023
       216.000         158.000
  23816643.852    -6395832.46949  -4612230.31745  23816643.201    23816652.097
       212.000         153.000
  21932449.682   -10892060.11349  -8467041.86947  21932449.611    21932455.140
       237.000         195.000
  20272878.362   -28934522.89649 -22523253.61448  20272877.739    20272884.160
       245.000         213.000
  20993145.476   -15849495.07249 -11948045.17347  20993144.948    20993150.036
       241.000         208.000
 03  3 25  0 57 30.0000000  0  8G14G 3G17G 9G31G23G15G18
  21417009.416   -14891256.81249 -11581511.00847  21417009.303    21417014.378
       239.000         199.000
  22103263.578   -14700475.46949 -11439600.55547  22103263.469    22103270.057
       233.000         189.000
  21550021.059   -18034872.79049 -14031771.96547  21550019.872    21550027.584
       231.000         190.000
  23441253.328     -578468.02349   -420426.72245  23441253.398    23441260.355
       219.000         159.000
  23802704.833    -6469081.39749  -4669307.34345  23802703.931    23802712.771
       214.000         154.000
  21941398.552   -10845034.10549  -8430398.23347  21941398.116    21941404.352
       237.000         195.000
  20272281.676   -28937658.65249 -22525697.05148  20272281.062    20272286.997
       246.000         213.000
  20999570.032   -15815733.39949 -11921737.37747  20999569.680    20999574.837
       241.000         208.000
 03  3 25  0 58  0.0000000  0  8G14G 3G17G 9G31G23G15G18
  21402259.096   -14968770.26949 -11641911.06847  21402258.825    21402264.145
       239.000         199.000
  22097543.935   -14730531.58149 -11463020.88647  22097543.369    22097550.255
       231.000         188.000
  21558900.321   -17988211.71249 -13995412.70347  21558899.964    21558907.245
       231.000         190.000
  23435805.048     -607098.78249   -442736.35045  23435804.310    23435812.001
       218.000         159.000
  23788843.920    -6541920.17749  -4726064.80945  23788844.196    23788852.076
       213.000         155.000
  21950357.986   -10797952.03249  -8393710.90047  21950357.474    21950363.521
       237.000         195.000
  20271753.557   -28940433.78449 -22527859.48047  20271752.828    20271759.228
       245.000         212.000
  21006026.663   -15781803.51549 -11895298.50647  21006026.251    21006031.488
       242.000         208.000
 03  3 25  0 58 30.0000000  0  8G14G 3G17G 9G31G23G15G18
  21387587.756   -15045868.28549 -11701987.40147  21387587.281    21387592.983
       237.000         199.000
  22091926.394   -14760050.54849 -11486022.66447  22091926.038    22091932.338
       233.000         188.000
  21567844.689   -17941208.24249 -13958786.62347  21567844.362    21567851.347
       232.000         190.000
  23430449.157     -635243.36749   -464667.11345  23430449.208    23430456.693
       220.000         160.000
  23775061.849    -6614346.26949  -4782500.67845  23775063.306    23775068.865
       215.000         155.000
  21959327.955   -10750814.53149  -8356980.37447  21959327.234    21959333.848
       236.000         195.000
  20271294.268   -28942846.91049 -22529739.82547  20271293.605    20271299.906
       245.000         212.000
  21012515.299   -15747705.74349 -11868728.81447  21012515.019    21012519.885
       243.000         208.000
 03  3 25  0 59  0.0000000  0  8G14G 3G17G 9G31G23G15G18
  21372995.471   -15122550.43349 -11761739.67747  21372995.063    21373000.837
       238.000         199.000
  22086411.458   -14789032.51249 -11508606.00547  22086412.105    22086417.618
       234.000         188.000
  21576854.121   -17893863.49749 -13921894.63547  21576853.605    21576860.760
       231.000         190.000
  23425186.106     -662900.69449   -486218.20945  23425186.261    23425193.466
       222.000         162.000
  23761358.710    -6686358.68049  -4838614.21045  23761358.084    23761365.593
       210.000         154.000
  21968307.954   -10703623.61349  -8320208.23647  21968307.247    21968314.183
       236.000         195.000
  20270903.948   -28944897.87449 -22531337.97347  20270903.246    20270909.718
       245.000         212.000
  21019035.357   -15713442.74749 -11842030.37647  21019034.995    21019040.007
       242.000         208.000
 03  3 25  0 59 30.0000000  0  8G14G 3G17G 9G31G23G15G18
  21358482.829   -15198814.25949 -11821165.98847  21358482.680    21358488.296
       238.000         199.000
  22080998.885   -14817476.05649 -11530769.77147  22080997.673    22081004.602
       231.000         188.000
  21585928.677   -17846176.23249 -13884735.74647  21585928.263    21585935.766
       231.000         190.000
  23420016.319     -690068.29849   -507387.70346  23420016.490    23420023.606
       223.000         163.000
  23747734.289    -6757954.83949  -4894403.36345  23747732.337    23747741.122
       206.000         152.000
  21977298.123   -10656379.49649  -8283394.63447  21977297.394    21977304.360
       236.000         195.000
  20270582.917   -28946584.74449 -22532652.41148  20270582.228    20270588.631
       245.000         213.000
  21025586.767   -15679014.84549 -11815203.43747  21025586.329    21025591.266
       242.000         208.000
 03  3 25  1  0  0.0000000  0  8G14G 3G17G 9G31G23G15G18
  21344050.579   -15274656.61649 -11880263.87747  21344050.431    21344055.864
       239.000         200.000
  22075688.743   -14845379.64449 -11552512.81546  22075688.619    22075695.425
       231.000         187.000
  21595068.628   -17798145.25549 -13847309.03547  21595068.095    21595076.084
       231.000         190.000
  23414940.342     -716743.02649   -528173.13646  23414940.494    23414946.881
       222.000         163.000
  23734189.168    -6829131.22249  -4949865.43345  23734187.114    23734196.972
       204.000         150.000
  21986298.495   -10609081.99949  -8246539.43947  21986298.362    21986304.929
       237.000         195.000
  20270331.649   -28947905.24649 -22533681.35548  20270331.002    20270337.363
       245.000         213.000
  21032169.591   -15644421.94349 -11788247.93047  21032169.262    21032174.457
       242.000         208.000
 03  3 25  1  0 30.0000000  0  8G14G 3G17G 9G31G23G15G18
  21329698.798   -15350076.00049 -11939032.18647  21329698.647    21329703.690
       239.000         200.000
  22070481.691   -14872742.51449 -11573834.51247  22070482.183    22070488.333
       233.000         188.000
  21604274.139   -17749770.19449 -13809614.20947  21604274.182    21604281.279
       232.000         189.000
  23409958.448     -742923.13749   -548573.15546  23409958.183    23409965.283
       222.000         164.000
  23720724.608    -6899886.02049  -5004999.00945  23720723.315    23720731.974
       207.000         150.000
  21995308.920   -10561732.37149  -8209643.62147  21995308.745    21995315.084
       237.000         195.000
  20270150.231   -28948858.40449 -22534424.07448  20270149.717    20270156.002
       245.000         213.000
  21038783.522   -15609665.29049 -11761164.82847  21038783.223    21038788.131
       241.000         208.000
 03  3 25  1  1  0.0000000  0  8G14G 3G17G 9G31G23G15G18
  21315427.674   -15425071.19049 -11997469.95547  21315427.237    21315432.729
       238.000         200.000
  22065377.622   -14899564.94449 -11594735.08747  22065376.927    22065384.182
       234.000         189.000
  21613544.894   -17701052.26249 -13771652.18647  21613544.664    21613551.320
       231.000         188.000
  23405070.741     -768607.45249   -568586.85046  23405070.097    23405078.211
       223.000         164.000
  23707340.928    -6970218.00049  -5059803.09845  23707341.029    23707348.821
       207.000         151.000
  22004328.847   -10514332.36949  -8172708.55047  22004328.780    22004334.791
       237.000         195.000
  20270038.817   -28949444.01249 -22534880.38748  20270038.344    20270044.543
       244.000         213.000
  21045428.171   -15574747.13349 -11733955.87747  21045428.003    21045433.077
       242.000         207.000
 03  3 25  1  1 30.0000000  0  8G14G 3G17G 9G31G23G15G18
  21301237.596   -15499640.01449 -12055575.48247  21301236.831    21301242.803
       238.000         200.000
  22060376.573   -14925845.82849 -11615213.68947  22060376.119    22060382.858
       233.000         189.000
  21622881.094   -17651990.15549 -13733421.98546  21622880.351    21622887.599
       229.000         186.000
  23400277.756     -793793.41349   -588212.20246  23400277.165    23400284.507
       221.000         163.000
  23694038.134    -7040124.51049  -5114275.64545  23694037.259    23694045.129
       204.000         151.000
  22013358.274   -10466882.22749  -8135734.41047  22013358.199    22013364.144
       236.000         194.000
  20269997.737   -28949660.14949 -22535048.80448  20269997.423    20270003.504
       244.000         213.000
  21052103.569   -15539667.77649 -11706621.30847  21052103.302    21052108.276
       241.000         207.000
 03  3 25  1  2  0.0000000  0  8G14G 3G17G 9G31G23G15G18
  21287128.999   -15573780.81849 -12113347.48947  21287128.478    21287134.152
       238.000         200.000
  22055478.563   -14951584.92249 -11635270.10947  22055478.530    22055485.390
       234.000         189.000
  21632282.780   -17602583.49649 -13694923.30846  21632282.353    21632289.475
       231.000         187.000
  23395580.117     -818479.42149   -607447.98645  23395579.297    23395586.551
       218.000         162.000
  23680816.406    -7109603.72249  -5168415.20745  23680815.752    23680824.922
       206.000         150.000
  22022397.020   -10419383.01149  -8098722.02947  22022396.432    22022402.761
       236.000         193.000
  20270027.093   -28949505.94049 -22534928.64248  20270026.623    20270032.689
       244.000         214.000
  21058809.441   -15504428.34249 -11679162.00047  21058809.000    21058814.116
       242.000         207.000
 03  3 25  1  2 30.0000000  0  8G14G 3G17G 9G31G23G15G18
  21273102.274   -15647491.67349 -12170784.46747  21273101.698    21273107.710
       238.000         200.000
  22050683.819   -14976781.12749 -11654903.51747  22050683.799    22050690.638
       233.000         189.000
  21641750.210   -17552832.19749 -13656156.08647  21641750.098    21641757.463
       231.000         189.000
  23390978.045     -842663.27449   -626292.48345  23390977.963    23390985.385
       220.000         161.000
  23667676.798    -7178653.22649  -5222219.95445  23667675.969    23667684.591
       206.000         151.000
  22031445.136   -10371835.35449  -8061671.89947  22031444.708    22031451.327
       235.000         193.000
  20270127.167   -28948980.12849 -22534518.91048  20270126.513    20270132.822
       244.000         213.000
  21065545.617   -15469029.60649 -11651578.57047  21065545.366    21065550.183
       242.000         207.000
 03  3 25  1  3  0.0000000  0  8G14G 3G17G 9G31G23G15G18
  21259157.556   -15720771.17749 -12227885.32347  21259156.942    21259162.682
       238.000         200.000
  22045992.422   -15001434.27249 -11674113.75147  22045992.437    22045999.262
       234.000         190.000
  21651283.153   -17502736.52549 -13617120.51447  21651282.749    21651290.253
       231.000         188.000
  23386471.958     -866343.37849   -644744.43645  23386471.633    23386479.660
       219.000         161.000
  23654618.894    -7247271.33949  -5275688.56245  23654619.138    23654627.066
       209.000         151.000
  22040502.083   -10324240.41049  -8024584.93347  22040501.648    22040507.762
       235.000         192.000
  20270298.153   -28948081.74149 -22533818.86048  20270297.605    20270304.022
       244.000         213.000
  21072311.814   -15433473.36149 -11623872.40547  21072311.742    21072316.497
       242.000         207.000
 03  3 25  1  3 30.0000000  0  8G14G 3G17G 9G31G23G15G18
  21245295.393   -15793616.88749 -12284648.16247  21245295.138    21245300.954
       238.000         200.000
  22041404.733   -15025543.41449 -11692900.10347  22041404.953    22041411.021
       235.000         190.000
  21660881.789   -17452295.41549 -13577815.76647  21660881.804    21660888.695
       231.000         188.000
  23382062.045     -889517.45349   -662802.08145  23382060.936    23382069.650
       217.000         160.000
  23641643.833    -7315455.61049  -5328819.12245  23641644.750    23641650.941
       213.000         153.000
  22049567.998   -10276598.48449  -7987461.34947  22049567.462    22049573.860
       235.000         192.000
  20270540.306   -28946809.05449 -22532827.15348  20270539.717    20270545.795
       244.000         213.000
  21079107.867   -15397759.94849 -11596043.76647  21079107.557    21079112.092
       241.000         207.000
 03  3 25  1  4  0.0000000  0  8G14G 3G17G 9G31G23G15G18
  21231515.932   -15866028.14049 -12341072.46047  21231515.298    21231521.223
       239.000         201.000
  22036920.584   -15049108.84049 -11711262.76947  22036920.118    22036926.347
       234.000         190.000
  21670546.073   -17401509.67349 -13538242.47247  21670545.553    21670552.805
       231.000         189.000
  23377748.404     -912184.51249   -680464.64945  23377748.991    23377756.121
       217.000         159.000
  23628751.844    -7383204.87149  -5381610.71545  23628752.355    23628759.115
       217.000         155.000
  22058642.618   -10228911.27049  -7950302.47847  22058642.270    22058648.467
       236.000         192.000
  20270853.685   -28945161.92649 -22531543.67148  20270853.000    20270859.428
       243.000         213.000
  21085933.429   -15361891.28149 -11568094.14747  21085933.052    21085937.940
       241.000         206.000
 03  3 25  1  4 30.0000000  0  8G14G 3G17G 9G31G23G15G18
  21217819.731   -15938002.30549 -12397156.18247  21217819.429    21217824.661
       239.000         201.000
  22032539.843   -15072129.26649 -11729200.77147  22032539.640    22032545.903
       234.000         190.000
  21680275.993   -17350378.59749 -13498400.09247  21680275.438    21680282.685
       231.000         189.000
  23373532.026     -934341.87749   -697730.07345  23373532.050    23373538.906
       217.000         159.000
  23615943.248    -7450516.33449  -5434061.19745  23615944.142    23615950.539
       219.000         157.000
  22067725.799   -10181178.94449  -7913108.45947  22067725.502    22067731.747
       235.000         192.000
  20271238.680   -28943138.51749 -22529966.98248  20271238.114    20271244.730
       243.000         213.000
  21092788.494   -15325867.45649 -11540023.63147  21092787.687    21092793.305
       240.000         206.000
 03  3 25  1  5  0.0000000  0  8G14G 3G17G 9G31G23G15G18
  21204206.881   -16009538.22649 -12452898.41047  21204206.154    21204212.272
       239.000         201.000
  22028262.840   -15094604.76949 -11746714.15547  22028262.651    22028269.325
       234.000         190.000
  21690071.556   -17298902.16149 -13458288.59747  21690071.426    21690078.545
       231.000         189.000
  23369412.951     -955988.01449   -714597.12545  23369412.722    23369418.746
       220.000         158.000
  23603218.202    -7517388.39849  -5486169.26545  23603218.012    23603225.418
       220.000         158.000
  22076817.289   -10133402.84549  -7875880.33747  22076816.978    22076823.435
       236.000         192.000
  20271695.546   -28940737.97849 -22528096.42748  20271694.968    20271701.236
       244.000         213.000
  21099672.716   -15289689.91049 -11511833.34047  21099672.241    21099677.415
       240.000         205.000
 03  3 25  1  5 30.0000000  0  8G14G 3G17G 9G31G23G15G18
  21190677.738   -16080633.78749 -12508297.49447  21190677.149    21190683.325
       239.000         202.000
  22024089.829   -15116533.88449 -11763801.79147  22024089.510    22024096.457
       234.000         190.000
  21699933.183   -17247079.23149 -13417907.10247  21699932.979    21699939.839
       231.000         190.000
  23365391.586     -977120.54449   -731063.97745  23365391.066    23365397.900
       218.000         158.000
  23590576.916    -7583818.44149  -5537932.89745  23590576.724    23590584.251
       218.000         158.000
  22085917.145   -10085582.98849  -7838618.11247  22085916.908    22085923.214
       236.000         193.000
  20272224.492   -28937958.31449 -22525930.44448  20272224.041    20272229.953
       244.000         213.000
  21106586.179   -15253359.33149 -11483523.78747  21106586.234    21106591.296
       242.000         206.000
 03  3 25  1  6  0.0000000  0  8G14G 3G17G 9G31G23G15G18
  21177232.948   -16151286.33749 -12563351.37647  21177232.147    21177238.199
       238.000         202.000
  22020020.958   -15137915.71949 -11780462.96847  22020020.607    22020027.871
       233.000         190.000
  21709860.702   -17194909.65349 -13377255.48947  21709860.516    21709867.729
       231.000         190.000
  23361468.183     -997737.26649   -747128.90545  23361468.162    23361474.181
       218.000         158.000
  23578020.473    -7649803.82149  -5589350.02445  23578020.576    23578027.858
       219.000         159.000
  22095025.298   -10037719.50649  -7801321.89547  22095024.992    22095030.906
       235.000         192.000
  20272825.958   -28934797.83949 -22523467.72748  20272825.365    20272831.502
       244.000         213.000
  21113528.888   -15216875.87449 -11455095.10647  21113529.098    21113533.543
       242.000         206.000
 03  3 25  1  6 30.0000000  0  8G14G 3G17G 9G31G23G15G18
  21163872.577   -16221494.94349 -12618059.32647  21163872.106    21163877.849
       239.000         203.000
  22016056.355   -15158750.23849 -11796697.67247  22016056.301    22016063.097
       234.000         190.000
  21719854.212   -17142393.78149 -13336334.04447  21719853.918    21719860.636
       230.000         189.000
  23357643.295    -1017836.76549   -762790.79245  23357643.380    23357649.551
       220.000         159.000
  23565548.862    -7715343.13449  -5640419.55645  23565548.280    23565556.284
       219.000         160.000
  22104141.370    -9989813.75249  -7763992.73647  22104141.052    22104147.161
       234.000         192.000
  20273499.819   -28931256.37649 -22520708.13948  20273499.328    20273505.394
       243.000         213.000
  21120500.323   -15180241.06949 -11426548.49147  21120500.172    21120504.679
       242.000         206.000
 03  3 25  1  7  0.0000000  0  8G14G 3G17G 9G31G23G15G18
  21150597.142   -16291257.74349 -12672419.90347  21150596.846    21150602.351
       239.000         203.000
  22012195.955   -15179037.21349 -11812505.71347  22012195.784    22012202.768
       234.000         190.000
  21729913.700   -17089531.30449 -13295142.53246  21729913.214    21729920.462
       228.000         187.000
  23353917.235    -1037417.25849   -778048.27545  23353916.750    23353924.158
       219.000         159.000
  23553162.313    -7780434.44249  -5691140.00745  23553161.096    23553169.673
       219.000         160.000
  22113265.496    -9941866.41049  -7726631.16947  22113265.055    22113271.230
       235.000         192.000
  20274246.488   -28927332.46349 -22517650.53647  20274245.932    20274252.180
       243.000         212.000
  21127500.337   -15143455.78149 -11397884.61847  21127499.786    21127504.772
       241.000         206.000
 03  3 25  1  7 30.0000000  0  8G14G 3G17G 9G31G23G15G18
  21137406.704   -16360574.10849 -12726432.61147  21137406.548    21137411.540
       241.000         204.000
  22008439.618   -15198777.21049 -11827887.53347  22008438.815    22008446.105
       233.000         190.000
  21740038.882   -17036322.83549 -13253681.41546  21740038.824    21740045.694
       228.000         186.000
  23350290.123    -1056477.74749   -792900.53745  23350290.580    23350296.278
       221.000         159.000
  23540861.210    -7845076.37349  -5741510.30045  23540860.791    23540867.344
       221.000         159.000
  22122397.257    -9893878.92649  -7689238.32147  22122396.703    22122403.256
       234.000         191.000
  20275066.008   -28923025.71149 -22514294.61247  20275065.354    20275071.513
       243.000         212.000
  21134528.544   -15106521.87049 -11369104.93647  21134528.061    21134532.788
       241.000         206.000
 03  3 25  1  8  0.0000000  0  8G14G 3G17G 9G31G23G15G18
  21124301.759   -16429441.29949 -12780095.30947  21124301.450    21124306.650
       240.000         204.000
  22004787.469   -15217968.70449 -11842841.96947  22004787.373    22004793.811
       233.000         190.000
  21750230.213   -16982767.10449 -13211949.68846  21750229.699    21750237.295
       228.000         186.000
  23346762.498    -1075015.73649   -807345.66045  23346761.453    23346769.018
       220.000         160.000
  23528646.403    -7909266.19949  -5791528.31545  23528646.797    23528652.616
       221.000         158.000
  22131536.574    -9845851.18149  -7651814.11147  22131535.757    22131542.558
       234.000         191.000
  20275958.735   -28918334.28349 -22510638.93548  20275958.316    20275964.203
       244.000         213.000
  21141585.113   -15069439.23849 -11340209.37547  21141584.695    21141589.781
       241.000         205.000
 03  3 25  1  8 30.0000000  0  8G14G 3G17G 9G31G23G15G18
  21111282.578   -16497857.21149 -12833406.36547  21111282.094    21111287.325
       240.000         203.000
  22001239.912   -15236610.86949 -11857368.32747  22001239.988    22001246.622
       234.000         189.000
  21760487.767   -16928863.34749 -13169946.77746  21760487.338    21760494.179
       230.000         186.000
  23343334.516    -1093028.94649   -821381.87945  23343334.975    23343340.851
       221.000         161.000
  23516518.051    -7973001.50549  -5841192.16445  23516518.903    23516524.589
       222.000         158.000
  22140683.538    -9797783.22449  -7614358.56147  22140683.204    22140690.003
       234.000         191.000
  20276925.000   -28913256.47349 -22506682.18748  20276924.277    20276930.404
       243.000         213.000
  21148669.912   -15032208.39949 -11311198.32847  21148669.721    21148674.608
       242.000         205.000
 03  3 25  1  9  0.0000000  0  8G14G 3G17G 9G31G23G15G18
  21098349.438   -16565821.15449 -12886365.23347  21098349.107    21098354.575
       240.000         204.000
  21997796.913   -15254704.06449 -11871466.91747  21997796.362    21997803.586
       233.000         189.000
  21770811.384   -16874612.36949 -13127673.30246  21770811.111    21770817.465
       229.000         186.000
  23340006.773    -1110516.62049   -835008.59345  23340005.390    23340012.673
       221.000         161.000
  23504476.381    -8036281.09649  -5890500.90845  23504476.210    23504482.895
       222.000         158.000
  22149837.890    -9749676.77249  -7576873.02347  22149837.756    22149844.638
       235.000         192.000
  20277964.812   -28907791.93249 -22502424.09548  20277964.257    20277970.460
       244.000         213.000
  21155782.625   -14994830.98849 -11282073.06847  21155782.507    21155787.342
       242.000         206.000
 03  3 25  1  9 30.0000000  0  8G14G 3G17G 9G31G23G15G18
  21085502.589   -16633331.51349 -12938970.65547  21085502.221    21085507.361
       240.000         204.000
  21994458.439   -15272247.71249 -11885137.28847  21994458.113    21994465.472
       232.000         189.000
  21781201.179   -16820013.96849 -13085129.10946  21781201.078    21781207.684
       229.000         185.000
  23336779.320    -1127476.91449   -848224.36045  23336778.904    23336785.174
       219.000         161.000
  23492521.806    -8099102.95549  -5939452.95845  23492520.307    23492529.159
       220.000         159.000
  22158999.567    -9701532.34949  -7539357.89847  22158998.754    22159006.058
       234.000         192.000
  20279078.562   -28901939.36949 -22497863.64948  20279078.196    20279084.471
       245.000         213.000
  21162923.095   -14957307.78749 -11252834.20147  21162922.993    21162927.508
       242.000         206.000
 03  3 25  1 10  0.0000000  0  8G14G 3G17G 9G31G23G15G18
  21072742.431   -16700385.99549 -12991220.85347  21072741.794    21072747.600
       239.000         205.000
  21991224.467   -15289241.45049 -11898379.17747  21991224.252    21991231.094
       233.000         189.000
  21791657.155   -16765067.37149 -13042313.60546  21791656.760    21791664.046
       228.000         184.000
  23333652.505    -1143907.74049   -861027.55845  23333651.889    23333659.541
       220.000         162.000
  23480654.687    -8161464.69949  -5988046.51445  23480653.682    23480661.314
       220.000         159.000
  22168168.324    -9653350.16149  -7501813.33647  22168167.757    22168174.331
       234.000         191.000
  20280266.461   -28895697.25149 -22492999.66148  20280265.884    20280271.994
       244.000         213.000
  21170091.149   -14919639.29649 -11223482.12947  21170090.791    21170095.568
       241.000         205.000
 03  3 25  1 10 30.0000000  0  8G14G 3G17G 9G31G23G15G18
  21060069.295   -16766983.36549 -13043114.85847  21060068.878    21060074.623
       240.000         205.000
  21988095.390   -15305685.07049 -11911192.37547  21988095.738    21988101.914
       234.000         189.000
  21802179.309   -16709773.27349 -12999227.31146  21802178.996    21802185.656
       229.000         184.000
  23330626.740    -1159807.78149   -873417.14346  23330626.533    23330634.059
       221.000         163.000
  23468875.529    -8223364.78049  -6036280.30645  23468876.005    23468881.987
       220.000         160.000
  22177344.012    -9605131.15249  -7464240.07847  22177343.714    22177349.923
       235.000         191.000
  20281528.566   -28889064.86849 -22487831.56348  20281528.010    20281533.954
       244.000         213.000
  21177286.585   -14881826.79049 -11194017.83147  21177286.440    21177290.768
       241.000         205.000
 03  3 25  1 11  0.0000000  0  8G14G 3G17G 9G31G23G15G18
  21047483.479   -16833122.28949 -13094651.63847  21047483.320    21047488.516
       240.000         205.000
  21985071.125   -15321578.42149 -11923576.79447  21985070.832    21985078.016
       234.000         189.000
  21812767.624   -16654131.55949 -12955870.15046  21812767.126    21812773.894
       229.000         184.000
  23327702.241    -1175175.74749   -885392.12745  23327701.938    23327710.149
       219.000         162.000
  23457184.591    -8284801.42249  -6084152.96545  23457183.650    23457190.862
       218.000         160.000
  22186526.693    -9556876.04049  -7426638.68947  22186526.297    22186532.417
       234.000         190.000
  20282865.067   -28882041.30149 -22482358.65948  20282864.365    20282870.697
       243.000         213.000
  21184509.292   -14843871.13749 -11164442.00147  21184509.070    21184513.855
       241.000         205.000
 03  3 25  1 11 30.0000000  0  8G14G 3G17G 9G31G23G15G18
  21034985.285   -16898800.90849 -13145829.73647  21034985.153    21034990.309
       241.000         206.000
  21982151.419   -15336921.09249 -11935532.11547  21982151.603    21982158.300
       233.000         189.000
  21823422.162   -16598141.87749 -12912241.84946  21823421.120    21823428.702
       228.000         183.000
  23324879.362    -1190009.42849   -896950.77745  23324878.972    23324885.736
       220.000         161.000
  23445581.959    -8345772.48649  -6131662.85545  23445581.112    23445587.367
       213.000         157.000
  22195716.174    -9508585.20749  -7389009.46347  22195716.046    22195722.122
       234.000         190.000
  20284276.254   -28874625.25549 -22476579.92648  20284275.668    20284282.149
       244.000         213.000
  21191759.075   -14805773.07649 -11134755.20147  21191758.711    21191763.789
       241.000         205.000
 03  3 25  1 12  0.0000000  0  8G14G 3G17G 9G31G23G15G18
  21022574.842   -16964018.26249 -13196648.40447  21022574.375    21022579.809
       241.000         206.000
  21979336.595   -15351713.19849 -11947058.41047  21979336.672    21979343.181
       234.000         190.000
  21834142.708   -16541804.26149 -12868342.41246  21834142.088    21834149.029
       227.000         180.000
  23322158.542    -1204307.65549   -908092.20645  23322158.895    23322164.388
       221.000         161.000
  23434068.284    -8406276.40649  -6178808.73045  23434067.283    23434073.935
       212.000         156.000
  22204912.234    -9460259.70249  -7351353.23547  22204911.729    22204918.315
       234.000         190.000
  20285762.332   -28866815.61949 -22470494.49148  20285761.829    20285768.182
       244.000         213.000
  21199035.760   -14767533.62249 -11104958.22047  21199035.213    21199040.794
       240.000         205.000
 03  3 25  1 12 30.0000000  0  8G14G 3G17G 9G31G23G15G18
  21010252.494   -17028772.34449 -13247106.08447  21010252.095    21010257.406
       240.000         206.000
  21976626.670   -15365954.29549 -11958155.36347  21976626.338    21976633.453
       233.000         190.000
  21844929.499   -16485118.56749 -12824171.75746  21844929.370    21844936.501
       228.000         180.000
  23319540.042    -1218068.80249   -918815.10445  23319539.219    23319546.097
       218.000         160.000
  23422643.952    -8466311.14349  -6225589.00945  23422643.331    23422650.078
       211.000         155.000
  22214114.808    -9411899.91349  -7313670.28147  22214114.219    22214120.411
       234.000         190.000
  20287323.584   -28858611.34249 -22464101.54148  20287323.268    20287329.505
       245.000         214.000
  21206339.208   -14729153.46649 -11075051.60447  21206339.237    21206344.070
       242.000         205.000
 03  3 25  1 13  0.0000000  0  8G14G 3G17G 9G31G23G15G18
  20998018.494   -17093061.95949 -13297201.84247  20998018.165    20998023.679
       240.000         206.000
  21974021.455   -15379644.43849 -11968822.98547  21974021.711    21974028.481
       234.000         190.000
  21855782.815   -16428084.68849 -12779729.78946  21855782.696    21855789.917
       228.000         181.000
  23317023.679    -1231291.52849   -929118.46345  23317022.971    23317029.748
       217.000         159.000
  23411309.306    -8525875.05049  -6272002.40145  23411308.209    23411315.689
       211.000         154.000
  22223323.842    -9363506.50349  -7275961.12547  22223323.124    22223329.011
       233.000         189.000
  20288960.136   -28850011.50549 -22457400.36348  20288959.626    20288965.942
       244.000         214.000
  21213669.427   -14690633.49949 -11045036.03447  21213669.282    21213673.471
       242.000         205.000
 03  3 25  1 13 30.0000000  0  8G14G 3G17G 9G31G23G15G18
  20985873.384   -17156885.15249 -13346934.15247  20985872.942    20985878.502
       241.000         207.000
  21971521.437   -15392783.02049 -11979060.82547  21971521.652    21971527.950
       236.000         191.000
  21866702.333   -16370702.47149 -12735016.39546  21866701.887    21866709.311
       228.000         181.000
  23314610.058    -1243974.00249   -939000.87145  23314609.072    23314616.681
       219.000         160.000
  23400064.632    -8584966.02349  -6318047.25945  23400063.863    23400070.408
       214.000         156.000
  22232539.051    -9315079.73849  -7238225.97947  22232538.324    22232544.992
       234.000         190.000
  20290672.197   -28841014.64749 -22450389.81848  20290671.650    20290677.745
       244.000         213.000
  21221026.033   -14651974.52049 -11014912.14847  21221025.380    21221029.985
       241.000         204.000
 03  3 25  1 14  0.0000000  0  8G14G 3G17G 9G31G23G15G18
  20973817.157   -17220240.91549 -13396302.22247  20973816.639    20973822.255
       240.000         207.000
  21969126.189   -15405370.48149 -11988869.21147  21969126.400    21969132.624
       233.000         191.000
  21877688.054   -16312972.44849 -12690031.97946  21877688.022    21877694.860
       228.000         182.000
  23312299.639    -1256115.29949   -948461.55145  23312298.721    23312306.891
       218.000         161.000
  23388910.296    -8643582.61149  -6363722.48045  23388910.025    23388916.607
       218.000         159.000
  22241760.398    -9266620.62749  -7200465.63847  22241760.030    22241766.331
       233.000         190.000
  20292459.888   -28831620.18849 -22443069.46048  20292459.373    20292465.212
       244.000         213.000
  21228408.773   -14613177.62349 -10984680.79847  21228408.639    21228413.290
       241.000         204.000
 03  3 25  1 14 30.0000000  0  8G14G 3G17G 9G31G23G15G18
  20961850.086   -17283128.12049 -13445305.18847  20961849.613    20961855.096
       240.000         207.000
  21966835.769   -15417406.74549 -11998248.10947  21966835.746    21966842.038
       233.000         191.000
  21888739.993   -16254893.91349 -12644775.99746  21888739.301    21888747.213
       227.000         180.000
  23310092.415    -1267714.09149   -957499.51245  23310092.069    23310098.924
       218.000         161.000
  23377846.622    -8701723.15249  -6409026.75745  23377845.884    23377852.646
       217.000         162.000
  22250987.805    -9218129.92449  -7162680.67847  22250987.612    22250993.896
       233.000         190.000
  20294323.438   -28821827.29349 -22435438.62848  20294323.062    20294328.759
       244.000         213.000
  21235817.697   -14574243.81449 -10954342.76447  21235817.469    21235822.125
       242.000         205.000
 03  3 25  1 15  0.0000000  0  8G14G 3G17G 9G31G23G15G18
  20949972.606   -17345544.51449 -13493941.28547  20949971.986    20949977.462
       240.000         206.000
  21964650.319   -15428891.18549 -12007197.00447  21964650.319    21964656.967
       234.000         192.000
  21899858.252   -16196466.81349 -12599248.39546  21899858.094    21899864.676
       228.000         180.000
  23307988.793    -1278768.20749   -966113.04445  23307989.385    23307996.329
       218.000         161.000
  23366873.662    -8759385.23249  -6453958.21046  23366872.221    23366880.589
       217.000         164.000
  22260221.362    -9169607.53449  -7124871.03247  22260221.160    22260227.358
       234.000         190.000
  20296263.145   -28811634.15249 -22427495.91147  20296262.450    20296268.736
       243.000         212.000
  21243252.554   -14535173.22749 -10923898.14447  21243252.083    21243257.134
       241.000         204.000
 03  3 25  1 15 30.0000000  0  8G14G 3G17G 9G31G23G15G18
  20938184.807   -17407489.28449 -13542209.89547  20938184.267    20938189.623
       240.000         206.000
  21962569.872   -15439824.14649 -12015716.18247  21962569.909    21962576.691
       235.000         192.000
  21911042.856   -16137691.75549 -12553449.64946  21911042.961    21911049.332
       230.000         182.000
  23305989.035    -1289276.85749   -974301.52945  23305988.060    23305995.678
       216.000         161.000
  23355991.992    -8816567.74449  -6498515.97846  23355991.344    23355998.014
       216.000         163.000
  22269460.739    -9121054.46549  -7087037.46847  22269460.343    22269466.556
       233.000         189.000
  20298278.983   -28801040.33149 -22419240.97447  20298278.494    20298284.818
       243.000         212.000
  21250713.050   -14495967.27849 -10893348.04347  21250712.568    21250717.967
       240.000         204.000
 03  3 25  1 16  0.0000000  0  8G14G 3G17G 9G31G23G15G18
  20926487.001   -17468961.45549 -13590110.24247  20926486.845    20926491.756
       241.000         207.000
  21960594.293   -15450206.01849 -12023805.94047  21960594.187    21960600.656
       235.000         192.000
  21922293.758   -16078568.81849 -12507379.85146  21922293.692    21922301.011
       228.000         182.000
  23304093.297    -1299238.90949   -982064.11345  23304093.372    23304100.088
       218.000         161.000
  23345202.065    -8873269.11649  -6542698.82245  23345201.603    23345208.453
       217.000         162.000
  22278705.823    -9072471.51349  -7049180.62147  22278705.493    22278711.910
       233.000         189.000
  20300371.246   -28790045.31749 -22410673.42348  20300370.746    20300376.907
       244.000         213.000
  21258199.199   -14456626.96049 -10862693.24347  21258198.895    21258204.527
       240.000         204.000
 03  3 25  1 16 30.0000000  0  8G14G 3G17G 9G31G23G15G18
  20914879.522   -17529959.41249 -13637641.07547  20914879.420    20914884.016
       241.000         207.000
  21958723.544   -15460036.67349 -12031466.18147  21958723.422    21958729.959
       235.000         191.000
  21933610.581   -16019098.70949 -12461039.51846  21933609.988    21933617.222
       226.000         181.000
  23302301.901    -1308653.24149   -989399.91245  23302301.872    23302307.590
       218.000         161.000
  23334504.038    -8929487.67649  -6586505.47145  23334503.719    23334509.384
       218.000         160.000
  22287956.432    -9023859.26449  -7011300.95247  22287955.979    22287962.305
       233.000         189.000
  20302540.086   -28778648.12149 -22401792.49248  20302539.564    20302545.898
       244.000         213.000
  21265710.785   -14417153.08849 -10831934.38147  21265710.675    21265715.846
       241.000         204.000
 03  3 25  1 17  0.0000000  0  8G14G 3G17G 9G31G23G15G18
  20903362.640   -17590481.28949 -13684800.92947  20903362.024    20903367.137
       240.000         207.000
  21956957.838   -15469315.34849 -12038696.31247  21956957.824    21956963.698
       234.000         191.000
  21944993.568   -15959280.11049 -12414427.63746  21944993.377    21945000.265
       227.000         180.000
  23300615.049    -1317517.54749   -996307.10745  23300614.910    23300621.352
       218.000         160.000
  23323898.250    -8985221.04449  -6629934.05445  23323898.471    23323904.403
       220.000         161.000
  22297212.599    -8975217.63949  -6973398.38247  22297212.131    22297219.401
       232.000         189.000
  20304785.776   -28766846.95049 -22392596.76448  20304785.280    20304791.528
       244.000         213.000
  21273247.883   -14377545.56449 -10801071.37047  21273247.997    21273252.615
       241.000         203.000
 03  3 25  1 17 30.0000000  0  8G14G 3G17G 9G31G23G15G18
  20891936.431   -17650525.93849 -13731588.91247  20891935.974    20891941.118
       241.000         207.000
  21955297.085   -15478042.75649 -12045496.87447  21955296.435    21955303.337
       234.000         191.000
  21956442.993   -15899113.42449 -12367544.52746  21956442.841    21956449.083
       229.000         181.000
  23299033.006    -1325830.72949  -1002784.87045  23299032.545    23299039.527
       219.000         160.000
  23313385.229    -9040467.80749  -6672983.44846  23313384.929    23313391.819
       221.000         163.000
  22306474.224    -8926547.22749  -6935473.39447  22306473.500    22306480.814
       232.000         189.000
  20307108.482   -28754641.08949 -22383085.69148  20307107.802    20307114.047
       243.000         213.000
  21280810.214   -14337805.66949 -10770105.22847  21280810.082    21280814.227
       241.000         203.000
 03  3 25  1 18  0.0000000  0  8G14G 3G17G 9G31G23G15G18
  20880601.327   -17710092.16149 -13778004.09647  20880600.971    20880606.074
       242.000         207.000
  21953741.134   -15486218.66149 -12051867.70347  21953740.452    21953747.497
       233.000         191.000
  21967958.658   -15838598.75949 -12320390.25946  21967958.169    21967965.262
       228.000         182.000
  23297556.089    -1333591.75149  -1008832.37345  23297555.228    23297562.984
       217.000         160.000
  23302964.879    -9095226.34749  -6715652.41446  23302964.294    23302972.535
       219.000         165.000
  22315741.193    -8877848.78349  -6897526.55547  22315740.834    22315747.486
       233.000         189.000
  20309508.397   -28742029.61749 -22373258.55248  20309508.240    20309514.004
       244.000         213.000
  21288397.537   -14297934.19149 -10739036.54347  21288397.289    21288401.717
       241.000         202.000
 03  3 25  1 18 30.0000000  0  8G14G 3G17G 9G31G23G15G18
  20869357.577   -17769178.25949 -13824045.17347  20869357.195    20869361.935
       243.000         207.000
  21952290.238   -15493842.75349 -12057808.55647  21952290.206    21952296.355
       234.000         190.000
  21979540.461   -15777735.74349 -12272964.55346  21979540.051    21979546.765
       226.000         182.000
  23296184.457    -1340798.89649  -1014448.28945  23296184.427    23296190.522
       217.000         158.000
  23292637.793    -9149494.60449  -6757939.33846  23292637.013    23292645.522
       221.000         166.000
  22325013.591    -8829122.24549  -6859557.81647  22325013.115    22325019.793
       233.000         189.000
  20311985.725   -28729011.31349 -22363114.40548  20311984.706    20311991.489
       244.000         213.000
  21296009.853   -14257931.26249 -10707865.42647  21296009.439    21296014.118
       241.000         202.000
 03  3 25  1 19  0.0000000  0  8G14G 3G17G 9G31G23G15G18
  20858205.352   -17827783.64649 -13869711.66547  20858204.825    20858209.700
       242.000         207.000
  21950944.354   -15500916.04849 -12063320.21347  21950944.677    21950950.425
       235.000         191.000
  21991188.282   -15716525.40549 -12225268.18646  21991186.898    21991195.487
       225.000         181.000
  23294918.407    -1347451.80149  -1019632.34145  23294918.164    23294924.806
       219.000         158.000
  23282404.376    -9203271.66849  -6799843.51646  23282403.597    23282411.274
       220.000         166.000
  22334290.998    -8780368.79349  -6821568.10447  22334290.552    22334296.758
       232.000         188.000
  20314540.373   -28715585.81449 -22352652.97747  20314539.777    20314546.022
       243.000         212.000
  21303646.835   -14217798.64049 -10676593.25347  21303646.622    21303651.292
       241.000         202.000
 03  3 25  1 19 30.0000000  0  8G14G 3G17G 9G31G23G15G18
  20847144.786   -17885907.10649 -13915002.62047  20847144.162    20847149.227
       242.000         207.000
  21949703.190   -15507438.78149 -12068402.84847  21949702.907    21949709.411
       235.000         191.000
  22002902.238   -15654967.71349 -12177301.17346  22002901.918    22002909.264
       225.000         181.000
  23293758.111    -1353549.52449  -1024383.74745  23293757.187    23293765.013
       218.000         159.000
  23272264.721    -9256556.03849  -6841363.76446  23272265.126    23272272.356
       218.000         165.000
  22343573.455    -8731589.08449  -6783557.93647  22343573.296    22343579.094
       233.000         188.000
  20317172.799   -28701752.28849 -22341873.59347  20317172.434    20317178.293
       244.000         212.000
  21311308.337   -14177537.13449 -10645220.66047  21311307.909    21311312.666
       240.000         203.000
 03  3 25  1 20  0.0000000  0  8G14G 3G17G 9G31G23G15G18
  20836176.107   -17943547.38849 -13959917.07847  20836175.386    20836180.803
       242.000         208.000
  21948566.759   -15513410.73849 -12073056.32247  21948566.454    21948572.889
       234.000         190.000
  22014682.478   -15593062.79049 -12129063.60246  22014682.263    22014688.980
       225.000         180.000
  23292703.639    -1359090.46749  -1028701.30645  23292703.237    23292710.801
       218.000         160.000
  23262219.299    -9309345.89949  -6882498.68946  23262219.081    23262225.619
       220.000         164.000
  22352860.895    -8682783.46849  -6745527.58347  22352860.567    22352867.274
       233.000         189.000
  20319883.165   -28687509.36649 -22330775.19847  20319882.678    20319888.881
       244.000         212.000
  21318994.239   -14137147.08649 -10613747.88947  21318994.078    21318998.968
       240.000         202.000
 03  3 25  1 20 30.0000000  0  8G14G 3G17G 9G31G23G15G18
  20825299.643   -18000703.21549 -14004454.04847  20825299.125    20825304.315
       243.000         209.000
  21947535.040   -15518832.28449 -12077280.91247  21947534.538    21947541.610
       234.000         191.000
  22026528.761   -15530810.66049 -12080555.47546  22026528.352    22026535.539
       224.000         180.000
  23291755.255    -1364073.55949  -1032584.19345  23291755.353    23291761.310
       219.000         160.000
  23252268.274    -9361639.83749  -6923247.18446  23252267.590    23252274.609
       220.000         163.000
  22362153.124    -8633952.58349  -6707477.54747  22362152.934    22362159.146
       234.000         189.000
  20322671.478   -28672856.57649 -22319357.42847  20322670.718    20322676.889
       243.000         212.000
  21326704.450   -14096629.55749 -10582175.79447  21326704.470    21326709.336
       241.000         202.000
 03  3 25  1 21  0.0000000  0  8G14G 3G17G 9G31G23G15G18
  20814515.745   -18057372.74749 -14048612.07647  20814515.261    20814520.474
       242.000         209.000
  21946608.150   -15523703.02949 -12081076.30347  21946608.239    21946614.656
       234.000         191.000
  22038440.941   -15468210.76149 -12031776.34746  22038439.316    22038447.661
       224.000         180.000
  23290913.327    -1368497.23249  -1036031.14745  23290913.266    23290921.193
       220.000         161.000
  23242411.739    -9413435.75449  -6963607.60945  23242410.594    23242419.596
       217.000         162.000
  22371450.343    -8585096.12949  -6669407.57247  22371450.187    22371456.179
       234.000         189.000
  20325538.032   -28657792.43249 -22307619.12248  20325537.483    20325543.566
       243.000         213.000
  21334438.988   -14055984.68649 -10550504.46547  21334438.935    21334443.777
       241.000         203.000
 03  3 25  1 21 30.0000000  0  8G14G 3G17G 9G31G23G15G18
  20803824.607   -18113554.74149 -14092390.20447  20803823.972    20803829.134
       242.000         208.000
  21945786.119   -15528022.93749 -12084442.46647  21945785.519    21945792.078
       234.000         191.000
  22050419.310   -15405263.25949 -11982726.35946  22050419.352    22050426.199
       226.000         180.000
  23290178.270    -1372360.12449  -1039041.15745  23290178.475    23290184.976
       221.000         162.000
  23232650.151    -9464731.85349  -7003578.57345  23232649.651    23232656.750
       217.000         160.000
  22380752.225    -8536214.31749  -6631317.84046  22380752.088    22380757.897
       233.000         187.000
  20328483.160   -28642315.70049 -22295559.31748  20328482.614    20328488.916
       244.000         213.000
  21342197.654   -14015212.79449 -10518734.15947  21342197.444    21342202.226
       240.000         202.000
 03  3 25  1 22  0.0000000  0  8G14G 3G17G 9G31G23G15G18
  20793226.177   -18169248.88149 -14135788.19147  20793225.619    20793230.955
       242.000         208.000
  21945068.607   -15531793.30549 -12087380.40847  21945067.936    21945075.010
       233.000         190.000
  22062463.824   -15341969.22449 -11933406.34446  22062464.624    22062470.953
       226.000         180.000
  23289549.901    -1375662.08649  -1041614.06745  23289549.990    23289556.967
       219.000         162.000
  23222984.003    -9515527.41049  -7043159.51345  23222983.083    23222990.165
       219.000         158.000
  22390058.766    -8487308.43949  -6593209.34646  22390058.095    22390063.978
       233.000         186.000
  20331506.828   -28626426.47249 -22283178.09048  20331506.471    20331512.614
       244.000         213.000
  21349980.075   -13974315.63849 -10486866.24247  21349979.936    21349985.001
       240.000         202.000
 03  3 25  1 22 30.0000000  0  8G14G 3G17G 9G31G23G15G18
  20782720.932   -18224453.85449 -14178805.01847  20782720.562    20782726.082
       242.000         209.000
  21944455.678   -15535014.24149 -12089890.22647  21944455.460    21944462.347
       235.000         191.000
  22074574.384   -15278328.67449 -11883816.33346  22074574.230    22074581.218
       225.000         180.000
  23289028.433    -1378401.87749  -1043748.92246  23289028.861    23289035.019
       219.000         163.000
  23213413.514    -9565820.75449  -7082349.10045  23213414.188    23213419.806
       220.000         159.000
  22399369.623    -8438378.87749  -6555082.41146  22399368.810    22399375.225
       230.000         184.000
  20334609.201   -28610123.75349 -22270474.65948  20334608.543    20334614.746
       244.000         213.000
  21357786.322   -13933293.64149 -10454901.04347  21357786.022    21357791.244
       240.000         203.000
 03  3 25  1 23  0.0000000  0  8G14G 3G17G 9G31G23G15G18
  20772309.078   -18279168.51549 -14221439.77147  20772308.740    20772314.112
       242.000         209.000
  21943947.233   -15537686.05249 -12091972.15947  21943946.922    21943953.481
       234.000         191.000
  22086750.720   -15214342.01349 -11833956.63246  22086750.361    22086757.476
       225.000         178.000
  23288614.303    -1380578.50649  -1045444.94746  23288614.847    23288620.898
       221.000         164.000
  23203938.730    -9615610.64349  -7121146.38245  23203937.508    23203944.538
       218.000         160.000
  22408684.885    -8389426.11549  -6516937.39446  22408684.531    22408690.623
       231.000         184.000
  20337790.276   -28593406.89049 -22257448.52748  20337789.401    20337795.930
       243.000         213.000
  21365616.213   -13892147.55949 -10422839.15147  21365615.642    21365620.581
       240.000         203.000
 03  3 25  1 23 30.0000000  0  8G14G 3G17G 9G31G23G15G18
  20761990.691   -18333392.18649 -14263691.93947  20761990.303    20761995.415
       242.000         209.000
  21943543.156   -15539809.29449 -12093626.63647  21943542.831    21943550.036
       233.000         191.000
  22098992.746   -15150009.58349 -11783827.49446  22098992.236    22098999.507
       226.000         177.000
  23288307.528    -1382191.36149  -1046701.67545  23288307.560    23288313.927
       219.000         162.000
  23194560.017    -9664895.64349  -7159550.25445  23194559.880    23194567.117
       217.000         162.000
  22418004.544    -8340450.54449  -6478774.61246  22418003.909    22418010.239
       230.000         184.000
  20341050.287   -28576275.07049 -22244099.05047  20341049.524    20341055.732
       244.000         212.000
  21373469.428   -13850878.24949 -10390681.23947  21373468.795    21373473.981
       239.000         202.000
 03  3 25  1 24  0.0000000  0  8G14G 3G17G 9G31G23G15G18
  20751765.875   -18387123.87649 -14305560.74047  20751765.552    20751770.636
       242.000         209.000
  21943243.342   -15541384.48049 -12094854.04547  21943242.889    21943249.921
       233.000         190.000
  22111300.642   -15085331.58349 -11733429.06346  22111300.065    22111307.301
       226.000         177.000
  23288108.030    -1383239.46649  -1047518.30545  23288107.958    23288114.305
       219.000         162.000
  23185277.758    -9713674.66349  -7197559.84646  23185278.516    23185284.879
       221.000         164.000
  22427328.486    -8291452.95249  -6440594.64846  22427327.934    22427334.450
       232.000         185.000
  20344389.413   -28558727.71049 -22230425.77447  20344388.943    20344394.815
       244.000         212.000
  21381345.867   -13809486.92349 -10358428.25347  21381345.183    21381350.720
       239.000         202.000
 03  3 25  1 24 30.0000000  0  8G14G 3G17G 9G31G23G15G18
  20741634.997   -18440361.95049 -14347044.91047  20741634.545    20741639.634
       242.000         209.000
  21943047.789   -15542411.55449 -12095654.37147  21943047.634    21943054.446
       233.000         190.000
  22123674.266   -15020307.77749 -11682761.16946  22123673.699    22123681.113
       224.000         176.000
  23288016.235    -1383721.37749  -1047893.77845  23288016.312    23288022.100
       216.000         162.000
  23176092.104    -9761945.69049  -7235173.61146  23176091.286    23176099.962
       218.000         165.000
  22436656.641    -8242433.13749  -6402397.39446  22436656.246    22436662.601
       231.000         185.000
  20347807.968   -28540763.44649 -22216427.63947  20347807.626    20347813.313
       245.000         212.000
  21389245.611   -13767973.44549 -10326080.08947  21389245.284    21389250.098
       240.000         202.000
 03  3 25  1 25  0.0000000  0  8G14G 3G17G 9G31G23G15G18
  20731598.357   -18493104.59249 -14388143.03347  20731598.213    20731603.002
       242.000         210.000
  21942956.768   -15542890.25249 -12096027.37547  21942956.467    21942963.671
       233.000         190.000
  22136113.791   -14954937.74949 -11631823.51546  22136113.048    22136121.333
       224.000         176.000
  23288032.383    -1383635.65049  -1047826.90945  23288032.680    23288038.531
       218.000         161.000
  23167003.227    -9809706.55649  -7272389.84546  23167002.868    23167010.055
       217.000         166.000
  22445989.013    -8193390.73149  -6364182.52946  22445988.426    22445995.056
       231.000         185.000
  20351306.151   -28522380.72949 -22202103.43648  20351305.754    20351311.610
       244.000         213.000
  21397168.693   -13726337.61649 -10293636.57347  21397168.558    21397173.477
       240.000         202.000
 03  3 25  1 25 30.0000000  0  8G14G 3G17G 9G31G23G15G18
  20721656.166   -18545351.29749 -14428854.71047  20721655.746    20721660.815
       241.000         210.000
  21942969.870   -15542821.30749 -12095973.64047  21942969.059    21942976.697
       232.000         190.000
  22148619.033   -14889221.93949 -11580616.40846  22148618.321    22148626.654
       224.000         176.000
  23288156.923    -1382981.82449  -1047317.38645  23288158.114    23288162.036
       219.000         162.000
  23158011.711    -9856956.18249  -7309207.70346  23158011.282    23158018.801
       220.000         166.000
  22455325.576    -8144326.56649  -6325950.71346  22455324.952    22455331.709
       231.000         184.000
  20354884.011   -28503578.94949 -22187452.69147  20354883.148    20354889.482
       243.000         212.000
  21405114.826   -13684580.56449 -10261098.60247  21405114.558    21405119.788
       240.000         202.000
 03  3 25  1 26  0.0000000  0  8G14G 3G17G 9G31G23G15G18
  20711808.456   -18597101.42049 -14469179.43647  20711807.924    20711813.008
       241.000         210.000
  21943086.924   -15542205.42449 -12095493.72847  21943086.877    21943093.312
       232.000         190.000
  22161189.899   -14823161.34149 -11529140.62446  22161189.398    22161197.072
       224.000         177.000
  23288389.616    -1381759.34449  -1046364.76645  23288389.284    23288395.906
       219.000         161.000
  23149117.906    -9903693.69949  -7345626.51746  23149117.459    23149125.363
       220.000         166.000
  22464666.059    -8095241.51249  -6287702.61746  22464665.196    22464672.341
       230.000         184.000
  20358541.518   -28484357.99149 -22172475.32347  20358540.915    20358547.232
       243.000         212.000
  21413083.796   -13642703.44149 -10228467.07147  21413083.611    21413088.498
       240.000         203.000
 03  3 25  1 26 30.0000000  0  8G14G 3G17G 9G31G23G15G18
  20702055.386   -18648353.92249 -14509116.41847  20702054.896    20702060.159
       241.000         211.000
  21943308.115   -15541042.98549 -12094587.92947  21943308.364    21943314.539
       233.000         190.000
  22173826.470   -14756755.77549 -11477396.04246  22173826.309    22173833.810
       224.000         177.000
  23288730.499    -1379967.29449  -1044968.32646  23288730.028    23288736.640
       218.000         163.000
  23140321.712    -9949917.69849  -7381645.18346  23140321.789    23140329.105
       222.000         166.000
  22474010.633    -8046135.76949  -6249438.39746  22474010.926    22474017.461
       233.000         185.000
  20362279.082   -28464716.89249 -22157170.57547  20362278.458    20362284.492
       244.000         212.000
  21421075.486   -13600706.95549 -10195742.53147  21421075.238    21421080.020
       241.000         202.000
 03  3 25  1 27  0.0000000  0  8G14G 3G17G 9G31G23G15G18
  20692397.117   -18699108.20349 -14548665.16047  20692396.542    20692401.814
       240.000         211.000
  21943633.277   -15539334.94149 -12093256.97847  21943633.069    21943639.492
       233.000         191.000
  22186528.490   -14690006.42249 -11425383.57846  22186527.497    22186535.736
       223.000         175.000
  23289179.894    -1377605.17549  -1043127.66746  23289179.716    23289185.866
       217.000         163.000
  23131623.563    -9995627.34549  -7417263.04946  23131623.490    23131630.504
       221.000         167.000
  22483359.146    -7997010.18449  -6211158.72246  22483358.875    22483364.876
       232.000         185.000
  20366096.679   -28444655.25349 -22141538.12847  20366095.985    20366101.950
       243.000         212.000
  21429089.621   -13558592.18749 -10162925.81847  21429088.960    21429094.073
       240.000         202.000
 03  3 25  1 27 30.0000000  0  8G14G 3G17G 9G31G23G15G18
  20682833.824   -18749363.06949 -14587824.74947  20682833.282    20682838.413
       241.000         210.000
  21944062.011   -15537081.50349 -12091501.04347  21944061.712    21944068.855
       232.000         191.000
  22199295.892   -14622913.02849 -11373103.02746  22199295.388    22199302.684
       223.000         174.000
  23289737.983    -1374671.94349  -1040841.99246  23289738.020    23289744.413
       219.000         163.000
  23123023.561   -10040821.02949  -7452478.86946  23123021.995    23123030.475
       219.000         166.000
  22492711.262    -7947864.68649  -6172863.52446  22492711.140    22492717.377
       231.000         185.000
  20369994.387   -28424172.50149 -22125577.53947  20369993.737    20370000.126
       244.000         212.000
  21437126.239   -13516359.20949 -10130016.99547  21437125.677    21437130.789
       239.000         201.000
 03  3 25  1 28  0.0000000  0  8G14G 3G17G 9G31G23G15G18
  20673365.810   -18799117.46649 -14626594.37647  20673365.327    20673370.495
       241.000         211.000
  21944594.439   -15534283.41949 -12089320.70847  21944594.174    21944601.198
       234.000         191.000
  22212128.697   -14555475.69049 -11320554.46146  22212127.914    22212135.210
       225.000         175.000
  23290404.957    -1371167.25849  -1038111.03846  23290404.938    23290411.786
       217.000         163.000
  23114521.897   -10085497.48549  -7487291.66046  23114521.650    23114527.663
       220.000         165.000
  22502067.124    -7898699.68949  -6134553.13946  22502066.494    22502073.288
       232.000         184.000
  20373972.431   -28403267.72049 -22109288.10347  20373971.803    20373978.031
       244.000         212.000
  21445185.202   -13474008.78049 -10097016.66147  21445184.877    21445189.788
       240.000         201.000
 03  3 25  1 28 30.0000000  0  8G14G 3G17G 9G31G23G15G18
  20663993.181   -18848370.99549 -14664973.70547  20663992.975    20663997.844
       241.000         211.000
  21945230.457   -15530941.50749 -12086716.61147  21945230.183    21945236.955
       235.000         191.000
  22225026.908   -14487695.58849 -11267738.79846  22225026.155    22225033.465
       224.000         175.000
  23291180.746    -1367090.44449  -1034934.24545  23291180.171    23291186.298
       217.000         162.000
  23106118.938   -10129655.67649  -7521700.59346  23106118.617    23106124.517
       221.000         165.000
  22511426.571    -7849515.81849  -6096228.03946  22511426.314    22511433.050
       231.000         185.000
  20378030.917   -28381940.36349 -22092669.38047  20378030.753    20378036.453
       244.000         212.000
  21453266.352   -13431541.75149 -10063925.46447  21453266.323    21453271.106
       240.000         202.000
 03  3 25  1 29  0.0000000  0  8G14G 3G17G 9G31G23G15G18
  20654716.116   -18897122.42549 -14702961.79647  20654715.748    20654720.848
       241.000         211.000
  21945969.881   -15527056.09649 -12083688.99847  21945969.382    21945976.515
       234.000         191.000
  22237990.421   -14419572.39749 -11214655.82046  22237989.960    22237998.307
       225.000         175.000
  23292065.585    -1362440.28149  -1031310.69446  23292064.889    23292071.750
       217.000         163.000
  23097814.753   -10173294.00249  -7555704.45446  23097814.216    23097820.777
       219.000         165.000
  22520789.458    -7800312.74349  -6057887.97946  22520788.652    22520795.725
       230.000         184.000
  20382170.081   -28360189.42349 -22075720.58348  20382169.538    20382175.487
       244.000         213.000
  21461369.782   -13388958.29649 -10030743.54547  21461369.563    21461374.276
       240.000         202.000
 03  3 25  1 29 30.0000000  0  8G14G 3G17G 9G31G23G15G18
  20645534.782   -18945370.38049 -14740557.56447  20645534.274    20645539.563
       241.000         211.000
  21946812.622   -15522627.34549 -12080238.02347  21946812.788    21946819.140
       235.000         191.000
  22251019.269   -14351105.94449 -11161305.35546  22251018.700    22251026.626
       224.000         174.000
  23293059.625    -1357215.91249  -1027239.71645  23293058.641    23293067.007
       214.000         162.000
  23089609.812   -10216410.88349  -7589301.98346  23089609.556    23089615.801
       218.000         165.000
  22530156.008    -7751090.47649  -6019532.95946  22530155.158    22530162.138
       230.000         183.000
  20386389.929   -28338013.76849 -22058440.84447  20386389.146    20386395.318
       244.000         212.000
  21469495.310   -13346258.79349  -9997471.20247  21469495.258    21469500.064
       241.000         202.000
 03  3 25  1 30  0.0000000  0  8G14G 3G17G 9G31G23G15G18
  20636449.314   -18993114.58049 -14777760.79747  20636448.854    20636454.051
       241.000         211.000
  21947758.608   -15517656.34949 -12076364.51047  21947758.453    21947764.741
       233.000         191.000
  22264113.010   -14282297.69049 -11107688.55746  22264112.226    22264118.961
       220.000         174.000
  23294162.936    -1351417.35149  -1022721.31545  23294163.196    23294169.208
       217.000         161.000
  23081504.273   -10259005.65349  -7622492.66546  23081504.397    23081510.319
       222.000         164.000
  22539526.200    -7701849.93149  -5981163.70546  22539525.801    22539532.681
       232.000         184.000
  20390690.598   -28315413.29749 -22040830.08147  20390689.969    20390696.061
       243.000         212.000
  21477642.662   -13303444.28849  -9964109.24847  21477642.268    21477647.165
       240.000         202.000
 03  3 25  1 30 30.0000000  0  8G14G 3G17G 9G31G23G15G18
  20627459.890   -19040354.20049 -14814570.85347  20627459.487    20627464.585
       242.000         211.000
  21948807.537   -15512143.76449 -12072068.98147  21948806.887    21948813.941
       234.000         190.000
  22277271.820   -14213147.52349 -11053805.31646  22277271.376    22277278.601
       223.000         174.000
  23295375.857    -1345043.86949  -1017754.93145  23295375.707    23295383.506
       212.000         161.000
  23073498.429   -10301077.20049  -7655275.65046  23073498.439    23073504.537
       222.000         164.000
  22548899.729    -7652591.45649  -5942780.47646  22548898.872    22548905.975
       232.000         183.000
  20395072.293   -28292387.25549 -22022887.71147  20395072.065    20395077.840
       244.000         212.000
  21485811.719   -13260515.50849  -9930658.23247  21485811.252    21485816.476
       242.000         201.000
 03  3 25  1 31  0.0000000  0  8G14G 3G17G 9G31G23G15G18
  20618566.612   -19087088.50549 -14850987.15447  20618565.904    20618571.231
       240.000         211.000
  21949959.354   -15506090.45949 -12067352.10347  21949959.319    21949965.831
       234.000         190.000
  22290495.723   -14143655.96249 -10999656.06446  22290495.461    22290502.353
       225.000         175.000
  23296698.172    -1338094.75749  -1012339.99645  23296698.301    23296704.144
       213.000         160.000
  23065592.502   -10342624.27349  -7687649.96446  23065592.583    23065598.936
       222.000         166.000
  22558276.693    -7603315.24749  -5904383.40446  22558276.230    22558282.948
       231.000         183.000
  20399535.170   -28268934.94749 -22004613.17247  20399534.746    20399540.726
       244.000         212.000
  21494002.476   -13217472.96249  -9897118.58447  21494002.182    21494007.380
       240.000         201.000
 03  3 25  1 31 30.0000000  0  8G14G 3G17G 9G31G23G15G18
  20609769.581   -19133316.67249 -14887009.06847  20609769.034    20609774.159
       240.000         211.000
  21951213.990   -15499497.13349 -12062214.44147  21951213.951    21951220.745
       234.000         190.000
  22303784.582   -14073823.21649 -10945240.94546  22303784.421    22303791.920
       225.000         176.000
  23298130.228    -1330569.45649  -1006476.07945  23298129.481    23298136.046
       213.000         160.000
  23057786.331   -10383645.67149  -7719614.64746  23057784.638    23057791.793
       220.000         165.000
  22567657.063    -7554021.58149  -5865972.74446  22567656.616    22567663.104
       231.000         183.000
  20404079.141   -28245055.78849 -21986006.03047  20404078.400    20404084.946
       243.000         212.000
  21502214.760   -13174317.15749  -9863490.67347  21502214.607    21502219.547
       240.000         201.000
 03  3 25  1 32  0.0000000  0  8G14G 3G17G 9G31G23G15G18
  20601069.132   -19179037.62349 -14922635.73947  20601068.817    20601073.512
       241.000         211.000
  21952571.286   -15492364.17749 -12056656.28947  21952570.811    21952577.995
       233.000         190.000
  22317138.130   -14003649.97149 -10890560.50246  22317137.747    22317144.134
       225.000         174.000
  23299671.734    -1322467.31549  -1000162.66145  23299671.193    23299678.419
       213.000         159.000
  23050080.055   -10424140.08349  -7751168.69346  23050078.383    23050086.075
       218.000         164.000
  22577040.567    -7504710.47049  -5827548.49046  22577039.911    22577046.339
       230.000         183.000
  20408704.481   -28220749.12749 -21967065.77047  20408703.718    20408710.238
       243.000         212.000
  21510448.463   -13131048.40449  -9829774.75347  21510447.867    21510452.868
       239.000         200.000
 03  3 25  1 32 30.0000000  0  8G14G 3G17G 9G31G23G15G18
  20592465.486   -19224250.06449 -14957866.17947  20592465.133    20592469.770
       241.000         211.000
  21954031.294   -15484691.63149 -12050677.67447  21954031.190    21954038.259
       234.000         190.000
  22330556.508   -13933135.31849 -10835614.03446  22330555.678    22330563.629
       224.000         172.000
  23301323.279    -1313786.97549   -993398.73945  23301323.200    23301329.533
       214.000         159.000
  23042474.632   -10464105.53849  -7782310.57646  23042474.897    23042481.586
       220.000         165.000
  22586427.517    -7455381.28749  -5789110.16746  22586427.222    22586433.960
       230.000         183.000
  20413411.527   -28196013.26949 -21947791.05947  20413411.000    20413417.054
       243.000         212.000
  21518703.643   -13087666.77849  -9795970.87947  21518703.132    21518707.842
       239.000         200.000
 03  3 25  1 33  0.0000000  0  8G14G 3G17G 9G31G23G15G18
  20583958.457   -19268954.54549 -14992700.80447  20583958.072    20583962.710
       240.000         211.000
  21955593.623   -15476481.80349 -12044280.39747  21955593.349    21955600.480
       233.000         190.000
  22344039.534   -13862281.25849 -10780403.07946  22344038.904    22344046.307
       224.000         171.000
  23303084.908    -1304529.73049   -986185.25845  23303084.600    23303090.736
       216.000         160.000
  23034970.181   -10503542.64449  -7813040.74646  23034969.682    23034977.009
       221.000         165.000
  22595817.637    -7406035.94649  -5750659.24846  22595817.591    22595823.823
       231.000         183.000
  20418200.037   -28170849.37249 -21928182.82047  20418199.495    20418205.760
       244.000         212.000
  21526980.040   -13044173.89249  -9762080.31247  21526979.772    21526984.498
       240.000         200.000
 03  3 25  1 33 30.0000000  0  8G14G 3G17G 9G31G23G15G18
  20575548.231   -19313150.28449 -15027139.00747  20575548.084    20575552.810
       241.000         211.000
  21957258.094   -15467735.37249 -12037464.99247  21957258.127    21957264.947
       234.000         190.000
  22357587.016   -13791088.43249 -10724928.16346  22357586.615    22357594.118
       222.000         170.000
  23304956.504    -1294694.97049   -978521.77545  23304957.134    23304962.890
       219.000         161.000
  23027566.424   -10542450.30549  -7843358.37546  23027566.697    23027572.812
       220.000         166.000
  22605210.779    -7356674.66649  -5712195.90746  22605210.508    22605216.521
       230.000         183.000
  20423070.212   -28145256.65549 -21908240.43647  20423069.713    20423075.798
       244.000         212.000
  21535277.597   -13000570.26949  -9728103.45247  21535277.548    21535282.115
       241.000         200.000
 03  3 25  1 34  0.0000000  0  8G14G 3G17G 9G31G23G15G18
  20567235.144   -19356836.19149 -15061179.93747  20567234.960    20567239.785
       242.000         212.000
  21959024.557   -15458452.88449 -12030231.87647  21959024.324    21959031.087
       233.000         190.000
  22371198.988   -13719556.76949 -10669189.18746  22371198.991    22371205.733
       223.000         168.000
  23306938.210    -1284281.86849   -970407.61946  23306938.103    23306944.414
       218.000         163.000
  23020263.510   -10580827.13049  -7873262.35646  23020263.513    23020270.124
       221.000         166.000
  22614606.999    -7307297.22349  -5673719.96846  22614606.574    22614613.157
       231.000         183.000
  20428022.052   -28119234.46649 -21887963.39347  20428021.475    20428027.630
       243.000         212.000
  21543596.182   -12956856.13249  -9694040.48747  21543596.129    21543600.368
       240.000         200.000
 03  3 25  1 34 30.0000000  0  8G14G 3G17G 9G31G23G15G18
  20559019.298   -19400011.11249 -15094822.69648  20559018.847    20559023.837
       241.000         213.000
  21960892.943   -15448634.30949 -12022581.02947  21960892.630    21960900.057
       233.000         190.000
  22384875.475   -13647686.16049 -10613186.12346  22384874.744    22384882.282
       222.000         167.000
  23309029.991    -1273289.21349   -961841.87646  23309030.324    23309036.704
       218.000         163.000
  23013062.025   -10618671.29649  -7902751.27446  23013061.989    23013068.420
       222.000         166.000
  22624006.459    -7257902.96849  -5635230.93146  22624006.116    22624013.154
       231.000         183.000
  20433055.920   -28092781.27749 -21867350.50547  20433055.380    20433061.715
       244.000         212.000
  21551935.806   -12913031.47149  -9659891.39647  21551936.025    21551940.011
       241.000         200.000
 03  3 25  1 35  0.0000000  0  8G14G 3G17G 9G31G23G15G18
  20550900.536   -19442675.23349 -15128067.42448  20550900.078    20550904.977
       241.000         213.000
  21962863.035   -15438281.55849 -12014513.93547  21962862.986    21962869.633
       234.000         191.000
  22398616.260   -13575477.86849 -10556919.92746  22398615.701    22398621.997
       221.000         167.000
  23311231.907    -1261717.84949   -952825.18046  23311231.700    23311238.514
       216.000         163.000
  23005961.825   -10655982.78649  -7931825.13946  23005961.164    23005967.708
       221.000         167.000
  22633408.753    -7208493.18049  -5596729.78546  22633408.747    22633414.902
       230.000         183.000
  20438171.785   -28065897.51949 -21846402.11648  20438171.248    20438177.313
       244.000         213.000
  21560296.170   -12869097.62549  -9625657.22847  21560295.978    21560300.435
       241.000         200.000
 03  3 25  1 35 30.0000000  0  8G14G 3G17G 9G31G23G15G18
  20542879.169   -19484827.73949 -15160913.50148  20542878.951    20542883.581
       241.000         213.000
  21964934.657   -15427394.92849 -12006030.85147  21964934.372    21964941.212
       234.000         190.000
  22412421.100   -13502932.61749 -10500391.18646  22412420.784    22412427.789
       223.000         168.000
  23313544.088    -1249566.79149   -943356.79246  23313543.370    23313550.596
       216.000         163.000
  22998963.344   -10692760.25049  -7960482.87746  22998962.899    22998971.034
       221.000         167.000
  22642814.191    -7159067.61349  -5558216.34746  22642813.806    22642820.334
       230.000         182.000
  20443369.688   -28038582.36849 -21825117.58247  20443368.960    20443375.467
       243.000         212.000
  21568677.265   -12825054.63149  -9591338.00847  21568677.156    21568681.624
       240.000         199.000
 03  3 25  1 36  0.0000000  0  8G14G 3G17G 9G31G23G15G18
  20534955.284   -19526468.13049 -15193360.52347  20534954.777    20534959.616
       241.000         212.000
  21967107.684   -15415975.68649 -11997132.72947  21967107.298    21967114.275
       233.000         190.000
  22426290.034   -13430050.89749 -10443600.25646  22426289.963    22426297.298
       224.000         170.000
  23315966.734    -1236835.76549   -933436.48845  23315966.982    23315973.190
       218.000         162.000
  22992066.543   -10729002.92149  -7988723.87446  22992066.084    22992072.825
       219.000         169.000
  22652222.473    -7109626.64549  -5519690.90446  22652221.533    22652228.884
       228.000         182.000
  20448649.713   -28010835.30949 -21803496.49748  20448648.995    20448655.437
       243.000         213.000
  21577078.994   -12780903.22349  -9556934.30647  21577078.270    21577082.599
       239.000         198.000
 03  3 25  1 36 30.0000000  0  8G14G 3G17G 9G31G23G15G18
  20527128.798   -19567596.23049 -15225408.35547  20527128.275    20527133.177
       241.000         212.000
  21969381.778   -15404025.24949 -11987820.69747  21969381.434    21969388.426
       234.000         191.000
  22440223.077   -13356833.08949 -10386547.44146  22440222.847    22440230.407
       223.000         170.000
  23318499.803    -1223525.18749   -923064.55945  23318499.179    23318506.118
       219.000         162.000
  22985271.471   -10764710.33649  -8016547.80046  22985270.718    22985279.281
       220.000         170.000
  22661633.494    -7060171.01849  -5481154.04446  22661632.978    22661640.418
       229.000         182.000
  20454011.935   -27982656.40849 -21781538.90348  20454011.622    20454017.692
       244.000         213.000
  21585501.068   -12736644.61249  -9522447.06947  21585500.549    21585505.097
       239.000         198.000
 03  3 25  1 37  0.0000000  0  8G14G 3G17G 9G31G23G15G18
  20519399.940   -19608211.39549 -15257056.50048  20519399.595    20519404.392
       241.000         213.000
  21971756.735   -15391544.67849 -11978095.57547  21971757.079    21971763.137
       235.000         191.000
  22454219.746   -13283280.26149 -10329233.56246  22454219.168    22454226.673
       222.000         169.000
  23321143.129    -1209634.70949   -912240.79545  23321142.659    23321148.794
       217.000         162.000
  22978578.492   -10799881.60449  -8043953.95246  22978577.672    22978585.780
       221.000         169.000
  22671047.454    -7010700.79549  -5442605.81946  22671047.031    22671053.842
       229.000         183.000
  20459456.583   -27954045.09649 -21759244.37048  20459456.243    20459462.044
       244.000         213.000
  21593943.542   -12692279.06749  -9487876.50447  21593943.274    21593947.851
       239.000         198.000
 03  3 25  1 37 30.0000000  0  8G14G 3G17G 9G31G23G15G18
  20511768.982   -19648312.34349 -15288303.95048  20511768.588    20511773.403
       241.000         213.000
  21974232.702   -15378533.91749 -11967957.32447  21974232.465    21974239.112
       235.000         191.000
  22468280.264   -13209391.62849 -10271658.01246  22468279.584    22468286.728
       221.000         168.000
  23323896.788    -1195163.19549   -900964.25745  23323896.133    23323902.929
       217.000         161.000
  22971987.939   -10834514.82349  -8070940.85246  22971987.424    22971994.180
       221.000         168.000
  22680464.235    -6961215.15949  -5404045.57646  22680463.932    22680469.883
       229.000         183.000
  20464983.719   -27925000.00849 -21736611.82747  20464983.307    20464989.165
       245.000         212.000
  21602406.424   -12647806.00849  -9453222.16747  21602405.816    21602411.008
       239.000         199.000
 03  3 25  1 38  0.0000000  0  8G14G 3G17G 9G31G23G15G18
  20504235.853   -19687898.95849 -15319150.63147  20504235.193    20504240.281
       240.000         212.000
  21976809.143   -15364994.55549 -11957407.17947  21976808.582    21976815.603
       234.000         191.000
  22482404.486   -13135168.45149 -10213821.79846  22482403.556    22482411.259
       219.000         167.000
  23326761.007    -1180110.93449   -889235.19345  23326760.979    23326767.200
       217.000         160.000
  22965499.849   -10868609.76349  -8097508.31446  22965500.575    22965506.039
       222.000         168.000
  22689883.864    -6911714.81949  -5365473.87346  22689883.081    22689889.347
       228.000         182.000
  20470593.366   -27895521.18649 -21713641.30347  20470592.784    20470598.674
       244.000         212.000
  21610889.630   -12603226.51249  -9418484.88647  21610888.863    21610894.317
       238.000         198.000
 03  3 25  1 38 30.0000000  0  8G14G 3G17G 9G31G23G15G18
  20496800.623   -19726970.75249 -15349596.14547  20496800.250    20496804.947
       240.000         212.000
  21979485.864   -15350927.53949 -11946445.86447  21979485.519    21979492.484
       234.000         190.000
  22496592.186   -13060611.55749 -10155725.52446  22496591.714    22496599.759
       220.000         167.000
  23329735.749    -1164477.98049   -877053.63745  23329734.951    23329742.215
       216.000         160.000
  22959114.439   -10902165.51949  -8123655.62246  22959113.347    22959121.005
       220.000         168.000
  22699306.102    -6862199.96349  -5326890.84946  22699305.438    22699312.265
       229.000         181.000
  20476285.567   -27865608.13949 -21690332.42747  20476284.673    20476291.000
       243.000         211.000
  21619392.875   -12558541.12549  -9383665.09447  21619392.296    21619397.760
       239.000         197.000
 03  3 25  1 39  0.0000000  0  8G14G 3G17G 9G31G23G15G18
  20489463.520   -19765527.48949 -15379640.32148  20489463.340    20489467.834
       241.000         213.000
  21982262.861   -15336334.24249 -11935074.47047  21982263.096    21982269.228
       235.000         190.000
  22510843.300   -12985721.90049 -10097369.97546  22510843.337    22510850.890
       222.000         167.000
  23332821.043    -1148263.93749   -864419.27845  23332820.564    23332828.254
       218.000         160.000
  22952831.720   -10935181.36249  -8149382.23646  22952831.555    22952838.400
       221.000         168.000
  22708731.060    -6812670.78349  -5288296.67346  22708730.133    22708737.210
       227.000         181.000
  20482060.450   -27835260.57749 -21666684.97147  20482059.755    20482066.198
       244.000         211.000
  21627916.187   -12513750.27349  -9348763.12147  21627915.726    21627920.990
       237.000         197.000
 03  3 25  1 39 30.0000000  0  8G14G 3G17G 9G31G23G15G18
  20482224.526   -19803568.65749 -15409282.75348  20482223.802    20482228.847
       240.000         213.000
  21985139.852   -15321215.70849 -11923293.79547  21985139.485    21985145.848
       233.000         190.000
  22525157.675   -12910499.91849 -10038755.45946  22525157.948    22525164.876
       221.000         168.000
  23336017.146    -1131468.89849   -851332.20145  23336017.701    23336023.656
       218.000         159.000
  22946651.814   -10967656.66949  -8174687.65946  22946651.634    22946658.529
       220.000         169.000
  22718158.659    -6763127.56049  -5249691.55646  22718157.497    22718165.521
       227.000         180.000
  20487918.152   -27804478.14249 -21642698.64447  20487917.460    20487923.551
       243.000         211.000
  21636459.579   -12468854.60349  -9313779.47447  21636459.541    21636464.106
       238.000         196.000
 03  3 25  1 40  0.0000000  0  8G14G 3G17G 9G31G23G15G18
  20475083.510   -19841094.19649 -15438523.38948  20475083.075    20475088.062
       240.000         213.000
  21988116.413   -15305573.07449 -11911104.73347  21988115.974    21988122.545
       233.000         189.000
  22539535.131   -12834946.05949  -9979882.32146  22539534.555    22539541.798
       220.000         168.000
  23339323.813    -1114093.00249   -837792.51345  23339322.823    23339329.394
       216.000         159.000
  22940574.933   -10999590.96549  -8199571.48946  22940575.050    22940581.520
       220.000         169.000
  22727589.043    -6713570.77349  -5211075.88146  22727588.368    22727595.548
       227.000         180.000
  20493858.609   -27773260.57549 -21618373.25447  20493857.817    20493863.926
       244.000         210.000
  21645022.839   -12423854.72049  -9278714.61147  21645022.513    21645027.001
       238.000         196.000
 03  3 25  1 40 30.0000000  0  8G14G 3G17G 9G31G23G15G18
  20468040.965   -19878102.99049 -15467361.38148  20468040.800    20468045.389
       241.000         213.000
  21991192.678   -15289407.00649 -11898507.79447  21991192.144    21991199.079
       234.000         189.000
  22553975.508   -12759060.82449  -9920750.98246  22553974.418    22553982.856
       221.000         167.000
  23342741.008    -1096135.47649   -823799.60345  23342740.817    23342748.573
       217.000         160.000
  22934601.257   -11030982.74149  -8224032.56946  22934600.816    22934608.014
       219.000         169.000
  22737022.078    -6663999.75349  -5172449.11746  22737021.667    22737028.546
       228.000         180.000
  20499882.092   -27741607.11949 -21593708.21647  20499881.907    20499887.562
       245.000         211.000
  21653605.899   -12378750.46449  -9243568.42447  21653605.631    21653609.682
       238.000         196.000
 03  3 25  1 41  0.0000000  0  8G14G 3G17G 9G31G23G15G18
  20461096.857   -19914594.55249 -15495796.33348  20461096.648    20461101.164
       241.000         213.000
  21994368.419   -15272718.66549 -11885503.89147  21994368.446    21994375.123
       234.000         189.000
  22568478.975   -12682844.64049  -9861361.75846  22568479.007    22568486.146
       220.000         167.000
  23346268.864    -1077596.39849   -809353.52845  23346268.115    23346274.238
       216.000         160.000
  22928730.950   -11061831.21749  -8248070.31546  22928730.250    22928737.055
       221.000         169.000
  22746457.890    -6614414.59249  -5133811.31646  22746458.145    22746463.819
       230.000         181.000
  20505988.642   -27709517.31749 -21568703.17047  20505988.050    20505994.093
       244.000         212.000
  21662208.684   -12333542.25149  -9208341.23047  21662208.115    21662212.824
       238.000         196.000
 03  3 25  1 41 30.0000000  0  8G14G 3G17G 9G31G23G15G18
  20454251.188   -19950568.99449 -15523828.33148  20454250.737    20454255.685
       241.000         213.000
  21997643.201   -15255509.58149 -11872094.21647  21997642.809    21997649.940
       233.000         189.000
  22583045.313   -12606298.37149  -9801715.32346  22583044.813    22583051.766
       222.000         167.000
  23349907.017    -1058476.29949   -794454.70245  23349906.216    23349913.034
       216.000         159.000
  22922964.198   -11092136.35949  -8271684.68246  22922963.952    22922970.760
       222.000         169.000
  22755896.358    -6564815.84249  -5095162.92346  22755896.151    22755902.618
       229.000         181.000
  20512178.103   -27676991.22549 -21543358.14947  20512177.415    20512183.695
       244.000         212.000
  21670831.055   -12288230.98949  -9173033.73147  21670830.836    21670835.203
       238.000         196.000
 03  3 25  1 42  0.0000000  0  8G14G 3G17G 9G31G23G15G18
  20447503.873   -19986025.87349 -15551457.03248  20447503.458    20447508.189
       240.000         213.000
  22001016.796   -15237780.74649 -11858279.53647  22001016.943    22001023.454
       233.000         189.000
  22597674.427   -12529422.61649  -9741812.14446  22597674.446    22597680.911
       222.000         168.000
  23353655.953    -1038774.89549   -779102.90545  23353655.601    23353662.716
       217.000         159.000
  22917300.900   -11121897.10549  -8294874.83846  22917300.423    22917307.281
       222.000         169.000
  22765337.368    -6515203.39549  -5056503.86046  22765336.885    22765342.666
       230.000         181.000
  20518450.695   -27644028.38349 -21517672.81647  20518450.153    20518456.109
       244.000         211.000
  21679473.035   -12242816.86149  -9137646.08547  21679472.833    21679477.705
       237.000         195.000
 03  3 25  1 42 30.0000000  0  8G14G 3G17G 9G31G23G15G18
  20440855.053   -20020965.35149 -15578682.56348  20440854.601    20440859.366
       241.000         213.000
  22004489.136   -15219533.74549 -11844061.08647  22004489.169    22004495.615
       234.000         189.000
  22612365.779   -12452218.77249  -9681653.31846  22612365.475    22612372.363
       220.000         167.000
  23357515.530    -1018492.59149   -763298.47445  23357515.099    23357521.830
       216.000         158.000
  22911741.148   -11151113.16349  -8317640.56646  22911740.442    22911747.735
       222.000         170.000
  22774780.867    -6465577.49949  -5017834.32346  22774780.677    22774786.787
       229.000         180.000
  20524806.482   -27610628.66949 -21491647.06347  20524805.903    20524811.878
       244.000         211.000
  21688134.471   -12197300.30549  -9102178.62147  21688133.687    21688139.157
       237.000         195.000
 03  3 25  1 43  0.0000000  0  8G14G 3G17G 9G31G23G15G18
  20434304.960   -20055386.19349 -15605503.97148  20434304.495    20434309.574
       241.000         213.000
  22008059.928   -15200769.25149 -11829439.39747  22008059.787    22008066.920
       234.000         189.000
  22627119.564   -12374686.46249  -9621238.55546  22627118.532    22627126.948
       221.000         167.000
  23361485.908     -997628.67949   -747040.83845  23361486.749    23361493.341
       219.000         159.000
  22906285.364   -11179783.17249  -8339980.78646  22906284.489    22906291.565
       222.000         170.000
  22784227.016    -6415937.51549  -4979153.80146  22784226.628    22784233.093
       229.000         179.000
  20531245.624   -27576790.86149 -21465279.93247  20531244.905    20531250.845
       244.000         211.000
  21696815.407   -12151681.16549  -9066631.22947  21696815.437    21696820.288
       237.000         195.000
 03  3 25  1 43 30.0000000  0  8G14G 3G17G 9G31G23G15G18
  20427853.502   -20089288.56649 -15631921.37148  20427853.022    20427858.164
       240.000         213.000
  22011728.774   -15181489.18549 -11814415.97847  22011728.647    22011735.790
       233.000         190.000
  22641935.693   -12296827.11749  -9560568.94646  22641935.384    22641942.595
       221.000         166.000
  23365566.804     -976184.04749   -730330.70345  23365566.145    23365573.423
       217.000         159.000
  22900933.526   -11207907.40549  -8361895.74546  22900932.894    22900939.278
       222.000         169.000
  22793675.704    -6366284.33449  -4940462.99246  22793674.827    22793681.954
       228.000         178.000
  20537768.053   -27542515.32249 -21438571.71247  20537767.340    20537773.617
       243.000         211.000
  21705515.682   -12105960.69149  -9031004.87347  21705515.145    21705520.396
       237.000         195.000
 03  3 25  1 44  0.0000000  0  8G14G 3G17G 9G31G23G15G18
  20421500.854   -20122672.11549 -15657934.49348  20421500.839    20421505.447
       241.000         214.000
  22015495.612   -15161694.22249 -11798991.32747  22015495.390    22015502.262
       234.000         190.000
  22656814.062   -12218641.12549  -9499644.82846  22656813.994    22656821.207
       221.000         167.000
  23369758.108     -954158.32049   -713167.77945  23369757.304    23369764.674
       218.000         160.000
  22895685.546   -11235484.63949  -8383384.47846  22895684.547    22895691.655
       223.000         170.000
  22803126.908    -6316617.64649  -4901761.66646  22803126.084    22803132.814
       227.000         177.000
  20544373.818   -27507801.50849 -21411521.98147  20544372.937    20544379.569
       243.000         211.000
  21714235.257   -12060138.91349  -8995299.57447  21714234.938    21714239.605
       238.000         195.000
 03  3 25  1 44 30.0000000  0  8G14G 3G17G 9G31G23G15G18
  20415246.976   -20155536.75349 -15683543.26548  20415246.569    20415251.175
       241.000         214.000
  22019360.174   -15141386.00249 -11783166.73947  22019360.404    22019367.082
       234.000         190.000
  22671754.473   -12140129.30549  -9438466.78846  22671753.761    22671762.025
       221.000         167.000
  23374059.858     -931551.90949   -695552.35345  23374059.475    23374066.692
       217.000         160.000
  22890541.903   -11262514.57549  -8404446.73546  22890541.908    22890547.789
       224.000         171.000
  22812580.635    -6266937.61649  -4863049.94046  22812579.530    22812585.715
       226.000         177.000
  20551062.991   -27472649.55949 -21384130.84847  20551062.475    20551068.650
       244.000         211.000
  21722974.086   -12014216.04149  -8959515.49947  21722974.278    21722978.562
       238.000         195.000
 03  3 25  1 45  0.0000000  0  8G14G 3G17G 9G31G23G15G18
  20409091.803   -20187882.18749 -15708747.46548  20409091.350    20409095.833
       240.000         213.000
  22023322.145   -15120565.67049 -11766943.09947  22023321.981    22023329.428
       233.000         190.000
  22686756.525   -12061292.76049  -9377035.72846  22686755.526    22686763.576
       220.000         167.000
  23378472.175     -908364.90249   -677484.53745  23378472.121    23378478.707
       219.000         160.000
  22885502.601   -11288996.72249  -8425082.13746  22885503.296    22885508.856
       223.000         171.000
  22822036.931    -6217244.20649  -4824327.79646  22822036.753    22822042.901
       228.000         178.000
  20557835.728   -27437058.92549 -21356397.87847  20557835.297    20557841.192
       244.000         212.000
  21731732.181   -11968192.68249  -8923653.12847  21731732.085    21731736.244
       239.000         196.000
 03  3 25  1 45 30.0000000  0  8G14G 3G17G 9G31G23G15G18
  20403035.508   -20219708.07649 -15733546.83148  20403035.123    20403039.848
       241.000         213.000
  22027381.331   -15099234.66049 -11750321.53647  22027381.081    22027388.308
       234.000         191.000
  22701820.244   -11982131.92149  -9315351.96846  22701819.347    22701827.192
       219.000         166.000
  23382994.992     -884597.27849   -658964.25845  23382994.160    23383001.851
       218.000         161.000
  22880567.649   -11314930.51449  -8445290.23546  22880567.363    22880573.765
       224.000         171.000
  22831495.904    -6167537.24549  -4785595.08746  22831494.905    22831501.831
       229.000         178.000
  20564691.917   -27401029.35049 -21328322.88147  20564691.191    20564697.126
       243.000         211.000
  21740509.331   -11922069.25749  -8887712.78547  21740509.199    21740513.479
       238.000         196.000
 03  3 25  1 46  0.0000000  0  8G14G 3G17G 9G31G23G15G18
  20397078.104   -20251014.34149 -15757941.29448  20397077.617    20397082.551
       240.000         214.000
  22031537.439   -15077394.19649 -11733303.00047  22031536.984    22031544.287
       234.000         191.000
  22716945.504   -11902647.62749  -9253416.17146  22716944.986    22716952.567
       219.000         165.000
  23387628.229     -860249.08949   -639991.62545  23387628.352    23387634.245
       220.000         161.000
  22875737.148   -11340315.33149  -8465070.60346  22875737.347    22875742.757
       225.000         171.000
  22840957.360    -6117816.88249  -4746851.92246  22840956.685    22840963.198
       228.000         178.000
  20571631.638   -27364560.61749 -21299905.67847  20571630.906    20571637.001
       243.000         210.000
  21749305.383   -11875845.71749  -8851694.43347  21749304.750    21749310.072
       238.000         196.000
 03  3 25  1 46 30.0000000  0  8G14G 3G17G 9G31G23G15G18
  20391219.461   -20281801.43649 -15781931.19948  20391219.013    20391223.813
       240.000         214.000
  22035790.174   -15055046.00949 -11715888.84147  22035789.750    22035796.946
       234.000         191.000
  22732132.335   -11822840.91049  -9191229.13846  22732131.933    22732139.092
       220.000         165.000
  23392371.881     -835321.45549   -620567.45645  23392372.507    23392378.540
       218.000         161.000
  22871011.012   -11365151.32049  -8484423.29446  22871011.478    22871017.599
       226.000         172.000
  22850421.226    -6068083.82949  -4708098.88246  22850420.443    22850426.818
       228.000         178.000
  20578654.810   -27327653.15449 -21271146.61347  20578654.204    20578660.186
       242.000         210.000
  21758120.247   -11829523.30949  -8815599.04047  21758119.847    21758124.688
       236.000         195.000
 03  3 25  1 47  0.0000000  0  8G14G 3G17G 9G31G23G15G18
  20385459.635   -20312069.50949 -15805516.67348  20385459.340    20385463.989
       241.000         214.000
  22040139.171   -15032192.09149 -11698080.59647  22040139.109    22040145.662
       234.000         191.000
  22747380.238   -11742713.03249  -9128791.83746  22747380.186    22747387.196
       219.000         165.000
  23397225.408     -809814.99149   -600692.23745  23397224.618    23397232.524
       217.000         160.000
  22866389.385   -11389438.35549  -8503348.21446  22866389.368    22866395.305
       226.000         174.000
  22859887.544    -6018338.29149  -4669336.12246  22859887.169    22859892.853
       228.000         178.000
  20585761.540   -27290307.01249 -21242045.71847  20585761.144    20585767.360
       244.000         211.000
  21766953.733   -11783102.54249  -8779427.00447  21766953.172    21766957.938
       236.000         195.000
 03  3 25  1 47 30.0000000  0  8G14G 3G17G 9G31G23G15G18
  20379798.838   -20341817.31049 -15828696.74748  20379798.389    20379803.025
       240.000         214.000
  22044584.331   -15008833.06249 -11679878.75347  22044584.582    22044591.433
       234.000         191.000
  22762689.103   -11662264.00349  -9066104.30046  22762688.369    22762696.034
       218.000         165.000
  23402189.389     -783729.09749   -580365.55545  23402189.721    23402194.902
       220.000         160.000
  22861872.429   -11413175.04949  -8521844.29646  22861872.095    22861878.629
       226.000         173.000
  22869356.375    -5968579.24149  -4630562.82946  22869355.724    22869362.326
       228.000         178.000
  20592952.096   -27252520.96149 -21212602.03447  20592951.516    20592957.609
       244.000         211.000
  21775806.100   -11736582.94149  -8743177.95847  21775805.414    21775810.162
       237.000         194.000
 03  3 25  1 48  0.0000000  0  8G14G 3G17G 9G31G23G15G18
  20374236.896   -20371045.18149 -15851471.67848  20374236.340    20374241.131
       240.000         214.000
  22049125.176   -14984970.48949 -11661284.54547  22049125.058    22049132.097
       233.000         191.000
  22778058.961   -11581494.51549  -9003167.02546  22778058.698    22778066.441
       219.000         165.000
  23407263.707     -757064.29449   -559587.75545  23407263.379    23407269.361
       220.000         160.000
  22857460.131   -11436361.29249  -8539911.45846  22857460.050    22857465.906
       225.000         173.000
  22878827.718    -5918806.93449  -4591779.20746  22878827.397    22878833.002
       228.000         177.000
  20600226.184   -27214295.13149 -21182815.67347  20600225.381    20600231.965
       243.000         210.000
  21784677.205   -11689964.85049  -8706852.15447  21784677.022    21784681.620
       237.000         194.000
 03  3 25  1 48 30.0000000  0  8G14G 3G17G 9G31G23G15G18
  20368773.870   -20399753.01649 -15873841.38748  20368773.462    20368778.244
       240.000         214.000
  22053761.572   -14960605.78749 -11642299.06447  22053761.439    22053768.661
       234.000         191.000
  22793489.538   -11500405.90849  -8939981.11346  22793488.896    22793497.648
       218.000         165.000
  23412448.013     -729820.86649   -538359.08145  23412448.709    23412453.648
       219.000         160.000
  22853152.743   -11458996.76249  -8557549.46246  22853152.242    22853159.320
       226.000         174.000
  22888301.547    -5869021.44049  -4552985.30146  22888300.629    22888307.188
       227.000         177.000
  20607583.990   -27175629.36049 -21152686.49447  20607583.187    20607589.352
       243.000         210.000
  21793566.993   -11643248.59049  -8670449.86447  21793566.738    21793571.397
       237.000         195.000
 03  3 25  1 49  0.0000000  0  8G14G 3G17G 9G31G23G15G18
  20363409.854   -20427941.19449 -15895806.17048  20363409.725    20363414.302
       241.000         214.000
  22058493.340   -14935740.74249 -11622923.71847  22058493.543    22058500.707
       234.000         192.000
  22808980.739   -11418999.14149  -8876547.28246  22808980.761    22808987.742
       219.000         165.000
  23417742.226     -701999.63549   -516680.18145  23417741.575    23417747.424
       219.000         160.000
  22848950.285   -11481081.25049  -8574758.12446  22848950.111    22848956.582
       226.000         174.000
  22897777.748    -5819223.14749  -4514181.43346  22897776.889    22897783.524
       226.000         176.000
  20615025.525   -27136523.72949 -21122214.57147  20615024.875    20615031.223
       243.000         210.000
  21802475.405   -11596434.82749  -8633971.60047  21802475.220    21802479.692
       237.000         195.000
 03  3 25  1 49 30.0000000  0  8G14G 3G17G 9G31G23G15G18
  20358144.790   -20455609.48549 -15917365.84648  20358144.230    20358149.121
       240.000         215.000
  22063320.001   -14910376.68549 -11603159.51047  22063319.752    22063326.405
       234.000         191.000
  22824532.452   -11337274.94649  -8812866.10946  22824532.465    22824539.372
       217.000         163.000
  23423146.331     -673600.95649   -494551.31645  23423145.274    23423151.924
       214.000         158.000
  22844852.440   -11502614.56349  -8591537.30546  22844852.068    22844858.199
       224.000         172.000
  22907256.489    -5769411.81649  -4475367.40446  22907256.536    22907263.146
       227.000         176.000
  20622550.831   -27096978.07049 -21091399.76147  20622550.355    20622556.435
       243.000         210.000
  21811402.171   -11549523.79149  -8597417.53647  21811401.721    21811406.808
       237.000         195.000
 03  3 25  1 50  0.0000000  0  8G14G 3G17G 9G31G23G15G18
  20352978.535   -20482757.78549 -15938520.33348  20352978.056    20352982.568
       240.000         214.000
  22068241.328   -14884515.21049 -11583007.70847  22068241.294    22068247.968
       233.000         190.000
  22840144.401   -11255234.18949  -8748938.25345  22840144.127    22840151.128
       217.000         162.000
  23428660.055     -644625.15749   -471972.74745  23428659.477    23428666.754
       216.000         156.000
  22840859.713   -11523596.15249  -8607886.56246  22840859.312    22840864.537
       226.000         171.000
  22916737.889    -5719587.21349  -4436543.01946  22916737.473    22916743.754
       227.000         176.000
  20630159.859   -27056992.38549 -21060242.07447  20630159.148    20630165.622
       243.000         210.000
  21820347.510   -11502515.50149  -8560787.69347  21820347.378    21820352.071
       236.000         195.000
 03  3 25  1 50 30.0000000  0  8G14G 3G17G 9G31G23G15G18
  20347911.249   -20509386.18949 -15959269.70848  20347910.904    20347915.379
       240.000         214.000
  22073256.926   -14858157.93549 -11562469.58647  22073256.972    22073263.723
       233.000         189.000
  22855816.245   -11172877.93549  -8684764.56245  22855814.909    22855822.165
       215.000         161.000
  23434283.754     -615072.60749   -448944.76345  23434283.043    23434289.272
       215.000         155.000
  22836972.207   -11544025.90949  -8623805.83246  22836972.263    22836978.391
       225.000         171.000
  22926221.677    -5669749.41549  -4397708.35446  22926220.838    22926227.959
       225.000         176.000
  20637852.577   -27016566.52949 -21028741.40947  20637852.092    20637858.323
       242.000         210.000
  21829311.214   -11455410.63749  -8524082.59347  21829310.903    21829316.002
       236.000         194.000
 03  3 25  1 51  0.0000000  0  8G14G 3G17G 9G31G23G15G18
  20342942.962   -20535494.67149 -15979613.95148  20342942.564    20342947.191
       240.000         214.000
  22078366.675   -14831306.23549 -11541546.18647  22078366.395    22078372.848
       232.000         189.000
  22871548.023   -11090206.76049  -8620345.47545  22871547.117    22871554.882
       214.000         160.000
  23440017.000     -584943.93949   -425467.83845  23440015.645    23440021.922
       215.000         153.000
  22833189.673   -11563903.50049  -8639294.82446  22833188.762    22833196.432
       226.000         172.000
  22935707.899    -5619898.33349  -4358863.33846  22935707.410    22935714.570
       226.000         176.000
  20645629.111   -26975700.50249 -20996897.75747  20645628.499    20645634.797
       242.000         210.000
  21838293.344   -11408209.24449  -8487302.28047  21838292.864    21838298.187
       236.000         194.000
 03  3 25  1 51 30.0000000  0  8G14G 3G17G 9G31G23G15G18
  20338073.536   -20561083.18449 -15999553.01748  20338072.855    20338077.885
       239.000         214.000
  22083570.100   -14803961.67249 -11520238.73147  22083569.743    22083576.884
       232.000         189.000
  22887339.609   -11007221.53849  -8555681.67745  22887339.495    22887346.222
       212.000         157.000
  23445859.763     -554239.56949   -401542.32945  23445860.309    23445866.010
       213.000         152.000
  22829512.127   -11583228.70349  -8654353.38246  22829510.938    22829517.647
       224.000         172.000
  22945196.725    -5570033.78649  -4320007.82746  22945196.411    22945203.226
       227.000         176.000
  20653489.423   -26934394.17749 -20964711.00447  20653488.817    20653495.076
       243.000         209.000
  21847293.824   -11360911.53249  -8450446.90947  21847293.593    21847298.490
       238.000         195.000
 03  3 25  1 52  0.0000000  0  8G14G 3G17G 9G31G23G15G18
  20333303.029   -20586151.94549 -16019087.08648  20333302.737    20333307.366
       240.000         214.000
  22088866.886   -14776125.87349 -11498548.50747  22088866.596    22088873.889
       233.000         190.000
  22903190.768   -10923923.64949  -8490774.24445  22903189.882    22903197.398
       213.000         156.000
  23451812.112     -522959.98349   -377168.59645  23451812.838    23451818.468
       217.000         152.000
  22825939.760   -11602001.21649  -8668981.29146  22825939.391    22825945.060
       226.000         170.000
  22954688.288    -5520155.83849  -4281141.87346  22954687.960    22954694.263
       227.000         176.000
  20661433.599   -26892647.46549 -20932181.09147  20661432.928    20661439.002
       242.000         209.000
  21856312.617   -11313517.89849  -8413516.79247  21856312.879    21856317.308
       239.000         196.000
 03  3 25  1 52 30.0000000  0  8G14G 3G17G 9G31G23G15G18
  20328631.470   -20610701.11749 -16038216.28048  20328631.311    20328635.909
       239.000         214.000
  22094257.005   -14747800.65449 -11476476.91347  22094256.804    22094264.067
       233.000         190.000
  22919101.152   -10840313.53049  -8425623.49445  22919100.827    22919108.312
       212.000         154.000
  23457873.897     -491105.82549   -352347.13545  23457873.592    23457879.754
       215.000         154.000
  22822472.736   -11620221.02649  -8683178.52446  22822472.741    22822478.164
       226.000         171.000
  22964182.395    -5470264.33949  -4242265.36146  22964181.578    22964187.781
       227.000         176.000
  20669461.498   -26850460.40649 -20899308.05147  20669460.980    20669467.082
       242.000         209.000
  21865349.631   -11266028.49149  -8376512.04247  21865349.583    21865354.048
       238.000         195.000
 03  3 25  1 53  0.0000000  0  8G14G 3G17G 9G31G23G15G18
  20324058.802   -20634730.71649 -16056940.61348  20324058.457    20324063.102
       240.000         214.000
  22099739.958   -14718987.90549 -11454025.42347  22099739.679    22099747.080
       233.000         189.000
  22935070.780   -10756392.43549  -8360230.43645  22935070.261    22935078.730
       213.000         154.000
  23464044.607     -458677.92949   -327078.61745  23464044.010    23464050.641
       217.000         155.000
  22819110.899   -11637888.14349  -8696945.09946  22819111.168    22819118.247
       227.000         173.000
  22973679.017    -5420359.41949  -4203378.38646  22973678.373    22973684.685
       228.000         177.000
  20677573.249   -26807833.04849 -20866091.92147  20677572.554    20677578.729
       243.000         209.000
  21874404.694   -11218443.86549  -8339433.10947  21874404.035    21874409.351
       236.000         194.000
 03  3 25  1 53 30.0000000  0  8G14G 3G17G 9G31G23G15G18
  20319584.921   -20658240.97449 -16075260.26248  20319584.594    20319589.253
       239.000         214.000
  22105315.248   -14689689.11849 -11431195.20547  22105314.829    22105322.113
       232.000         189.000
  22951099.522   -10672161.23049  -8294595.72245  22951098.995    22951106.554
       210.000         153.000
  23470324.356     -425676.64749   -301363.29145  23470323.403    23470330.738
       216.000         157.000
  22815854.205   -11655002.19449  -8710280.70746  22815853.923    22815860.542
       225.000         173.000
  22983178.231    -5370440.69249  -4164480.66246  22983177.657    22983184.752
       226.000         177.000
  20685768.782   -26764765.26349 -20832532.60547  20685768.251    20685773.796
       243.000         209.000
  21883477.700   -11170764.02549  -8302279.98247  21883477.494    21883482.381
       236.000         192.000
 03  3 25  1 54  0.0000000  0  8G14G 3G17G 9G31G23G15G18
  20315209.858   -20681231.95649 -16093175.28148  20315209.513    20315213.871
       240.000         214.000
  22110982.799   -14659905.65249 -11407987.31547  22110983.155    22110989.592
       233.000         190.000
  22967187.047   -10587620.80549  -8228720.07145  22967186.128    22967192.915
       209.000         151.000
  23476712.978     -392102.79649   -275201.83945  23476713.120    23476718.901
       217.000         157.000
  22812702.647   -11671563.10249  -8723185.27246  22812701.605    22812708.183
       224.000         172.000
  22992679.970    -5320508.18349  -4125572.20246  22992678.770    22992686.625
       225.000         176.000
  20694048.080   -26721257.06549 -20798630.11247  20694047.559    20694053.369
       242.000         209.000
  21892568.957   -11122989.35349  -8265052.94447  21892567.891    21892573.152
       236.000         192.000
 03  3 25  1 54 30.0000000  0  8G14G 3G17G 9G31G23G15G18
  20310933.671   -20703703.72349 -16110685.72548  20310933.363    20310937.465
       240.000         214.000
  22116742.357   -14629639.35049 -11384403.19747  22116741.928    22116749.115
       232.000         190.000
  22983333.100   -10502772.19549  -8162604.30245  22983331.990    22983340.057
       206.000         148.000
  23483210.838     -357956.93249   -248594.64345  23483211.391    23483216.613
       215.000         156.000
  22809656.420   -11687570.62949  -8735658.65346  22809655.324    22809662.715
       224.000         173.000
  23002184.317    -5270561.76849  -4086652.89746  23002184.439    23002191.069
       225.000         176.000
  20702411.272   -26677308.33549 -20764384.34947  20702410.929    20702416.574
       243.000         209.000
  21901678.047   -11075119.88149  -8227752.03647  21901677.894    21901682.231
       235.000         191.000
 03  3 25  1 55  0.0000000  0  8G14G 3G17G 9G31G23G15G18
  20306756.108   -20725656.70149 -16127791.90548  20306755.726    20306759.836
       240.000         214.000
  22122593.314   -14598891.93949 -11360444.18147  22122593.337    22122600.191
       233.000         189.000
  22999537.587   -10417616.48549  -8096249.20245  22999537.272    22999544.263
       209.000         146.000
  23489817.447     -323239.69749   -221542.23745  23489818.937    23489823.051
       215.000         156.000
  22806715.353   -11703024.97549  -8747700.97946  22806714.360    22806721.934
       224.000         172.000
  23011691.440    -5220601.52249  -4047722.82346  23011691.607    23011696.997
       226.000         175.000
  20710858.238   -26632919.47549 -20729795.61847  20710857.762    20710863.624
       244.000         209.000
  21910805.240   -11027155.77549  -8190377.39347  21910804.446    21910809.510
       235.000         191.000
 03  3 25  1 55 30.0000000  0  8G14G 3G17G 9G31G23G15G18
  20302677.131   -20747091.65349 -16144494.43448  20302676.540    20302681.319
       240.000         214.000
  22128535.491   -14567665.89749 -11336112.20847  22128535.404    22128542.006
       233.000         189.000
  23015800.528   -10332155.16049  -8029655.98945  23015799.334    23015807.558
       208.000         143.000
  23496532.563     -287952.42749   -194045.61745  23496531.470    23496538.761
       215.000         156.000
  22803879.577   -11717926.73849  -8759312.70146  22803878.174    22803886.000
       225.000         172.000
  23021201.236    -5170627.78949  -4008782.23846  23021201.354    23021207.761
       226.000         175.000
  20719388.738   -26588091.07049 -20694864.38747  20719387.906    20719394.283
       243.000         209.000
  21919950.223   -10979098.00949  -8152929.77147  21919949.884    21919954.582
       234.000         190.000
 03  3 25  1 56  0.0000000  0  8G14G 3G17G 9G31G23G15G18
  20298696.618   -20768009.04649 -16160793.67348  20298696.315    20298700.800
       240.000         214.000
  22134568.390   -14535963.12149 -11311408.74747  22134568.157    22134575.123
       232.000         189.000
  23032121.317   -10246389.52749  -7962825.62445  23032120.155    23032129.311
       207.000         142.000
  23503355.584     -252096.21649   -166105.68945  23503354.566    23503361.434
       214.000         156.000
  22801149.019   -11732276.04749  -8770493.96946  22801149.073    22801155.831
       224.000         172.000
  23030713.599    -5120640.62449  -3969831.17246  23030713.469    23030719.243
       226.000         175.000
  20728002.781   -26542823.24549 -20659590.75547  20728002.263    20728008.426
       243.000         209.000
  21929113.055   -10930946.92949  -8115409.43847  21929112.771    21929117.045
       236.000         190.000
 03  3 25  1 56 30.0000000  0  8G14G 3G17G 9G31G23G15G18
  20294814.793   -20788408.19249 -16176689.08548  20294814.512    20294818.934
       240.000         215.000
  22140691.789   -14503784.41149 -11286334.44247  22140691.688    22140698.212
       233.000         188.000
  23048499.836   -10160319.50049  -7895758.07545  23048499.676    23048508.277
       205.000         140.000
  23510286.724     -215670.85249   -137722.27745  23510286.367    23510293.163
       213.000         154.000
  22798523.677   -11746071.81149  -8781243.91246  22798522.711    22798530.188
       225.000         173.000
  23040228.672    -5070638.75449  -3930868.65746  23040227.742    23040234.411
       225.000         174.000
  20736700.769   -26497115.20949 -20623974.10147  20736700.531    20736706.534
       243.000         209.000
  21938293.893   -10882701.82549  -8077815.83547  21938293.705    21938298.312
       235.000         190.000
 03  3 25  1 57  0.0000000  0  8G14G 3G17G 9G31G23G15G18
  20291031.453   -20808289.75849 -16192181.17948  20291031.042    20291035.434
       240.000         214.000
  22146905.392   -14471132.16849 -11260891.15247  22146905.816    22146912.006
       233.000         189.000
  23064936.001   -10073946.54549  -7828454.49045  23064936.187    23064943.518
       206.000         139.000
  23517326.211     -178677.62149   -108896.34345  23517325.824    23517333.451
       215.000         154.000
  22796003.650   -11759314.60349  -8791562.96046  22796003.345    22796009.969
       226.000         173.000
  23049746.263    -5020622.67149  -3891895.07046  23049745.643    23049752.530
       224.000         173.000
  20745482.476   -26450967.50849 -20588014.85147  20745482.172    20745487.971
       243.000         209.000
  21947492.510   -10834363.27049  -8040149.41547  21947492.357    21947497.062
       235.000         190.000
 03  3 25  1 57 30.0000000  0  8G14G 3G17G 9G31G23G15G18
  20287346.544   -20827654.16249 -16207270.29948  20287346.352    20287350.581
       240.000         215.000
  22153208.704   -14438008.45149 -11235080.47647  22153208.803    22153215.347
       233.000         189.000
  23081429.563    -9987271.93049  -7760915.81845  23081429.779    23081435.964
       201.000         137.000
  23524473.759     -141117.48749    -79628.68245  23524474.016    23524479.894
       215.000         155.000
  22793588.757   -11772004.80649  -8801451.40746  22793588.367    22793595.178
       225.000         172.000
  23059266.653    -4970592.36349  -3852910.41546  23059266.152    23059272.519
       224.000         173.000
  20754347.778   -26404380.48849 -20551713.27147  20754347.274    20754353.232
       243.000         209.000
  21956708.746   -10785931.82749  -8002410.61447  21956708.337    21956712.522
       235.000         189.000
 03  3 25  1 58  0.0000000  0  8G14G 3G17G 9G31G23G15G18
  20283760.112   -20846501.15849 -16221956.23748  20283759.815    20283764.163
       240.000         215.000
  22159601.555   -14404414.03849 -11208903.01047  22159601.757    22159607.812
       232.000         188.000
  23097980.609    -9900296.01749  -7693142.35245  23097980.811    23097987.676
       203.000         135.000
  23531729.428     -102990.47849    -49919.31945  23531730.672    23531736.198
       217.000         157.000
  22791279.135   -11784141.58649  -8810908.63946  22791279.186    22791285.811
       225.000         174.000
  23068789.909    -4920546.87549  -3813913.91946  23068788.970    23068796.159
       223.000         173.000
  20763296.667   -26357353.55849 -20515068.89847  20763295.719    20763302.182
       242.000         208.000
  21965942.759   -10737406.77149  -7964598.87047  21965942.634    21965946.677
       236.000         189.000
 03  3 25  1 58 30.0000000  0  8G14G 3G17G 9G31G23G15G18
  20280271.787   -20864832.26149 -16236240.18048  20280271.190    20280275.873
       240.000         215.000
  22166083.283   -14370352.21449 -11182361.33546  22166082.760    22166089.855
       230.000         187.000
  23114588.457    -9813021.25949  -7625136.06544  23114588.653    23114593.624
       199.000         131.000
  23539092.452      -64299.01549    -19770.11145  23539092.166    23539099.626
       215.000         158.000
  22789074.715   -11795726.59749  -8819935.91346  22789074.272    22789081.413
       226.000         176.000
  23078315.736    -4870487.43449  -3774906.55446  23078314.545    23078322.096
       224.000         172.000
  20772328.886   -26309888.04549 -20478082.79247  20772327.987    20772334.465
       241.000         207.000
  21975194.327   -10688789.60149  -7926715.34747  21975193.660    21975198.616
       236.000         190.000
 03  3 25  1 59  0.0000000  0  8G14G 3G17G 9G31G23G15G18
  20276881.865   -20882646.38549 -16250121.28548  20276881.557    20276885.792
       241.000         215.000
  22172653.662   -14335823.40649 -11155455.78446  22172653.072    22172660.562
       230.000         186.000
  23131253.040    -9725447.35549  -7556896.67344  23131251.748    23131259.767
       196.000         130.000
  23546562.613      -25042.49549     10819.41145  23546562.364    23546570.334
       211.000         156.000
  22786975.601   -11806758.41449  -8828532.10746  22786975.365    22786981.879
       226.000         176.000
  23087844.629    -4820412.47449  -3735887.08846  23087844.408    23087850.750
       225.000         172.000
  20781444.936   -26261982.73249 -20440753.97447  20781444.585    20781450.021
       242.000         207.000
  21984463.588   -10640079.17449  -7888759.14447  21984463.633    21984467.682
       237.000         190.000
 03  3 25  1 59 30.0000000  0  8G14G 3G17G 9G31G23G15G18
  20273590.284   -20899943.90949 -16263599.84748  20273590.076    20273594.405
       240.000         215.000
  22179312.735   -14300829.51149 -11128187.82146  22179312.781    22179319.955
       232.000         186.000
  23147974.067    -9637575.37049  -7488425.00644  23147970.663    23147980.450
       196.000         127.000
  23554140.051       14778.58049     41848.86945  23554139.588    23554146.482
       212.000         156.000
  22784981.691   -11817237.08349  -8836697.27446  22784981.416    22784988.185
       227.000         177.000
  23097376.621    -4770321.70149  -3696855.29446  23097375.740    23097382.247
       225.000         172.000
  20790644.763   -26213637.73049 -20403082.54347  20790644.316    20790649.981
       242.000         207.000
  21993750.655   -10591275.34649  -7850730.16947  21993750.303    21993754.647
       237.000         190.000
 03  3 25  2  0  0.0000000  0  8G14G 3G17G 9G31G23G15G18
  20270396.786   -20916725.66949 -16276676.50448  20270396.327    20270400.794
       240.000         216.000
  22186060.091   -14265372.85049 -11100559.25846  22186060.360    22186066.525
       232.000         186.000
  23164751.837    -9549406.90049  -7419722.31644  23164750.617    23164762.540
       196.000         125.000
  23561824.571       55162.55549     73316.92745  23561823.359    23561831.689
       210.000         154.000
  22783092.817   -11827163.25449  -8844431.93646  22783091.824    22783099.249
       226.000         177.000
  23106911.508    -4720215.32549  -3657811.33846  23106910.339    23106917.209
       225.000         171.000
  20799928.134   -26164853.67349 -20365068.99047  20799927.720    20799933.702
       242.000         208.000
  22003055.365   -10542378.89949  -7812629.02547  22003054.842    22003059.635
       235.000         190.000
 03  3 25  2  0 30.0000000  0  8G14G 3G17G 9G31G23G15G18
  20267301.204   -20932992.91349 -16289352.25048  20267300.790    20267305.257
       241.000         216.000
  22192894.845   -14229456.21249 -11072572.26046  22192894.699    22192901.248
       232.000         186.000
  23181585.866    -9460943.50149  -7350789.80644  23181585.672    23181593.584
       197.000         125.000
  23569615.904       96107.59249    105222.18045  23569616.464    23569622.158
       212.000         153.000
  22781308.904   -11836538.02049  -8851736.95346  22781308.059    22781314.841
       226.000         177.000
  23116449.163    -4670093.95549  -3618755.71046  23116449.225    23116455.113
       224.000         171.000
  20809294.730   -26115631.79949 -20326714.27647  20809294.255    20809300.320
       242.000         208.000
  22012377.455   -10493390.74749  -7774456.43447  22012376.979    22012382.117
       235.000         190.000
 03  3 25  2  1  0.0000000  0  8G14G 3G17G 9G31G23G15G18
  20264303.447   -20948746.19549 -16301627.50748  20264303.135    20264307.440
       241.000         216.000
  22199816.686   -14193081.61149 -11044228.41746  22199815.827    22199823.627
       229.000         185.000
  23198476.003    -9372186.36449  -7281628.40644  23198474.001    23198486.544
       199.000         125.000
  23577514.269      137612.50249    137563.69145  23577514.316    23577520.764
       212.000         154.000
  22779629.734   -11845361.64549  -8858612.48646  22779629.491    22779635.280
       227.000         177.000
  23125989.752    -4619957.58449  -3579688.37946  23125989.431    23125996.103
       224.000         172.000
  20818744.600   -26065972.20749 -20288018.49247  20818743.953    20818750.281
       242.000         208.000
  22021717.054   -10444311.08949  -7736212.53547  22021716.773    22021721.095
       235.000         190.000
 03  3 25  2  1 30.0000000  0  8G14G 3G17G 9G31G23G15G18
  20261403.419   -20963985.93949 -16313502.61048  20261403.063    20261407.268
       241.000         216.000
  22206825.277   -14156250.89649 -11015529.17046  22206824.915    22206831.644
       230.000         185.000
  23215421.817    -9283137.28849  -7212239.52344  23215422.318    23215432.064
       200.000         125.000
  23585518.859      179676.22849    170340.63845  23585518.116    23585524.854
       213.000         154.000
  22778055.682   -11853634.33949  -8865058.72946  22778054.711    22778061.262
       227.000         178.000
  23135533.318    -4569805.93849  -3540609.16546  23135533.054    23135539.861
       222.000         172.000
  20828277.688   -26015875.25349 -20248981.90947  20828277.204    20828283.370
       243.000         209.000
  22031074.012   -10395139.91049  -7697897.32347  22031073.565    22031078.295
       234.000         190.000
 03  3 25  2  2  0.0000000  0  8G14G 3G17G 9G31G23G15G18
  20258601.042   -20978712.21849 -16324977.60448  20258600.393    20258604.977
       240.000         216.000
  22213920.329   -14118965.64449 -10986475.72746  22213919.833    22213926.829
       231.000         185.000
  23232423.185    -9193796.62549  -7142623.43944  23232426.846    23232430.089
       200.000         124.000
  23593629.688      222298.43749    203552.78745  23593629.720    23593636.274
       215.000         156.000
  22776586.201   -11861356.07649  -8871075.65146  22776585.368    22776592.080
       224.000         176.000
  23145079.822    -4519638.53449  -3501517.66546  23145079.465    23145086.097
       222.000         172.000
  20837894.181   -25965340.87049 -20209604.46547  20837893.586    20837899.830
       242.000         209.000
  22040448.382   -10345877.13249  -7659510.72847  22040447.835    22040452.671
       235.000         190.000
 03  3 25  2  2 30.0000000  0  8G14G 3G17G 9G31G23G15G18
  20255896.187   -20992925.74249 -16336053.05148  20255895.575    20255900.323
       240.000         216.000
  22221101.540   -14081228.07849 -10957069.82546  22221101.152    22221108.436
       231.000         185.000
  23249479.653    -9104165.14249  -7072780.74844  23249478.261    23249484.426
       196.000         121.000
  23601846.570      265477.80449    237199.05445  23601846.072    23601852.562
       216.000         158.000
  22775221.314   -11868527.23049  -8876663.55246  22775220.683    22775227.253
       223.000         175.000
  23154629.473    -4469455.05849  -3462413.64346  23154629.653    23154635.159
       224.000         172.000
  20847593.662   -25914369.48049 -20169886.50247  20847592.862    20847599.144
       242.000         208.000
  22049840.182   -10296522.78449  -7621052.77547  22049839.794    22049843.911
       235.000         190.000
 03  3 25  2  3  0.0000000  0  8G14G 3G17G 9G31G23G15G18
  20253288.925   -21006626.67249 -16346729.07148  20253288.700    20253293.003
       240.000         216.000
  22228368.539   -14043039.97049 -10927312.86246  22228368.421    22228374.869
       231.000         185.000
  23266591.282    -9014244.28549  -7002712.52644  23266591.974    23266597.277
       196.000         120.000
  23610168.946      309213.35149    271278.73245  23610168.760    23610174.203
       213.000         157.000
  22773961.295   -11875147.96149  -8881822.53946  22773961.225    22773966.837
       226.000         175.000
  23164182.258    -4419255.05349  -3423296.73246  23164181.881    23164188.126
       224.000         172.000
  20857376.270   -25862961.17549 -20129828.07347  20857375.659    20857381.624
       242.000         207.000
  22059249.406   -10247077.03049  -7582523.58747  22059249.200    22059253.480
       235.000         189.000
 03  3 25  2  3 30.0000000  0  8G14G 3G17G 9G31G23G15G18
  20250779.256   -21019815.29049 -16357005.88548  20250778.957    20250783.229
       241.000         216.000
  22235720.944   -14004403.04849 -10897206.17346  22235720.621    22235727.601
       231.000         184.000
  23283757.406    -8924035.05448  -6932419.64344  23283752.484    23283761.425
       188.000         117.000
  23618597.013      353504.31449    305791.21845  23618596.316    23618603.709
       214.000         157.000
  22772806.107   -11881218.28649  -8886552.66046  22772806.004    22772811.876
       225.000         175.000
  23173738.194    -4369038.04249  -3384166.57946  23173737.315    23173744.312
       224.000         172.000
  20867242.115   -25811115.89349 -20089429.14547  20867241.439    20867247.485
       242.000         207.000
  22068676.062   -10197539.53049  -7543922.92647  22068675.274    22068680.677
       235.000         189.000
 03  3 25  2  4  0.0000000  0  8G14G 3G17G 9G31G23G15G18
  20248367.137   -21032491.46049 -16366883.39348  20248366.857    20248371.118
       241.000         216.000
  22243158.611   -13965318.49149 -10866750.68946  22243157.992    22243164.661
       231.000         183.000
  23300977.600    -8833537.80548  -6861902.31144  23300977.029    23300984.380
       187.000         112.000
  23627130.684      398350.15549    340736.06545  23627130.208    23627137.269
       213.000         157.000
  22771755.701   -11886737.92649  -8890853.66146  22771755.352    22771761.677
       224.000         175.000
  23183297.616    -4318803.02749  -3345022.39946  23183297.577    23183303.458
       224.000         171.000
  20877191.121   -25758833.18749 -20048689.36947  20877190.682    20877196.630
       241.000         206.000
  22078120.193   -10147909.87949  -7505250.44647  22078119.726    22078124.431
       235.000         189.000
 03  3 25  2  4 30.0000000  0  8G14G 3G17G 9G31G23G15G18
  20246052.298   -21044656.26549 -16376362.43448  20246051.890    20246056.381
       241.000         217.000
  22250680.711   -13925789.06149 -10835948.53946  22250680.414    22250686.877
       231.000         183.000
  23318252.937    -8742754.16948  -6791161.84344  23318253.049    23318261.129
       187.000         111.000
  23635769.788      443749.28849    376112.03245  23635769.957    23635777.240
       211.000         154.000
  22770809.846   -11891707.71749  -8894726.21546  22770809.567    22770816.256
       224.000         175.000
  23192860.451    -4268549.97949  -3305864.14946  23192860.447    23192865.985
       223.000         169.000
  20887223.339   -25706113.81549 -20007609.34947  20887222.637    20887228.845
       241.000         206.000
  22087581.869   -10098188.48849  -7466506.48847  22087581.506    22087586.429
       236.000         190.000
 03  3 25  2  5  0.0000000  0  8G14G 3G17G 9G31G23G15G18
  20243834.322   -21056311.52349 -16385444.42348  20243833.815    20243838.126
       240.000         216.000
  22258286.920   -13885818.18049 -10804802.39746  22258287.168    22258293.276
       232.000         185.000
  23335582.606    -8651686.73848  -6720200.21044  23335583.272    23335591.210
       192.000         112.000
  23644513.843      489699.26049    411917.24445  23644514.034    23644519.836
       210.000         151.000
  22769968.424   -11896129.36649  -8898171.63046  22769968.439    22769974.115
       225.000         175.000
  23202426.411    -4218280.12149  -3266692.81346  23202425.415    23202432.235
       222.000         168.000
  20897338.247   -25652959.70249 -19966190.56847  20897337.604    20897344.171
       242.000         207.000
  22097060.788   -10048376.60649  -7427692.01247  22097060.313    22097065.018
       235.000         190.000
 03  3 25  2  5 30.0000000  0  8G14G 3G17G 9G31G23G15G18
  20241713.149   -21067458.05049 -16394130.00248  20241712.544    20241716.822
       242.000         216.000
  22265976.871   -13845407.72649 -10773313.73646  22265977.025    22265983.494
       233.000         185.000
  23352966.082    -8560336.83948  -6649018.49744  23352965.898    23352977.489
       190.000         111.000
  23653362.492      536198.89749    448150.76445  23653361.688    23653370.259
       210.000         150.000
  22769231.303   -11900003.40649  -8901190.36046  22769231.309    22769237.388
       225.000         175.000
  23211995.457    -4167993.37749  -3227508.32546  23211994.640    23212001.634
       221.000         168.000
  20907535.831   -25599371.13249 -19924433.24047  20907535.404    20907541.878
       243.000         207.000
  22106556.839    -9998474.43449  -7388807.18147  22106556.569    22106561.372
       234.000         189.000
 03  3 25  2  6  0.0000000  0  8G14G 3G17G 9G31G23G15G18
  20239688.661   -21078096.33249 -16402419.54248  20239688.255    20239692.357
       243.000         216.000
  22273750.055   -13804560.05049 -10741484.37246  22273749.384    22273756.269
       230.000         185.000
  23370403.209    -8468705.89348  -6577617.80344  23370407.793    23370413.965
       187.000         107.000
  23662315.147      583246.83449    484811.50345  23662314.690    23662321.493
       209.000         149.000
  22768598.253   -11903330.42149  -8903782.83446  22768597.668    22768604.472
       224.000         175.000
  23221568.040    -4117689.43749  -3188310.43246  23221568.363    23221573.688
       225.000         168.000
  20917816.080   -25545348.55249 -19882337.71747  20917815.408    20917821.577
       242.000         207.000
  22116069.989    -9948482.11749  -7349852.10847  22116069.554    22116074.761
       235.000         189.000
 03  3 25  2  6 30.0000000  0  8G14G 3G17G 9G31G23G15G18
  20237760.954   -21088226.70649 -16410313.31748  20237760.620    20237764.840
       242.000         216.000
  22281605.979   -13763276.63849 -10709315.49046  22281605.865    22281612.450
       229.000         184.000
  23387893.868    -8376794.23248  -6505998.33544                  23387889.681
       184.000         103.000
  23671372.239      630842.25749    521898.87345  23671372.200    23671378.975
       212.000         152.000
  22768069.256   -11906110.34849  -8905949.00346  22768068.504    22768075.604
       224.000         175.000
  23231143.980    -4067367.55949  -3149098.55546  23231144.124    23231149.604
       223.000         169.000
  20928178.789   -25490891.82749 -19839903.89547  20928177.914    20928183.930
       241.000         206.000
  22125600.519    -9898399.14049  -7310826.39347  22125600.046    22125604.922
       235.000         189.000
 03  3 25  2  7  0.0000000  0  8G14G 3G17G 9G31G23G15G18
  20235929.694   -21097849.72449 -16417811.74548  20235929.098    20235933.497
       242.000         216.000
  22289544.388   -13721559.64349 -10676808.74546  22289544.040    22289550.561
       230.000         183.000
                  -8284603.23548  -6434161.14644
       184.000         102.000
  23680533.418      678984.03449    559411.98545  23680533.468    23680540.333
       211.000         154.000
  22767644.187   -11908343.66749  -8907689.23946  22767642.829    22767649.743
       223.000         175.000
  23240723.363    -4017027.49249  -3109872.52346  23240722.613    23240728.921
       224.000         170.000
  20938623.986   -25436001.27549 -19797132.03247  20938623.343    20938629.296
       241.000         205.000
  22135148.240    -9848225.72949  -7271730.21147  22135147.926    22135152.545
       235.000         189.000
 03  3 25  2  7 30.0000000  0  8G14G 3G17G 9G31G23G15G18
  20234194.849   -21106966.02749 -16424915.32848  20234194.559    20234198.692
       242.000         216.000
  22297564.918   -13679411.16349 -10643965.77346  22297564.657    22297570.911
       231.000         183.000
                  -8192134.32248  -6362107.45544
       178.000         101.000
  23689798.193      727671.01449    597349.91845  23689797.504    23689804.036
       209.000         152.000
  22767322.976   -11910030.90749  -8909003.94846  22767322.830    22767328.599
       225.000         174.000
  23250306.275    -3966669.00849  -3070632.14146  23250306.078    23250312.070
       224.000         171.000
  20949151.718   -25380677.53549 -19754022.62347  20949151.364    20949157.142
       242.000         205.000
  22144713.131    -9797962.03049  -7232563.67347  22144712.235    22144717.653
       234.000         189.000
 03  3 25  2  8  0.0000000  0  8G14G 3G17G 9G31G23G15G18
  20232556.544   -21115575.55649 -16431624.03048  20232556.193    20232560.523
       242.000         217.000
  22305667.418   -13636832.75149 -10610787.78846  22305667.298    22305673.641
       230.000         183.000
                  -8099387.73348  31555605.66843
       172.000          74.000
  23699166.645      776902.61449    635712.22245  23699166.319    23699173.430
       211.000         152.000
  22767105.842   -11911172.00049  -8909893.09246  22767105.931    22767112.466
       225.000         174.000
  23259892.999    -3916290.98649  -3031376.52446  23259892.422    23259899.607
       225.000         171.000
  20959762.062   -25324920.07149 -19710575.25247  20959761.889    20959767.641
       242.000         205.000
  22154295.362    -9747606.98549  -7193325.96547  22154295.071    22154299.730
       235.000         189.000
 03  3 25  2  8 30.0000000  0  9G14G 3G25G17G 9G31G23G15G18
  20231014.480   -21123679.10049 -16437938.45948  20231013.911    20231018.442
       241.000         217.000
  22313851.299   -13593826.30249 -10577276.26546  22313850.763    22313856.832
       232.000         183.000
                   -907049.94649   -677160.21343
       207.000          74.000
                  -8006364.54258  31627988.40343
       167.000          74.000
  23708638.489      826677.34349    674497.76445  23708638.141    23708645.132
       211.000         153.000
  22766992.594   -11911767.33649  -8910357.00246  22766993.119    22766999.200
       226.000         175.000
  23269483.557    -3865893.02049  -2992105.35746  23269484.281    23269488.833
       225.000         172.000
  20970454.899   -25268729.31049 -19666790.24047  20970454.766    20970460.416
       242.000         205.000
  22163894.942    -9697160.73749  -7154017.18347  22163894.605    22163899.078
       234.000         189.000
 03  3 25  2  9  0.0000000  0  9G14G 3G25G17G 9G31G23G15G18
  20229568.149   -21131279.08549 -16443860.49748  20229567.652    20229572.368
       241.000         216.000
  22322115.841   -13550396.00349 -10543434.47746  22322115.801    22322122.327
       231.000         183.000
                  -1005466.71849   -407265.99143
       210.000          74.000
                  -7913068.31948  31700572.39943
       174.000          74.000
  23718213.016      876991.90849    713703.94145  23718213.213    23718219.975
       212.000         154.000
  22766982.790   -11911819.49249  -8910397.63546  22766982.266    22766989.302
       226.000         176.000
  23279077.571    -3815476.66149  -2952819.86546  23279076.681    23279083.030
       226.000         172.000
  20981229.758   -25212107.48149 -19622669.32147  20981229.337    20981235.265
       241.000         205.000
  22173511.525    -9646625.12249  -7114638.76647  22173511.078    22173516.055
       235.000         189.000
 03  3 25  2  9 30.0000000  0  9G14G 3G25G17G 9G31G23G15G18
  20228217.440   -21138377.04749 -16449391.35448  20228217.177    20228221.609
       242.000         217.000
  22330460.370   -13506544.97949 -10509264.85346  22330460.014    22330467.664
       230.000         184.000
                  -1103921.12949   -483983.21443
       208.000          74.000
                  -7819501.35358  31662783.55243
       174.000          74.000
  23727889.930      927844.17649    753329.09945  23727889.584    23727896.072
       213.000         153.000
  22767075.803   -11911329.84049  -8910016.06046  22767075.382    22767081.834
       224.000         175.000
  23288674.977    -3765042.39849  -2913520.41746  23288674.416    23288680.507
       225.000         170.000
  20992086.206   -25155055.99049 -19578213.60147  20992085.242    20992091.438
       240.000         204.000
  22183145.035    -9596000.93249  -7075191.33547  22183144.728    22183148.846
       234.000         188.000
 03  3 25  2 10  0.0000000  0  9G14G 3G25G17G 9G31G23G15G18
  20226962.451   -21144972.10349 -16454530.33748  20226961.916    20226966.341
       241.000         217.000
  22338884.888   -13462273.47249 -10474767.58446  22338884.752    22338891.389
       231.000         185.000
                  -1202408.64449   -560726.62244                  24203929.626
       209.000         120.000
                  -7725662.69848  31735937.21843
       173.000          74.000
  23737669.061      979234.47449    793373.52745  23737668.484    23737675.243
       211.000         153.000
  22767272.248   -11910297.25349  -8909211.45746  22767272.105    22767278.916
       224.000         175.000
  23298276.151    -3714587.85249  -2874205.16246  23298275.270    23298281.371
       225.000         169.000
  21003024.610   -25097573.78549 -19533422.26747  21003024.159    21003030.074
       240.000         203.000
  22192795.766    -9545286.39449  -7035673.49847  22192795.917    22192799.975
       235.000         188.000
 03  3 25  2 10 30.0000000  0  9G14G 3G25G17G 9G31G23G15G18
  20225802.961   -21151064.91349 -16459277.95348  20225802.468    20225806.707
       241.000         216.000
  22347389.156   -13417583.37249 -10439944.12646  22347388.785    22347395.832
       231.000         184.000
  24185175.239    -1300926.38149   -637493.48245  24185174.532    24185182.534
       208.000         139.000
                  -7631553.23148  31809308.42343
       170.000          74.000
  23747550.220     1031161.59349    833836.23345  23747549.613    23747556.576
       209.000         152.000
  22767572.052   -11908722.18849  -8907984.13046  22767572.168    22767578.263
       226.000         175.000
  23307881.296    -3664112.62349  -2834873.79746  23307881.160    23307887.086
       223.000         170.000
  21014045.028   -25039661.03049 -19488295.44047  21014044.260    21014050.642
       239.000         203.000
  22202463.642    -9494481.40149  -6996085.18147  22202463.025    22202467.392
       232.000         188.000
 03  3 25  2 11  0.0000000  0  9G14G 3G25G17G 9G31G23G15G18
  20224739.109   -21156655.47149 -16463634.20648  20224738.685    20224743.012
       242.000         216.000
  22355972.814   -13372476.27249 -10404795.73846  22355972.742    22355978.953
       232.000         184.000
  24166422.711    -1399470.86549   -714281.19645  24166422.034    24166430.238
       209.000         143.000
                  -7537170.87758  31769215.76343
       165.000          74.000
  23757533.453     1083624.73049    874716.62445  23757533.572    23757540.096
       210.000         153.000
  22767974.991   -11906604.63549  -8906334.08746  22767974.519    22767981.654
       224.000         175.000
  23317490.552    -3613615.77749  -2795525.59846  23317490.078    23317496.426
       225.000         171.000
  21025147.372   -24981317.46849 -19442832.91947  21025146.534    21025153.307
       239.000         203.000
  22212148.724    -9443585.12249  -6956425.73146  22212148.450    22212152.838
       232.000         186.000
 03  3 25  2 11 30.0000000  0  9G14G 3G25G17G 9G31G23G15G18
  20223770.609   -21161745.04349 -16467600.08948  20223770.295    20223774.462
       242.000         216.000
  22364635.329   -13326955.08849 -10369324.67846  22364635.185    22364641.698
       231.000         183.000
  24147665.580    -1498040.03549   -791088.14045  24147664.740    24147672.725
       209.000         144.000
                  -7442523.47557  31843061.45143
       157.000          74.000
  23767618.625     1136622.22949    916013.40245  23767618.410    23767625.336
       211.000         152.000
  22768480.807   -11903945.83549  -8904262.29046  22768479.999    22768487.329
       223.000         175.000
  23327103.796    -3563097.40849  -2756160.61346  23327103.312    23327109.306
       224.000         172.000
  21036331.458   -24922544.47249 -19397035.77547  21036330.711    21036337.415
       240.000         203.000
  22221851.120    -9392598.09149  -6916695.57146  22221850.693    22221855.654
       232.000         185.000
 03  3 25  2 12  0.0000000  0  9G14G 3G25G17G 9G31G23G15G18
  20222897.112   -21166335.11549 -16471176.74648  20222896.760    20222900.927
       241.000         216.000
  22373375.951   -13281022.84349 -10333533.31446  22373376.114    22373381.561
       230.000         182.000
  24128904.017    -1596632.20349   -867913.02345  24128903.458    24128909.782
       208.000         144.000
                  -7347610.08158  31917145.91143
       165.000          74.000
  23777805.004     1190152.03849    957724.96345  23777805.658    23777810.859
       211.000         151.000
  22769089.456   -11900747.17749  -8901769.82446  22769088.998    22769096.269
       225.000         175.000
  23336721.237    -3512557.76849  -2716779.06646  23336721.254    23336726.411
       224.000         172.000
  21047597.138   -24863342.96349 -19350904.72047  21047596.732    21047602.852
       240.000         203.000
  22231570.689    -9341520.94849  -6876895.18646  22231570.324    22231575.270
       232.000         184.000
 03  3 25  2 12 30.0000000  0  9G14G 3G25G17G 9G31G23G15G18
  20222118.411   -21170427.22249 -16474365.37648  20222118.139    20222122.140
       242.000         216.000
  22382194.277   -13234682.24449 -10297423.76046  22382194.329    22382200.423
       230.000         183.000
  24110138.413    -1695245.13649   -944754.05845  24110138.309    24110145.879
       208.000         144.000
                  -7252432.65657  31876159.78343
       163.000          74.000
  23788092.198     1244211.78849    999849.45645  23788092.107    23788098.895
       212.000         151.000
  22769800.650   -11897010.08849  -8898857.80546  22769800.705    22769807.404
       225.000         175.000
  23346342.636    -3461996.99949  -2677381.05046  23346341.834    23346348.425
       223.000         172.000
  21058944.131   -24803714.47349 -19304440.96547  21058943.697    21058949.685
       240.000         203.000
  22241307.308    -9290354.30949  -6837025.06946  22241306.594    22241311.145
       232.000         184.000
 03  3 25  2 13  0.0000000  0  9G14G 3G25G17G 9G31G23G15G18
  20221434.445   -21174021.67149 -16477166.22848  20221434.162    20221438.148
       242.000         217.000
  22391089.932   -13187935.11149 -10260997.42346  22391090.521    22391096.201
       230.000         183.000
  24091369.538    -1793875.62249  -1021608.78545  24091369.532    24091376.159
       211.000         146.000
                  -7156992.25657  31950542.08343
       162.000          74.000
  23798480.139     1298800.46249   1042386.08845  23798480.275    23798486.775
       211.000         153.000
  22770614.331   -11892734.78049  -8895526.40946  22770614.462    22770620.755
       225.000         175.000
  23355968.196    -3411414.23249  -2637965.88746  23355967.510    23355974.169
       223.000         171.000
  21070372.430   -24743658.59149 -19257644.17047  21070371.635    21070377.646
       240.000         203.000
  22251061.153    -9239097.50049  -6797084.67546  22251060.941    22251064.899
       232.000         184.000
 03  3 25  2 13 30.0000000  0  8G14G 3G25G 9G31G23G15G18
  20220844.939   -21177119.57649 -16479580.15948  20220844.591    20220848.874
       242.000         217.000
  22400062.613   -13140783.73949 -10224256.10046  22400062.140    22400068.558
       229.000         182.000
  24072597.777    -1892521.33349  -1098475.37445  24072597.458    24072604.982
       209.000         147.000
  23808968.290     1353916.37249   1085333.57645  23808968.214    23808974.935
       211.000         154.000
  22771530.157   -11887922.22849  -8891776.37346  22771529.908    22771536.306
       227.000         175.000
  23365598.022    -3360809.35649  -2598533.49546  23365597.234    23365603.786
       223.000         170.000
  21081881.790   -24683176.18749 -19210515.02047  21081881.087    21081886.978
       239.000         202.000
  22260832.101    -9187750.67749  -6757074.14646  22260831.387    22260836.769
       231.000         184.000
 03  3 25  2 14  0.0000000  0  8G14G 3G25G 9G31G23G15G18
  20220349.450   -21179722.97249 -16481608.75248  20220348.884    20220353.304
       241.000         217.000
  22409111.470   -13093231.76349 -10187202.62746  22409111.645    22409117.596
       230.000         182.000
  24053823.427    -1991180.66049  -1175352.57945  24053822.265    24053830.359
       210.000         148.000
  23819556.206     1409556.75249   1128689.72345  23819556.404    23819563.034
       211.000         154.000
  22772547.797   -11882574.40049  -8887609.23846  22772546.954    22772554.733
       225.000         175.000
  23375231.937    -3310182.90749  -2559084.29946  23375231.514    23375237.535
       222.000         169.000
  21093472.020   -24622268.97449 -19163054.85347  21093471.544    21093477.729
       239.000         202.000
  22270619.895    -9136314.79049  -6716994.23246  22270619.491    22270624.981
       230.000         184.000
 03  3 25  2 14 30.0000000  0  8G14G 3G25G 9G31G23G15G18
  20219948.416   -21181830.29849 -16483250.79848  20219948.091    20219952.266
       242.000         216.000
  22418236.503   -13045279.17149 -10149836.97746  22418236.128    22418243.403
       231.000         182.000
  24035047.355    -2089848.45949  -1252236.40345  24035046.893    24035053.477
       210.000         146.000
  23830244.170     1465722.53149   1172455.27745  23830244.215    23830250.677
       208.000         154.000
  22773667.665   -11876689.76149  -8883023.81346  22773667.308    22773673.926
       226.000         174.000
  23384870.405    -3259532.23849  -2519616.23246  23384869.242    23384875.725
       220.000         167.000
  21105143.445   -24560935.35249 -19115262.41347  21105143.213    21105148.716
       240.000         202.000
  22280425.089    -9084787.52349  -6676843.10946  22280424.863    22280429.820
       232.000         185.000
 03  3 25  2 15  0.0000000  0  8G14G 3G25G 9G31G23G15G18
  20219641.463   -21183443.05049 -16484507.46748  20219640.984    20219645.365
       241.000         217.000
  22427437.407   -12996928.61349 -10112161.21346  22427437.748    22427443.773
       232.000         183.000
  24016270.030    -2188522.90649  -1329125.38945  24016269.453    24016276.211
       209.000         146.000
  23841031.667     1522411.38749   1216628.42545  23841032.277    23841037.765
       209.000         153.000
  22774889.284   -11870269.81949  -8878021.26846  22774889.052    22774894.949
       227.000         175.000
  23394513.365    -3208857.62549  -2480129.50846  23394512.006    23394519.326
       219.000         165.000
  21116895.824   -24499176.54549 -19067138.65747  21116895.318    21116901.375
       240.000         202.000
  22290247.787    -9033169.67349  -6636621.39146  22290247.683    22290252.625
       234.000         186.000
 03  3 25  2 15 30.0000000  0  8G14G 3G25G 9G31G23G15G18
  20219428.324   -21184562.78149 -16485379.96048  20219427.771    20219432.235
       241.000         216.000
  22436713.419   -12948183.11349 -10074177.69246  22436712.667    22436719.975
       230.000         183.000
  23997491.876    -2287201.45149  -1406017.60345  23997490.333    23997500.143
       208.000         147.000
  23851918.374     1579621.39249   1261207.67045  23851918.430    23851925.061
       206.000         151.000
  22776212.600   -11863315.93049  -8872602.64446  22776212.216    22776218.129
       226.000         175.000
  23404160.908    -3158158.95549  -2440624.03646  23404160.257    23404167.267
       220.000         164.000
  21128728.824   -24436993.79549 -19018684.56447  21128728.276    21128734.400
       239.000         202.000
  22300087.666    -8981461.33049  -6596329.16146  22300087.171    22300092.309
       232.000         185.000
 03  3 25  2 16  0.0000000  0  8G14G 3G25G 9G31G23G15G18
  20219308.774   -21185190.55549 -16485869.11248  20219308.304    20219312.791
       241.000         216.000
  22446063.928   -12899045.22149 -10035888.43046  22446063.703    22446070.731
       227.000         180.000
  23978713.519    -2385881.56449  -1482911.00845  23978712.743    23978720.549
       206.000         146.000
  23862903.918     1637350.75849   1306191.59045  23862904.895    23862909.952
       206.000         149.000
  22777637.257   -11855829.07949  -8866768.74046  22777637.460    22777643.611
       226.000         176.000
  23413813.158    -3107436.03149  -2401099.66846  23413812.945    23413818.499
       222.000         165.000
  21140642.295   -24374387.73249 -18969900.62547  21140641.518    21140647.904
       239.000         202.000
  22309944.578    -8929662.49949  -6555966.42746  22309944.407    22309948.703
       232.000         185.000
 03  3 25  2 16 30.0000000  0  8G14G 3G25G 9G31G23G15G18
  20219282.731   -21185327.42149 -16485975.73548  20219282.582    20219286.759
       242.000         217.000
  22455488.573   -12849517.20949  -9997295.20646  22455488.279    22455495.284
       227.000         179.000
  23959935.286    -2484560.78049  -1559803.72345  23959934.762    23959942.939
       208.000         146.000
  23873987.946     1695597.74849   1351578.88545  23873987.263    23873995.316
       206.000         149.000
  22779163.246   -11847810.31349  -8860520.34946  22779162.744    22779169.310
       227.000         176.000
  23423470.185    -3056688.66049  -2361556.25546  23423470.399    23423475.837
       225.000         167.000
  21152636.241   -24311359.05349 -18920787.37647  21152635.645    21152642.144
       239.000         202.000
  22319818.814    -8877773.31749  -6515533.28646  22319818.581    22319822.640
       233.000         184.000
 03  3 25  2 17  0.0000000  0  8G14G 3G25G 9G31G23G15G18
  20219349.905   -21184974.51249 -16485700.71248  20219349.376    20219353.948
       241.000         217.000
  22464987.040   -12799601.92249  -9958400.19246  22464987.143    22464994.119
       229.000         181.000
  23941157.679    -2583236.17349  -1636693.46445  23941157.082    23941164.523
       208.000         146.000
  23885169.852     1754360.64749   1397368.20445  23885169.551    23885177.486
       207.000         149.000
  22780790.176   -11839260.83449  -8853858.41446  22780789.178    22780796.413
       226.000         175.000
  23433132.062    -3005916.32249  -2321993.37346  23433131.481    23433137.432
       225.000         168.000
  21164710.454   -24247908.54549 -18871345.41847  21164710.146    21164715.734
       239.000         201.000
  22329710.196    -8825793.87949  -6475029.81046  22329709.814    22329714.429
       231.000         184.000
 03  3 25  2 17 30.0000000  0  8G14G 3G25G 9G31G23G15G18
  20219510.028   -21184132.94149 -16485044.91648  20219509.855    20219513.999
       242.000         217.000
  22474558.854   -12749301.53349  -9919205.08546  22474558.827    22474566.160
       230.000         182.000
  23922381.301    -2681905.25049  -1713578.29645  23922381.290    23922388.722
       207.000         146.000
  23896449.897     1813637.59749   1443558.03145  23896449.632    23896456.704
       207.000         149.000
  22782517.750   -11830181.51649  -8846783.63846  22782517.421    22782524.186
       227.000         175.000
  23442798.584    -2955118.73249  -2282410.79946  23442797.539    23442804.720
       222.000         168.000
  21176864.848   -24184037.02649 -18821575.40647  21176864.572    21176870.234
       239.000         201.000
  22339618.730    -8773723.85049  -6434455.73946  22339618.254    22339623.121
       232.000         183.000
 03  3 25  2 18  0.0000000  0  8G14G 3G25G 9G31G23G15G18
  20219763.006   -21182803.83649 -16484009.22848  20219762.700    20219766.828
       242.000         217.000
  22484203.566   -12698618.55149  -9879711.86946  22484203.600    22484210.488
       231.000         182.000
  23903606.842    -2780565.53249  -1790456.24745  23903606.398    23903613.322
       208.000         147.000
  23907827.505     1873426.86849   1490147.08245  23907828.585    23907834.896
       207.000         148.000
  22784346.205   -11820573.51549  -8839296.88846  22784346.545    22784352.513
       228.000         177.000
  23452469.789    -2904295.44049  -2242808.23646  23452468.874    23452473.746
       221.000         166.000
  21189099.245   -24119745.36549 -18771478.02047  21189098.622    21189104.884
       239.000         201.000
  22349544.400    -8721563.88549  -6393811.59046  22349543.663    22349549.108
       231.000         182.000
 03  3 25  2 18 30.0000000  0  8G14G 3G25G 9G31G23G15G18
  20220108.439   -21180988.63349 -16482594.75648  20220108.030    20220112.157
       242.000         217.000
  22493920.501   -12647556.02649  -9839922.88446  22493920.263    22493927.181
       229.000         181.000
  23884834.392    -2879214.80649  -1867325.61745  23884834.053    23884842.249
       209.000         148.000
  23919302.233     1933725.81049   1537133.25645  23919302.901    23919307.956
       210.000         150.000
  22786274.917   -11810438.65649  -8831399.59446  22786274.690    22786280.794
       226.000         178.000
  23462145.972    -2853446.72549  -2203185.85246  23462145.545    23462151.228
       222.000         165.000
  21201413.201   -24055035.11249 -18721054.44847  21201412.388    21201418.748
       239.000         201.000
  22359487.144    -8669313.77949  -6353097.20446  22359486.640    22359491.614
       231.000         181.000
 03  3 25  2 19  0.0000000  0  8G14G 3G25G 9G31G23G15G18
  20220546.144   -21178688.40349 -16480802.35048  20220545.548    20220549.894
       241.000         217.000
  22503709.288   -12596116.03049  -9799839.77946  22503709.116    22503715.964
       228.000         178.000
  23866064.438    -2977850.34049  -1944184.30045  23866063.658    23866071.647
       208.000         149.000
  23930873.929     1994532.91849   1584515.42545  23930874.680    23930879.820
       210.000         151.000
  22788303.628   -11799777.72349  -8823092.36446  22788303.296    22788310.056
       226.000         176.000
  23471827.200    -2802571.83849  -2163543.07446  23471827.192    23471832.186
       221.000         164.000
  21213806.640   -23989906.95849 -18670305.24147  21213805.868    21213811.978
       238.000         201.000
  22369447.201    -8616973.55949  -6312312.60646  22369447.004    22369452.162
       232.000         182.000
 03  3 25  2 19 30.0000000  0  8G14G 3G25G 9G31G23G15G18
  20221075.831   -21175904.27849 -16478632.88148  20221075.401    20221079.632
       242.000         216.000
  22513569.378   -12544301.07649  -9759464.49146  22513569.320    22513576.087
       226.000         177.000
  23847297.747    -3076469.55749  -2021030.26445  23847297.849    23847304.629
       212.000         150.000
  23942541.484     2055846.44049   1632292.21145  23942541.104    23942546.608
       207.000         151.000
  22790432.266   -11788591.83849  -8814376.08346  22790432.392    22790439.107
       226.000         177.000
  23481513.429    -2751670.44649  -2123879.64545  23481512.857    23481518.356
       219.000         162.000
  21226279.451   -23924361.64249 -18619230.96647  21226278.613    21226285.013
       238.000         201.000
  22379424.459    -8564543.04449  -6271457.65046  22379424.517    22379428.872
       232.000         182.000
 03  3 25  2 20  0.0000000  0  8G14G 3G25G 9G31G23G15G18
  20221697.600   -21172636.82349 -16476086.79048  20221697.350    20221701.438
       242.000         217.000
  22523500.254   -12492113.44349  -9718798.80746  22523500.335    22523506.682
       228.000         176.000
  23828534.959    -3175068.95249  -2097860.77845  23828534.499    23828542.478
       212.000         150.000
  23954305.129     2117665.02749   1680462.54345  23954304.510    23954311.171
       205.000         149.000
  22792660.677   -11776881.57049  -8805251.18946  22792659.430    22792667.587
       224.000         177.000
  23491204.663    -2700741.49549  -2084194.73845  23491204.068    23491208.258
       220.000         161.000
  21238831.610   -23858399.32649 -18567831.76047  21238830.803    21238837.035
       238.000         201.000
  22389418.819    -8512021.68249  -6230531.89346  22389418.248    22389422.494
       231.000         181.000
 03  3 25  2 20 30.0000000  0  8G14G 3G25G 9G31G23G15G18
  20222411.179   -21168886.99649 -16473164.82748  20222410.886    20222414.977
       242.000         217.000
  22533501.694   -12439555.39949  -9677844.49546  22533501.412    22533508.486
       227.000         178.000
  23809776.425    -3273645.61749  -2174673.58545  23809775.975    23809784.275
       213.000         149.000
  23966164.225     2179987.21049   1729025.33445  23966163.610    23966170.554
       208.000         148.000
  22794988.377   -11764647.85349  -8795718.42646  22794987.019    22794994.644
       221.000         175.000
  23500901.421    -2649784.42649  -2044487.91545  23500901.395    23500907.575
       221.000         161.000
  21251463.014   -23792020.64849 -18516108.11947  21251462.439    21251468.437
       238.000         201.000
  22399430.606    -8459408.99149  -6189534.96446  22399430.357    22399434.321
       230.000         180.000
 03  3 25  2 21  0.0000000  0  8G14G 3G25G 9G31G23G15G18
  20223216.276   -21164656.14249 -16469868.04048  20223215.949    20223220.194
       242.000         217.000
  22543573.166   -12386629.53249  -9636603.55746  22543573.059    22543579.191
       231.000         180.000
  23791022.697    -3372197.16849  -2251466.83645  23791022.908    23791029.602
       214.000         151.000
  23978118.932     2242810.99649   1777978.93945  23978118.314    23978125.785
       206.000         147.000
  22797415.531   -11751892.07749  -8785778.85646  22797414.948    22797423.081
       221.000         175.000
  23510603.568    -2598798.94249  -2004758.95546  23510603.248    23510609.116
       222.000         163.000
  21264173.445   -23725226.59449 -18464060.80147  21264173.039    21264179.317
       238.000         200.000
  22409459.771    -8406705.21549  -6148467.07746  22409459.554    22409463.940
       230.000         181.000
 03  3 25  2 21 30.0000000  0  8G14G 3G25G 9G31G23G15G18
  20224112.577   -21159946.04049 -16466197.80948  20224112.358    20224116.373
       241.000         217.000
  22553714.020   -12333339.14249  -9595078.57646  22553713.329    22553720.872
       231.000         181.000
  23772274.227    -3470721.43249  -2328238.81945  23772274.217    23772280.562
       215.000         151.000
  23990168.775     2306133.68049   1827321.33145  23990168.412    23990175.697
       210.000         147.000
  22799941.804   -11738616.09349  -8775433.93446  22799941.449    22799948.692
       222.000         175.000
  23520311.056    -2547785.19049  -1965007.97946  23520310.648    23520317.166
       222.000         164.000
  21276962.728   -23658018.61849 -18411690.95147  21276962.126    21276968.181
       239.000         199.000
  22419506.095    -8353911.09049  -6107328.79746  22419505.629    22419511.092
       229.000         182.000
 03  3 25  2 22  0.0000000  0  8G14G 3G25G 9G31G23G15G18
  20225099.891   -21154757.92949 -16462155.10348  20225099.665    20225103.553
       241.000         217.000
  22563923.811   -12279686.35849  -9553271.22146  22563923.331    22563930.591
       229.000         181.000
  23753531.304    -3569215.50649  -2404987.27445  23753530.413    23753537.675
       215.000         152.000
  24002313.494     2369953.65749   1877051.18545  24002313.424    24002319.886
       209.000         147.000
  22802566.801   -11724820.98649  -8764684.47446  22802565.712    22802574.007
       220.000         174.000
  23530024.107    -2496742.68349  -1925234.58046  23530023.803    23530029.430
       224.000         166.000
  21289830.623   -23590397.45849 -18358999.13647  21289830.147    21289836.164
       238.000         199.000
  22429569.658    -8301026.11849  -6066119.71246  22429569.182    22429574.857
       230.000         183.000
 03  3 25  2 22 30.0000000  0  8G14G 3G25G 9G31G23G15G18
  20226177.937   -21149092.86249 -16457740.74948  20226177.419    20226181.571
       241.000         217.000
  22574202.048   -12225673.57449  -9511183.37146  22574201.505    22574208.836
       227.000         179.000
  23734794.663    -3667676.90849  -2481710.28445  23734793.594    23734800.780
       217.000         153.000
  24014552.468     2434268.75049   1927166.83945  24014552.931    24014557.853
       211.000         148.000
  22805290.177   -11710507.95249  -8753531.45446  22805289.686    22805297.650
       218.000         174.000
  23539742.662    -2445670.93249  -1885438.38346  23539742.206    23539747.587
       222.000         166.000
  21302776.932   -23522364.12749 -18305986.15847  21302776.685    21302782.368
       238.000         199.000
  22439650.642    -8248050.12249  -6024839.70646  22439650.603    22439655.289
       230.000         183.000
 03  3 25  2 23  0.0000000  0  8G14G 3G25G 9G31G23G15G18
  20227346.405   -21142952.26849 -16452955.84548  20227346.160    20227350.170
       241.000         217.000
  22584548.175   -12171303.62949  -9468817.19046  22584547.673    22584554.661
       226.000         176.000
  23716064.679    -3766102.94049  -2558405.72945  23716064.810    23716070.465
       217.000         155.000
  24026885.212     2499076.94349   1977666.71045  24026885.763    24026891.435
       208.000         149.000
  22808112.097   -11695678.47649  -8741976.00246  22808111.693    22808119.484
       219.000         174.000
  23549466.645    -2394569.74049  -1845619.26046  23549466.004    23549471.736
       222.000         166.000
  21315801.533   -23453919.68249 -18252652.82047  21315800.898    21315806.978
       238.000         200.000
  22449748.952    -8194983.38049  -5983488.98546  22449749.052    22449753.891
       230.000         182.000
 03  3 25  2 23 30.0000000  0  8G14G 3G25G 9G31G23G15G18
  20228605.295   -21136336.86849 -16447800.97348  20228604.778    20228608.963
       241.000         217.000
  22594961.922   -12116579.04549  -9426174.66346  22594961.594    22594968.731
       228.000         175.000
  23697341.887    -3864490.77249  -2635071.44945  23697341.032    23697347.387
       216.000         156.000
  24039311.458     2564376.81749   2028549.73345  24039311.171    24039318.104
       207.000         148.000
  22811032.080   -11680333.51649  -8730018.88546  22811030.172    22811039.321
       216.000         173.000
  23559196.622    -2343438.30949  -1805776.58446  23559197.327    23559201.999
       223.000         167.000
  21328904.142   -23385064.91649 -18198999.75747  21328903.477    21328909.560
       238.000         200.000
  22459864.600    -8141825.43749  -5942067.19646  22459864.289    22459869.321
       230.000         180.000
 03  3 25  2 24  0.0000000  0  8G14G 3G25G 9G31G23G15G18
  20229954.137   -21129248.44449 -16442277.51148  20229953.635    20229957.648
       240.000         217.000
  22605442.753   -12061502.46049  -9383257.84846  22605442.878    22605449.548
       229.000         177.000
  23678626.807    -3962837.53449  -2711705.15945  23678625.319    23678633.296
       214.000         156.000
  24051830.761     2630165.91749   2079813.99145  24051830.534    24051836.295
       205.000         146.000
  22814049.613   -11664474.71849  -8717661.38046  22814049.023    22814057.246
       219.000         172.000
  23568932.510    -2292276.33949  -1765910.11046  23568932.308    23568938.648
       221.000         166.000
  21342084.628   -23315801.02249 -18145027.89747  21342084.482    21342090.073
       239.000         200.000
  22469997.596    -8088576.36649  -5900574.40146  22469997.754    22470002.155
       229.000         180.000
 03  3 25  2 24 30.0000000  0  8G14G 3G25G 9G31G23G15G18
  20231392.744   -21121688.06549 -16436386.28948  20231392.249    20231396.345
       241.000         217.000
  22615990.023   -12006076.42549  -9340068.72146  22615990.236    22615996.507
       229.000         179.000
  23659920.091    -4061140.46549  -2788304.71645  23659919.888    23659927.075
       216.000         157.000
  24064442.639     2696442.29949   2131457.94345  24064443.103    24064448.767
       208.000         146.000
  22817164.960   -11648103.18249  -8704904.30246  22817165.155    22817172.487
       222.000         173.000
  23578674.108    -2241083.18049  -1726019.33046  23578673.674    23578680.265
       220.000         165.000
  21355342.941   -23246128.62449 -18090737.72047  21355342.564    21355348.773
       238.000         199.000
  22480147.967    -8035235.86749  -5859010.35946  22480148.007    22480152.214
       230.000         180.000
 03  3 25  2 25  0.0000000  0  8G14G 3G25G 9G31G23G15G18
  20232920.896   -21113657.40149 -16430128.60948  20232920.561    20232924.605
       241.000         217.000
  22626603.161   -11950304.00049  -9296609.68746  22626602.919    22626609.507
       230.000         180.000
  23641222.337    -4159397.38149  -2864868.43745  23641221.233    23641229.413
       216.000         158.000
  24077146.895     2763203.71449   2183479.83545  24077147.048    24077153.364
       207.000         147.000
  22820377.860   -11631220.66049  -8691749.06946  22820378.571    22820384.873
       223.000         174.000
  23588421.716    -2189858.78849  -1686104.22446  23588422.115    23588427.954
       219.000         164.000
  21368678.676   -23176048.98849 -18036130.20747  21368677.662    21368683.610
       237.000         197.000
  22490315.688    -7981804.10049  -5817375.19446  22490315.798    22490320.188
       231.000         181.000
 03  3 25  2 25 30.0000000  0  8G14G 3G25G 9G31G23G15G18
  20234538.263   -21105157.93249 -16423505.63148  20234538.031    20234542.250
       241.000         218.000
  22637281.746   -11894187.93649  -9252882.89646  22637282.126    22637287.780
       230.000         180.000
  23622533.881    -4257605.34449  -2941393.98345  23622533.460    23622540.726
       215.000         159.000
  24089943.059     2830448.04349   2235878.01845  24089942.580    24089949.406
       210.000         148.000
  22823687.699   -11613828.76249  -8678196.92846  22823687.680    22823694.642
       222.000         173.000
  23598175.436    -2138602.75049  -1646164.45246  23598174.873    23598181.670
       220.000         164.000
  21382091.614   -23105563.33349 -17981206.31847  21382090.737    21382096.875
       236.000         195.000
  22500500.722    -7928281.30349  -5775669.10246  22500500.258    22500505.008
       230.000         181.000
 03  3 25  2 26  0.0000000  0  8G14G 3G25G 9G31G23G15G18
  20236244.639   -21096190.95049 -16416518.35348  20236244.120    20236248.672
       241.000         218.000
  22648025.358   -11837730.63849  -9208890.19446  22648025.878    22648031.939
       228.000         179.000
  23603855.134    -4355761.53949  -3017879.20945  23603855.221    23603862.094
       217.000         159.000
  24102831.032     2898173.27649   2288650.92245  24102831.077    24102837.685
       211.000         150.000
  22827094.076   -11595928.79449  -8664248.90046  22827094.401    22827100.827
       224.000         174.000
  23607935.321    -2087314.70449  -1606199.74346  23607935.396    23607941.358
       222.000         165.000
  21395581.491   -23034672.88449 -17925966.99747  21395580.378    21395586.483
       235.000         194.000
  22510703.170    -7874667.13249  -5733891.81846  22510702.765    22510707.810
       229.000         181.000
 03  3 25  2 26 30.0000000  0  8G14G 3G25G 9G31G23G15G18
  20238039.753   -21086757.46249 -16409167.56748  20238039.427    20238043.558
       241.000         218.000
  22658833.240   -11780934.58949  -9164633.53946  22658832.737    22658839.495
       225.000         177.000
  23585186.942    -4453863.09549  -3094321.84745  23585185.676    23585193.627
       217.000         159.000
  24115810.227     2966377.29049   2341796.88845  24115811.221    24115815.864
       211.000         150.000
  22830596.878   -11577522.15549  -8649906.05646  22830597.057    22830603.364
       224.000         175.000
  23617701.597    -2035993.94149  -1566209.53846  23617701.705    23617707.473
       222.000         165.000
  21409148.274   -22963378.34849 -17870412.80547  21409147.606    21409154.103
       236.000         194.000
  22520923.009    -7820961.30149  -5692043.09546  22520922.360    22520927.270
       228.000         180.000
 03  3 25  2 27  0.0000000  0  8G14G 3G25G 9G31G23G15G18
  20239923.383   -21076858.97949 -16401454.45048  20239923.203    20239927.093
       242.000         218.000
  22669705.146   -11723802.46449  -9120115.02446  22669705.220    22669711.823
       227.000         177.000
  23566529.678    -4551907.61149  -3170720.05845  23566528.542    23566535.713
       217.000         160.000
  24128880.186     3035058.29149   2395314.55745  24128880.584    24128885.245
       213.000         150.000
  22834195.630   -11558610.12149  -8635169.38746  22834195.046    22834202.047
       225.000         175.000
  23627474.194    -1984639.83349  -1526193.34246  23627473.920    23627479.782
       223.000         164.000
  21422791.871   -22891680.74849 -17814544.55347  21422791.490    21422797.544
       237.000         195.000
  22531160.358    -7767163.65749  -5650122.84246  22531159.853    22531164.347
       227.000         179.000
 03  3 25  2 27 30.0000000  0  8G14G 3G25G 9G31G23G15G18
  20241895.249   -21066496.77949 -16393379.99248  20241895.058    20241899.096
       241.000         218.000
  22680640.490   -11666337.11649  -9075336.84146  22680640.689    22680646.645
       227.000         178.000
  23547883.655    -4649892.25749  -3247071.64245  23547883.579    23547890.480
       216.000         160.000
  24142040.145     3104214.07249   2449202.20845  24142038.804    24142045.458
       207.000         149.000
  22837890.488   -11539194.26549  -8620040.14246  22837890.917    22837896.519
       227.000         174.000
  23637253.220    -1933252.00949  -1486150.87146  23637252.101    23637258.943
       220.000         163.000
  21436512.017   -22819581.31949 -17758363.17347  21436511.642    21436517.708
       237.000         196.000
  22541415.203    -7713273.90949  -5608130.82946  22541414.673    22541420.113
       227.000         178.000
 03  3 25  2 28  0.0000000  0  8G14G 3G25G 9G31G23G15G18
  20243955.145   -21055671.81849 -16384944.93748  20243954.632    20243959.017
       241.000         218.000
  22691638.838   -11608540.67949  -9030300.66346  22691638.875    22691645.612
       228.000         178.000
  23529249.735    -4747813.72349  -3323373.95845  23529249.709    23529256.160
       220.000         161.000
  24155289.800     3173842.94349   2503458.47245  24155289.031    24155294.922
       209.000         148.000
  22841681.187   -11519275.58049  -8604519.10646  22841680.803    22841687.863
       226.000         175.000
  23647038.514    -1881829.55649  -1446081.40145  23647038.316    23647043.726
       217.000         161.000
  21450308.534   -22747080.43349 -17701868.97747  21450307.791    21450314.398
       237.000         197.000
  22551687.756    -7659291.51449  -5566066.62646  22551687.691    22551691.967
       228.000         179.000
 03  3 25  2 28 30.0000000  0  8G14G 3G25G 9G31G23G15G18
  20246102.759   -21044385.58349 -16376150.44748  20246102.375    20246106.509
       241.000         218.000
  22702699.740   -11550415.54949  -8985008.35246  22702698.999    22702706.845
       226.000         177.000
  23510628.395    -4845669.44449  -3399625.06646  23510628.910    23510635.133
       221.000         163.000
  24168629.143     3243942.77149   2558081.72345  24168627.817    24168635.146
       209.000         146.000
  22845566.939   -11498855.65749  -8588607.48146  22845566.713    22845573.620
       227.000         175.000
  23656830.377    -1830372.09349  -1405984.67945  23656829.538    23656835.766
       216.000         159.000
  21464181.124   -22674179.41849 -17645063.00047  21464180.687    21464186.947
       237.000         198.000
  22561977.863    -7605216.91649  -5523930.56346  22561977.798    22561981.954
       229.000         179.000
 03  3 25  2 29  0.0000000  0  8G14G 3G25G 9G31G23G15G18
  20248337.979   -21032639.55449 -16366997.68348  20248337.717    20248341.624
       242.000         218.000
  22713822.456   -11491964.56249  -8939462.14946  22713822.288    22713829.324
       226.000         177.000
  23492020.239    -4943456.68949  -3475822.83346  23492019.953    23492026.782
       221.000         164.000
  24182057.699     3314511.31449   2613070.22445  24182057.080    24182063.266
       209.000         146.000
  22849547.747   -11477936.07749  -8572306.48346  22849547.447    22849552.754
       227.000         174.000
  23666629.036    -1778879.07549  -1365860.24045  23666628.224    23666634.558
       216.000         159.000
  21478129.750   -22600879.40649 -17587946.11647  21478129.041    21478135.266
       238.000         198.000
  22572285.632    -7551049.52449  -5481722.20146  22572285.742    22572289.740
       230.000         180.000
 03  3 25  2 29 30.0000000  0  8G14G 3G25G 9G31G23G15G18
  20250660.416   -21020435.32849 -16357487.87848  20250659.910    20250664.156
       241.000         218.000
  22725006.656   -11433190.80949  -8893664.45646  22725006.525    22725013.314
       225.000         177.000
  23473425.388    -5041172.99149  -3551965.30046  23473425.895    23473431.862
       223.000         166.000
  24195575.173     3385546.13549   2668422.05545  24195575.262    24195580.855
       209.000         145.000
  22853623.347   -11456518.60749  -8555617.56346  22853623.066    22853629.403
       227.000         174.000
  23676434.519    -1727350.30049  -1325707.95345  23676433.146    23676439.834
       215.000         159.000
  21492154.005   -22527181.91549 -17530519.50847  21492153.452    21492158.941
       238.000         198.000
  22582611.057    -7496789.32349  -5439441.51546  22582611.104    22582615.107
       230.000         181.000
 03  3 25  2 30  0.0000000  0  8G14G 3G25G 9G31G23G15G18
  20253069.719   -21007774.03349 -16347621.91748  20253069.312    20253073.551
       242.000         218.000
  22736251.911   -11374096.51049  -8847616.97546  22736251.621    22736258.428
       225.000         177.000
  23454844.631    -5138814.80749  -3628049.73746  23454844.039    23454850.692
       221.000         166.000
  24209181.178     3457045.62349   2724135.94645  24209181.133    24209187.551
       208.000         144.000
  22857793.577   -11434604.46649  -8538541.60046  22857793.509    22857799.628
       228.000         175.000
  23686246.942    -1675784.78349  -1285527.02645  23686246.613    23686252.742
       214.000         158.000
  21506253.685   -22453087.54749 -17472783.63947  21506253.231    21506258.814
       238.000         197.000
  22592954.190    -7442435.91049  -5397088.19046  22592953.254    22592957.784
       228.000         181.000
 03  3 25  2 30 30.0000000  0  8G14G 3G25G 9G31G23G15G18
  20255565.610   -20994657.85349 -16337401.49848  20255565.354    20255569.378
       242.000         218.000
  22747557.458   -11314684.98949  -8801322.29546  22747557.124    22747564.312
       224.000         175.000
  23436278.398    -5236380.30249  -3704074.70046  23436278.282    23436284.423
       223.000         167.000
  24222874.972     3529006.77649   2780209.56545  24222875.202    24222879.731
       208.000         144.000
  22862057.970   -11412196.04149  -8521080.50746  22862058.057    22862063.764
       229.000         174.000
  23696066.362    -1624182.91149  -1245317.77345  23696065.655    23696072.536
       215.000         157.000
  21520428.609   -22378598.09349 -17414739.90947  21520427.868    21520433.913
       237.000         196.000
  22603314.852    -7387989.79549  -5354662.63646  22603313.991    22603318.932
       228.000         179.000
 03  3 25  2 31  0.0000000  0  8G14G 3G25G 9G31G23G15G18
  20258147.658   -20981089.14249 -16326828.45748  20258147.256    20258151.321
       242.000         218.000
  22758922.641   -11254959.89849  -8754783.26846  22758923.125    22758929.040
       226.000         174.000
  23417727.025    -5333867.88549  -3780038.95946  23417726.375    23417733.456
       221.000         167.000
  24236655.897     3601426.36549   2836640.41645  24236654.713    24236660.651
       209.000         145.000
  22866415.710   -11389295.70349  -8503236.08646  22866415.030    22866421.217
       226.000         173.000
  23705892.697    -1572545.06849  -1205080.51545  23705892.132    23705898.623
       213.000         157.000
  21534678.247   -22303715.43349 -17356389.78447  21534677.663    21534683.527
       235.000         194.000
  22613693.049    -7333451.52349  -5312165.26946  22613692.686    22613697.706
       228.000         178.000
 03  3 25  2 31 30.0000000  0  8G14G 3G25G 9G31G23G15G18
  20260815.855   -20967067.47449 -16315902.46048  20260815.559    20260819.531
       242.000         218.000
  22770347.527   -11194922.07449  -8708000.54846  22770347.556    22770354.136
       225.000         173.000
  23399191.419    -5431272.74249  -3855938.73646  23399190.537    23399197.466
       221.000         168.000
  24250523.852     3674303.92849   2893428.14645  24250522.752    24250528.430
       207.000         145.000
  22870866.950   -11365903.49949  -8485008.39746  22870866.948    22870872.194
       227.000         172.000
  23715726.083    -1520869.03049  -1164813.48545  23715724.875    23715731.803
       211.000         157.000
  21549002.786   -22228439.18649 -17297732.97747  21549001.926    21549008.400
       235.000         194.000
  22624089.183    -7278819.38449  -5269594.77046  22624089.429    22624093.399
       227.000         176.000
 03  3 25  2 32  0.0000000  0  8G14G 3G25G 9G31G23G15G18
  20263569.876   -20952595.01249 -16304625.19548  20263569.633    20263573.368
       242.000         218.000
  22781831.217   -11134575.02349  -8660976.87346  22781830.867    22781838.695
       224.000         173.000
  23380672.015    -5528592.69049  -3931772.36846  23380670.888    23380678.159
       221.000         166.000
  24264478.319     3747636.84149   2950570.67145  24264477.762    24264483.358
       207.000         144.000
  22875411.685   -11342021.54749  -8466399.08246  22875410.663    22875417.525
       228.000         173.000
  23725566.928    -1469154.53449  -1124516.48945  23725567.391    23725573.156
       215.000         158.000
  21563401.927   -22152771.00049 -17238770.75447  21563401.258    21563407.761
       235.000         194.000
  22634503.176    -7224093.66349  -5226951.35946  22634502.480    22634506.327
       225.000         174.000
 03  3 25  2 32 30.0000000  0  8G14G 3G25G 9G31G23G15G18
  20266409.381   -20937673.49749 -16292998.02748  20266409.117    20266413.026
       242.000         218.000
  22793373.216   -11073921.61149  -8613714.49646  22793372.636    22793380.806
       225.000         174.000
  23362169.196    -5625825.44049  -4007538.02446  23362169.377    23362175.238
       223.000         168.000
  24278519.330     3821422.42749   3008065.94445  24278519.381    24278524.591
       208.000         143.000
  22880049.358   -11317651.87849  -8447409.73946  22880048.542    22880055.629
       226.000         174.000
  23735415.425    -1417401.41449  -1084189.39045  23735415.544    23735420.986
       216.000         159.000
  21577875.402   -22076712.44049 -17179504.34747  21577875.058    21577880.995
       235.000         195.000
  22644934.813    -7169274.70549  -5184235.26246  22644934.658    22644938.785
       226.000         173.000
 03  3 25  2 33  0.0000000  0  8G14G 3G25G 9G31G23G15G18
  20269334.007   -20922304.46749 -16281022.14248  20269333.293    20269337.559
       242.000         218.000
  22804973.053   -11012964.66349  -8566215.60246  22804972.836    22804980.012
       228.000         175.000
  23343683.556    -5722967.77549  -4083233.23746  23343683.694    23343689.769
       222.000         168.000
  24292646.166     3895658.35649   3065912.12345  24292645.511    24292651.733
       208.000         144.000
  22884779.163   -11292795.99249  -8428041.52446  22884778.338    22884784.980
       227.000         173.000
  23745271.344    -1365609.14149  -1043831.76645  23745271.820    23745276.846
       217.000         161.000
  21592422.927   -22000264.69549 -17119934.68147  21592422.307    21592428.536
       236.000         195.000
  22655384.208    -7114362.15749  -5141446.25746  22655383.235    22655388.011
       225.000         174.000
 03  3 25  2 33 30.0000000  0  8G14G 3G25G 9G31G23G15G18
  20272343.399   -20906489.33849 -16268698.64448  20272343.119    20272346.995
       242.000         218.000
  22816630.009   -10951707.11449  -8518482.45746  22816630.176    22816636.251
       227.000         176.000
  23325215.730    -5820017.07149  -4158855.95546  23325215.579    23325221.030
       223.000         168.000
  24306858.152     3970342.30149   3124107.42945  24306857.563    24306863.478
       209.000         144.000
  22889601.343   -11267455.77849  -8408295.88646  22889601.459    22889606.076
       229.000         173.000
  23755134.793    -1313777.14049  -1003443.20645  23755135.172    23755140.537
       217.000         161.000
  21607044.282   -21923428.83449 -17060062.58147  21607043.335    21607049.823
       234.000         194.000
  22665851.435    -7059355.60549  -5098584.00446  22665850.908    22665855.588
       225.000         174.000
 03  3 25  2 34  0.0000000  0  8G14G 3G25G 9G31G23G15G18
  20275437.545   -20890229.82049 -16256028.87348  20275437.397    20275441.055
       242.000         218.000
  22828343.638   -10890151.51149  -8470517.07346  22828343.756    22828349.535
       225.000         176.000
  23306766.017    -5916970.58549  -4234404.04946  23306765.542    23306772.784
       222.000         169.000
  24321155.027     4045472.19749   3182650.18545  24321154.785    24321160.005
       208.000         145.000
  22894515.306   -11241633.02249  -8388174.24946  22894514.248    22894519.992
       228.000         173.000
  23765005.784    -1261905.03149   -963023.37545  23765004.939    23765011.469
       218.000         160.000
  21621739.184   -21846206.38249 -16999889.23447  21621738.292    21621745.104
       234.000         193.000
  22676336.587    -7004255.16249  -5055648.58546  22676336.269    22676341.043
       226.000         174.000
 03  3 25  2 34 30.0000000  0  8G14G 3G25G 9G31G23G15G18
  20278615.949   -20873527.05549 -16243013.71048  20278615.287    20278619.552
       241.000         218.000
  22840113.620   -10828300.01449  -8422321.11746  22840113.458    22840120.663
       225.000         174.000
  23288335.136    -6013825.28549  -4309875.14246  23288334.631    23288340.645
       222.000         169.000
  24335536.456     4121046.20249   3241539.00845  24335536.099    24335541.060
       208.000         145.000
  22899520.630   -11215329.00149  -8367677.60046  22899519.972    22899526.027
       228.000         173.000
  23774884.652    -1209991.77749   -922571.48345  23774884.630    23774890.113
       218.000         161.000
  21636507.468   -21768598.11149 -16939415.25647  21636506.788    21636513.190
       233.000         192.000
  22686839.867    -6949059.87149  -5012639.25346  22686839.408    22686844.047
       227.000         175.000
 03  3 25  2 35  0.0000000  0  8G14G 3G25G 9G31G23G15G18
  20281878.226   -20856383.01149 -16229654.69248  20281877.778    20281882.004
       242.000         218.000
  22851939.235   -10766156.22649  -8373897.40446  22851939.102    22851945.534
       223.000         171.000
  23269923.459    -6110578.95449  -4385267.52346  23269922.608    23269928.822
       222.000         169.000
  24350001.648     4197061.32349   3300771.57345  24350000.425    24350006.704
       209.000         145.000
  22904617.226   -11188545.85449  -8346807.62746  22904617.403    22904622.592
       228.000         174.000
  23784771.257    -1158037.31949   -882087.49445  23784770.676    23784776.969
       218.000         160.000
  21651348.914   -21690605.73649 -16878641.97847  21651348.104    21651354.503
       233.000         191.000
  22697361.190    -6893770.28649  -4969556.46046  22697362.033    22697365.568
       229.000         177.000
 03  3 25  2 35 30.0000000  0  7G14G 3G25G31G23G15G18
  20285224.438   -20838798.54049 -16215952.48448  20285224.032    20285227.925
       243.000         218.000
  22863820.023   -10703722.02849  -8325247.38046  22863819.007    22863826.046
       221.000         168.000
  23251531.636    -6207228.02649  -4460578.37846  23251530.880    23251537.359
       222.000         168.000
  22909804.842   -11161284.83749  -8325565.25746  22909804.352    22909809.947
       229.000         173.000
  23794665.844    -1106040.36449   -841570.38945  23794665.236    23794672.096
       218.000         161.000
  21666263.355   -21612229.88649 -16817569.89747  21666262.838    21666269.549
       233.000         191.000
  22707900.897    -6838385.12949  -4926399.19046  22707900.697    22707904.716
       229.000         178.000
 03  3 25  2 36  0.0000000  0  8G14G 3G25G11G31G23G15G18
  20288653.500   -20820778.73349 -16201911.05948  20288653.238    20288657.196
       242.000         218.000
  22875754.927   -10641003.87449  -8276376.09346  22875754.705    22875760.956
       221.000         165.000
  23233159.674    -6303773.20049  -4535808.28646  23233159.508    23233164.953
       223.000         168.000
  24673573.434    -2596931.86849  -1988064.34145  24673574.130    24673580.055
       213.000         149.000
  22915082.365   -11133551.34649  -8303954.72046  22915082.079    22915087.222
       227.000         173.000
  23804568.065    -1054004.07349   -801022.62345  23804568.130    23804573.386
       220.000         160.000
  21681249.840   -21533475.57449 -16756202.90547  21681249.373    21681254.929
       234.000         191.000
  22718457.854    -6782908.21149  -4883170.41246  22718457.169    22718462.190
       227.000         177.000
 03  3 25  2 36 30.0000000  0  8G14G 3G25G11G31G23G15G18
  20292165.598   -20802322.55249 -16187529.60448  20292165.156    20292169.367
       242.000         218.000
  22887743.855   -10578001.51149  -8227283.36146  22887743.165    22887750.810
       222.000         165.000
  23214808.667    -6400208.53249  -4610952.59946  23214808.283    23214814.172
       222.000         168.000
  24654549.722    -2696903.36949  -2065964.14545  24654550.290    24654556.629
       213.000         149.000
  22920450.025   -11105344.20849  -8281975.12846  22920449.803    22920455.421
       227.000         173.000
  23814478.397    -1001925.02149   -760441.53845  23814478.250    23814484.017
       218.000         159.000
  21696308.578   -21454341.23449 -16694539.78347  21696307.979    21696314.139
       234.000         192.000
  22729032.767    -6727336.29149  -4839867.60746  22729032.648    22729037.194
       227.000         177.000
 03  3 25  2 37  0.0000000  0  8G14G 3G25G11G31G23G15G18
  20295760.643   -20783430.31049 -16172808.35848  20295760.118    20295764.460
       242.000         218.000
  22899786.555   -10514716.49649  -8177970.36346  22899786.398    22899792.486
       226.000         170.000
  23196479.069    -6496530.41649  -4686008.52846  23196478.372    23196484.136
       223.000         168.000
  24635541.370    -2796793.83549  -2143800.81745  24635541.709    24635547.475
       216.000         148.000
  22925907.625   -11076664.10149  -8259626.99546  22925906.865    22925912.912
       228.000         172.000
  23824397.131     -949801.43149   -719825.74845  23824396.793    23824403.081
       217.000         158.000
  21711439.743   -21374826.54849 -16632580.29247  21711439.163    21711445.448
       235.000         193.000
  22739626.254    -6671667.72449  -4796489.49346  22739626.684    22739630.223
       228.000         176.000
 03  3 25  2 37 30.0000000  0  8G14G 3G25G11G31G23G15G18
  20299438.290   -20764103.93849 -16157748.83448  20299438.031    20299442.107
       242.000         218.000
  22911882.508   -10451152.46549  -8128439.93546  22911882.604    22911889.065
       228.000         173.000
  23178171.504    -6592736.43449  -4760974.17246  23178171.186    23178177.662
       223.000         169.000
  24616548.770    -2896601.82149  -2221573.22045  24616549.108    24616554.013
       214.000         149.000
  22931454.762   -11047513.39949  -8236912.13646  22931454.554    22931459.688
       226.000         171.000
  23834324.287     -897633.20349   -679175.17645  23834323.671    23834330.053
       217.000         157.000
  21726642.909   -21294933.71649 -16570326.15547  21726642.179    21726648.281
       234.000         193.000
  22750238.027    -6615902.95549  -4753036.42546  22750237.658    22750241.849
       228.000         175.000
 03  3 25  2 38  0.0000000  0  8G14G 3G25G11G31G23G15G18
  20303198.276   -20744345.09749 -16142352.31948  20303197.909    20303201.972
       242.000         218.000
  22924030.964   -10387312.03349  -8078694.13846  22924030.224    22924037.555
       225.000         175.000
  23159886.675    -6688823.51249  -4835847.13346  23159886.574    23159892.137
       222.000         169.000
  24597571.987    -2996325.28249  -2299279.75745  24597572.125    24597577.599
       212.000         148.000
  22937091.080   -11017893.92249  -8213832.01146  22937090.683    22937095.805
       226.000         170.000
  23844260.145     -845419.75949   -638489.37745  23844259.633    23844265.571
       219.000         158.000
  21741917.795   -21214663.67049 -16507778.08347  21741917.324    21741923.375
       234.000         192.000
  22760867.969    -6560041.65949  -4709508.14346  22760866.770    22760871.967
       226.000         174.000
 03  3 25  2 38 30.0000000  0  8G14G 3G25G11G31G23G15G18
  20307040.254   -20724155.51949 -16126620.16748  20307039.839    20307043.840
       242.000         218.000
  22936231.292   -10323198.11449  -8028735.24746  22936230.788    22936238.321
       226.000         175.000
  23141624.929    -6784788.95849  -4910625.31946  23141624.866    23141630.583
       221.000         170.000
  24578611.682    -3095961.75649  -2376918.52445  24578610.972    24578617.644
       213.000         148.000
  22942816.290   -10987807.68549  -8190388.16646  22942815.759    22942821.569
       225.000         170.000
  23854204.724     -793160.58849   -597767.93645  23854204.348    23854210.263
       219.000         158.000
  21757264.207   -21134017.95649 -16444937.27347  21757263.700    21757269.420
       234.000         192.000
  22771516.280    -6504083.66449  -4665904.50346  22771515.518    22771520.289
       227.000         174.000
